<?xml version='1.0' encoding='UTF-8'?><gpx version="1.1" creator="JPX - https://github.com/jenetics/jpx" xmlns="http://www.topografix.com/GPX/1/1"><trk><trkseg><trkpt lat="42.43303946481372" lon="-8.080337900319293"><ele>389.0</ele><time>2026-04-16T14:17:39.999Z</time></trkpt><trkpt lat="42.43311124049884" lon="-8.080217655455485"><ele>389.0</ele><time>2026-04-16T14:17:40.999Z</time></trkpt><trkpt lat="42.43321204127281" lon="-8.080187881007303"><ele>389.0</ele><time>2026-04-16T14:17:41.999Z</time></trkpt><trkpt lat="42.43332383090616" lon="-8.080154533842967"><ele>389.0</ele><time>2026-04-16T14:17:42.999Z</time></trkpt><trkpt lat="42.433449303595395" lon="-8.080117105166886"><ele>389.0</ele><time>2026-04-16T14:17:43.999Z</time></trkpt><trkpt lat="42.433573085952574" lon="-8.080078755779349"><ele>389.0</ele><time>2026-04-16T14:17:44.999Z</time></trkpt><trkpt lat="42.433687886549876" lon="-8.080038690548939"><ele>389.0</ele><time>2026-04-16T14:17:45.999Z</time></trkpt><trkpt lat="42.433813087938944" lon="-8.079991946618534"><ele>389.0</ele><time>2026-04-16T14:17:46.999Z</time></trkpt><trkpt lat="42.43393385066043" lon="-8.0799370391"><ele>389.3333333333333</ele><time>2026-04-16T14:17:47.999Z</time></trkpt><trkpt lat="42.434113662251114" lon="-8.07999215770008"><ele>389.66666666666663</ele><time>2026-04-16T14:17:48.999Z</time></trkpt><trkpt lat="42.43425177942061" lon="-8.079957235060183"><ele>390.0</ele><time>2026-04-16T14:17:49.999Z</time></trkpt><trkpt lat="42.43437932351626" lon="-8.07991916369559"><ele>391.0</ele><time>2026-04-16T14:17:50.999Z</time></trkpt><trkpt lat="42.434499643469486" lon="-8.07987530387912"><ele>392.0</ele><time>2026-04-16T14:17:51.999Z</time></trkpt><trkpt lat="42.43461881162379" lon="-8.079826474853242"><ele>393.0</ele><time>2026-04-16T14:17:52.999Z</time></trkpt><trkpt lat="42.43474526656601" lon="-8.079769991001134"><ele>394.0</ele><time>2026-04-16T14:17:53.999Z</time></trkpt><trkpt lat="42.434862843750366" lon="-8.079712649493342"><ele>394.0</ele><time>2026-04-16T14:17:54.999Z</time></trkpt><trkpt lat="42.43498398385796" lon="-8.07964975244122"><ele>394.0</ele><time>2026-04-16T14:17:55.999Z</time></trkpt><trkpt lat="42.43510193457342" lon="-8.079583429990809"><ele>394.0</ele><time>2026-04-16T14:17:56.999Z</time></trkpt><trkpt lat="42.435211840559134" lon="-8.079521631000674"><ele>394.0</ele><time>2026-04-16T14:17:57.999Z</time></trkpt><trkpt lat="42.43531720153253" lon="-8.079462551645035"><ele>394.0</ele><time>2026-04-16T14:17:58.999Z</time></trkpt><trkpt lat="42.43541340982383" lon="-8.079409048944907"><ele>394.0</ele><time>2026-04-16T14:17:59.999Z</time></trkpt><trkpt lat="42.43551428065223" lon="-8.079361028507892"><ele>394.0</ele><time>2026-04-16T14:18:00.999Z</time></trkpt><trkpt lat="42.43560971403604" lon="-8.07931811427748"><ele>394.0</ele><time>2026-04-16T14:18:01.999Z</time></trkpt><trkpt lat="42.43570084040061" lon="-8.079277958786673"><ele>394.0</ele><time>2026-04-16T14:18:02.999Z</time></trkpt><trkpt lat="42.43580322236317" lon="-8.079232843471715"><ele>394.00000000000006</ele><time>2026-04-16T14:18:03.999Z</time></trkpt><trkpt lat="42.435882377772224" lon="-8.079197963224388"><ele>394.0</ele><time>2026-04-16T14:18:04.999Z</time></trkpt><trkpt lat="42.43596087116387" lon="-8.079162988023855"><ele>394.0</ele><time>2026-04-16T14:18:05.999Z</time></trkpt><trkpt lat="42.436026879863164" lon="-8.079140767704084"><ele>394.0</ele><time>2026-04-16T14:18:06.999Z</time></trkpt><trkpt lat="42.436047604448554" lon="-8.079011471757836"><ele>394.00000000000006</ele><time>2026-04-16T14:18:11.999Z</time></trkpt><trkpt lat="42.43601274627575" lon="-8.07893564796682"><ele>394.0</ele><time>2026-04-16T14:18:12.999Z</time></trkpt><trkpt lat="42.435974356662854" lon="-8.078858266579424"><ele>394.2</ele><time>2026-04-16T14:18:13.999Z</time></trkpt><trkpt lat="42.43605832765702" lon="-8.078735278317788"><ele>394.4</ele><time>2026-04-16T14:18:15.999Z</time></trkpt><trkpt lat="42.43613799603213" lon="-8.078678717099006"><ele>394.6</ele><time>2026-04-16T14:18:16.999Z</time></trkpt><trkpt lat="42.43622851052728" lon="-8.078619876049194"><ele>394.8</ele><time>2026-04-16T14:18:17.999Z</time></trkpt><trkpt lat="42.436316372839286" lon="-8.078565927410386"><ele>395.0</ele><time>2026-04-16T14:18:18.999Z</time></trkpt><trkpt lat="42.43640394461769" lon="-8.0784765801071"><ele>394.16666666666663</ele><time>2026-04-16T14:18:19.999Z</time></trkpt><trkpt lat="42.43646209297983" lon="-8.078406895906614"><ele>393.3333333333333</ele><time>2026-04-16T14:18:20.999Z</time></trkpt><trkpt lat="42.4365210566705" lon="-8.078328485764423"><ele>392.5</ele><time>2026-04-16T14:18:21.999Z</time></trkpt><trkpt lat="42.436602743833056" lon="-8.078258283758172"><ele>391.66666666666663</ele><time>2026-04-16T14:18:22.999Z</time></trkpt><trkpt lat="42.4366730182465" lon="-8.078192157694666"><ele>390.8333333333333</ele><time>2026-04-16T14:18:23.999Z</time></trkpt><trkpt lat="42.43672728912358" lon="-8.078115161121497"><ele>390.0</ele><time>2026-04-16T14:18:24.999Z</time></trkpt><trkpt lat="42.436792311580014" lon="-8.078050934713128"><ele>389.8333333333333</ele><time>2026-04-16T14:18:25.999Z</time></trkpt><trkpt lat="42.436860759532536" lon="-8.078012579104842"><ele>389.66666666666663</ele><time>2026-04-16T14:18:26.999Z</time></trkpt><trkpt lat="42.43691683963101" lon="-8.077930444834616"><ele>389.5</ele><time>2026-04-16T14:18:27.999Z</time></trkpt><trkpt lat="42.436983673773305" lon="-8.077883585027925"><ele>389.3333333333333</ele><time>2026-04-16T14:18:28.999Z</time></trkpt><trkpt lat="42.4370352046135" lon="-8.077818945965737"><ele>389.16666666666663</ele><time>2026-04-16T14:18:29.999Z</time></trkpt><trkpt lat="42.437100003513486" lon="-8.077760872794745"><ele>389.0</ele><time>2026-04-16T14:18:30.999Z</time></trkpt><trkpt lat="42.43716895087888" lon="-8.077702644834764"><ele>388.16666666666663</ele><time>2026-04-16T14:18:31.999Z</time></trkpt><trkpt lat="42.437228912820686" lon="-8.077638215553304"><ele>387.3333333333333</ele><time>2026-04-16T14:18:32.999Z</time></trkpt><trkpt lat="42.4373127438319" lon="-8.077561168865351"><ele>386.5</ele><time>2026-04-16T14:18:33.999Z</time></trkpt><trkpt lat="42.437380500964416" lon="-8.077533067231508"><ele>385.66666666666663</ele><time>2026-04-16T14:18:34.999Z</time></trkpt><trkpt lat="42.43744684633445" lon="-8.077519829636351"><ele>384.8333333333333</ele><time>2026-04-16T14:18:35.999Z</time></trkpt><trkpt lat="42.43750650467443" lon="-8.077487188481157"><ele>384.0</ele><time>2026-04-16T14:18:36.999Z</time></trkpt><trkpt lat="42.43758413997781" lon="-8.077467033734107"><ele>384.0</ele><time>2026-04-16T14:18:37.999Z</time></trkpt><trkpt lat="42.437668751594344" lon="-8.077447000964563"><ele>384.0</ele><time>2026-04-16T14:18:38.999Z</time></trkpt><trkpt lat="42.437749550705135" lon="-8.077426162264132"><ele>384.0</ele><time>2026-04-16T14:18:39.999Z</time></trkpt><trkpt lat="42.43783576450448" lon="-8.077402501938698"><ele>384.0</ele><time>2026-04-16T14:18:40.999Z</time></trkpt><trkpt lat="42.43792119655141" lon="-8.077379056186773"><ele>384.0</ele><time>2026-04-16T14:18:41.999Z</time></trkpt><trkpt lat="42.43800688962359" lon="-8.077355538018036"><ele>384.0</ele><time>2026-04-16T14:18:42.999Z</time></trkpt><trkpt lat="42.43809679077663" lon="-8.077330544148557"><ele>384.5</ele><time>2026-04-16T14:18:43.999Z</time></trkpt><trkpt lat="42.438175495502605" lon="-8.077308773559704"><ele>385.0</ele><time>2026-04-16T14:18:44.999Z</time></trkpt><trkpt lat="42.43826150311339" lon="-8.07728643263048"><ele>385.5</ele><time>2026-04-16T14:18:45.999Z</time></trkpt><trkpt lat="42.43834367393639" lon="-8.077266956855855"><ele>386.0</ele><time>2026-04-16T14:18:46.999Z</time></trkpt><trkpt lat="42.438422386580775" lon="-8.077248300695851"><ele>386.5</ele><time>2026-04-16T14:18:47.999Z</time></trkpt><trkpt lat="42.43850185407746" lon="-8.07722946562804"><ele>387.0</ele><time>2026-04-16T14:18:48.999Z</time></trkpt><trkpt lat="42.43862620002009" lon="-8.077199993690584"><ele>387.0</ele><time>2026-04-16T14:18:49.999Z</time></trkpt><trkpt lat="42.438728889298396" lon="-8.077175654652063"><ele>387.0</ele><time>2026-04-16T14:18:50.999Z</time></trkpt><trkpt lat="42.438852154160536" lon="-8.077169134852321"><ele>387.0</ele><time>2026-04-16T14:18:51.999Z</time></trkpt><trkpt lat="42.438988360935994" lon="-8.077155032968838"><ele>387.0</ele><time>2026-04-16T14:18:52.999Z</time></trkpt><trkpt lat="42.43911368622127" lon="-8.07718085726975"><ele>386.0</ele><time>2026-04-16T14:18:53.999Z</time></trkpt><trkpt lat="42.439235481527014" lon="-8.077236826962647"><ele>385.0</ele><time>2026-04-16T14:18:54.999Z</time></trkpt><trkpt lat="42.439346606565046" lon="-8.077319041794983"><ele>384.0</ele><time>2026-04-16T14:18:55.999Z</time></trkpt><trkpt lat="42.43944812144162" lon="-8.07740957823014"><ele>383.0</ele><time>2026-04-16T14:18:56.999Z</time></trkpt><trkpt lat="42.43952159171545" lon="-8.077517119528014"><ele>383.0</ele><time>2026-04-16T14:18:57.999Z</time></trkpt><trkpt lat="42.439550704728546" lon="-8.077649451391874"><ele>383.0</ele><time>2026-04-16T14:18:58.999Z</time></trkpt><trkpt lat="42.43959201721748" lon="-8.07781067931721"><ele>383.0</ele><time>2026-04-16T14:18:59.999Z</time></trkpt><trkpt lat="42.439675641634935" lon="-8.077949373464781"><ele>383.0</ele><time>2026-04-16T14:19:00.999Z</time></trkpt><trkpt lat="42.43976612684891" lon="-8.078056188215914"><ele>382.75</ele><time>2026-04-16T14:19:01.999Z</time></trkpt><trkpt lat="42.439883920873164" lon="-8.078125894350825"><ele>382.5</ele><time>2026-04-16T14:19:02.999Z</time></trkpt><trkpt lat="42.440003401584065" lon="-8.078177441458696"><ele>382.25</ele><time>2026-04-16T14:19:03.999Z</time></trkpt><trkpt lat="42.44012250375848" lon="-8.07821503267838"><ele>382.0</ele><time>2026-04-16T14:19:04.999Z</time></trkpt><trkpt lat="42.440228940570265" lon="-8.078271016776473"><ele>382.0</ele><time>2026-04-16T14:19:05.999Z</time></trkpt><trkpt lat="42.440327417021116" lon="-8.078328020665285"><ele>382.0</ele><time>2026-04-16T14:19:06.999Z</time></trkpt><trkpt lat="42.44042274531338" lon="-8.078376958897369"><ele>382.0</ele><time>2026-04-16T14:19:07.999Z</time></trkpt><trkpt lat="42.44049531896776" lon="-8.078421948021948"><ele>382.0</ele><time>2026-04-16T14:19:08.999Z</time></trkpt><trkpt lat="42.44056269040817" lon="-8.078487708712894"><ele>382.0</ele><time>2026-04-16T14:19:09.999Z</time></trkpt><trkpt lat="42.44062108633522" lon="-8.078552311893322"><ele>382.0</ele><time>2026-04-16T14:19:10.999Z</time></trkpt><trkpt lat="42.440663197332704" lon="-8.07864420250278"><ele>382.40000000000003</ele><time>2026-04-16T14:19:11.999Z</time></trkpt><trkpt lat="42.440670096386434" lon="-8.07878157264529"><ele>382.8</ele><time>2026-04-16T14:19:12.999Z</time></trkpt><trkpt lat="42.440651374483025" lon="-8.078952588927407"><ele>383.2</ele><time>2026-04-16T14:19:13.999Z</time></trkpt><trkpt lat="42.44064702142193" lon="-8.07910578257766"><ele>383.6</ele><time>2026-04-16T14:19:14.999Z</time></trkpt><trkpt lat="42.44064364750532" lon="-8.079248056309593"><ele>384.0</ele><time>2026-04-16T14:19:15.999Z</time></trkpt><trkpt lat="42.4406894238744" lon="-8.079354153857404"><ele>384.0</ele><time>2026-04-16T14:19:16.999Z</time></trkpt><trkpt lat="42.44079045005807" lon="-8.079400858919122"><ele>384.0</ele><time>2026-04-16T14:19:17.999Z</time></trkpt><trkpt lat="42.440905041516096" lon="-8.079418931032796"><ele>384.0</ele><time>2026-04-16T14:19:18.999Z</time></trkpt><trkpt lat="42.4410212778718" lon="-8.079450923328825"><ele>384.0</ele><time>2026-04-16T14:19:19.999Z</time></trkpt><trkpt lat="42.441127989188644" lon="-8.079489359639545"><ele>384.0</ele><time>2026-04-16T14:19:20.999Z</time></trkpt><trkpt lat="42.441216566026476" lon="-8.079576737739043"><ele>384.0</ele><time>2026-04-16T14:19:21.999Z</time></trkpt><trkpt lat="42.44129143957069" lon="-8.079728545000512"><ele>384.0</ele><time>2026-04-16T14:19:22.999Z</time></trkpt><trkpt lat="42.4413022667426" lon="-8.079876053023527"><ele>384.0</ele><time>2026-04-16T14:19:23.999Z</time></trkpt><trkpt lat="42.441295008704564" lon="-8.080022972454532"><ele>384.75</ele><time>2026-04-16T14:19:24.999Z</time></trkpt><trkpt lat="42.44127600931199" lon="-8.080226355887612"><ele>385.5</ele><time>2026-04-16T14:19:25.999Z</time></trkpt><trkpt lat="42.44128884547217" lon="-8.080413419320486"><ele>386.25</ele><time>2026-04-16T14:19:26.999Z</time></trkpt><trkpt lat="42.44131149742285" lon="-8.080598105838371"><ele>387.0</ele><time>2026-04-16T14:19:27.999Z</time></trkpt><trkpt lat="42.44133667855206" lon="-8.080792358146729"><ele>388.0</ele><time>2026-04-16T14:19:28.999Z</time></trkpt><trkpt lat="42.44135808959576" lon="-8.080987987225134"><ele>389.0</ele><time>2026-04-16T14:19:29.999Z</time></trkpt><trkpt lat="42.44138774601351" lon="-8.081191477502854"><ele>390.0</ele><time>2026-04-16T14:19:30.999Z</time></trkpt><trkpt lat="42.441391687476205" lon="-8.081392363561017"><ele>391.0</ele><time>2026-04-16T14:19:31.999Z</time></trkpt><trkpt lat="42.441408703873876" lon="-8.081621386731351"><ele>391.6666666666667</ele><time>2026-04-16T14:19:32.999Z</time></trkpt><trkpt lat="42.44146066990641" lon="-8.081831570145056"><ele>392.33333333333337</ele><time>2026-04-16T14:19:33.999Z</time></trkpt><trkpt lat="42.44150123421336" lon="-8.08205297738685"><ele>393.0</ele><time>2026-04-16T14:19:34.999Z</time></trkpt><trkpt lat="42.44157460875416" lon="-8.082260037882918"><ele>393.66666666666663</ele><time>2026-04-16T14:19:35.999Z</time></trkpt><trkpt lat="42.441673431720346" lon="-8.082453763312436"><ele>394.3333333333333</ele><time>2026-04-16T14:19:36.999Z</time></trkpt><trkpt lat="42.441800596217185" lon="-8.08262718712937"><ele>395.0</ele><time>2026-04-16T14:19:37.999Z</time></trkpt><trkpt lat="42.4419413078713" lon="-8.082775325376524"><ele>395.0</ele><time>2026-04-16T14:19:38.999Z</time></trkpt><trkpt lat="42.44208054539116" lon="-8.082932788598468"><ele>395.0</ele><time>2026-04-16T14:19:39.999Z</time></trkpt><trkpt lat="42.44222961842384" lon="-8.083077172242442"><ele>395.0</ele><time>2026-04-16T14:19:40.999Z</time></trkpt><trkpt lat="42.44239000372797" lon="-8.083202042082103"><ele>396.0</ele><time>2026-04-16T14:19:41.999Z</time></trkpt><trkpt lat="42.44255001565644" lon="-8.083341205149049"><ele>397.0</ele><time>2026-04-16T14:19:42.999Z</time></trkpt><trkpt lat="42.4427061993714" lon="-8.08348032657925"><ele>398.0</ele><time>2026-04-16T14:19:43.999Z</time></trkpt><trkpt lat="42.442880229261434" lon="-8.08357782103512"><ele>398.0</ele><time>2026-04-16T14:19:44.999Z</time></trkpt><trkpt lat="42.44305536695271" lon="-8.08367086827676"><ele>398.0</ele><time>2026-04-16T14:19:45.999Z</time></trkpt><trkpt lat="42.443247791631734" lon="-8.0837435797439"><ele>398.0</ele><time>2026-04-16T14:19:46.999Z</time></trkpt><trkpt lat="42.4434379990177" lon="-8.083782455814907"><ele>398.0</ele><time>2026-04-16T14:19:47.999Z</time></trkpt><trkpt lat="42.44363783541026" lon="-8.083791060446398"><ele>398.0</ele><time>2026-04-16T14:19:48.999Z</time></trkpt><trkpt lat="42.44384132304428" lon="-8.08377200131124"><ele>398.0</ele><time>2026-04-16T14:19:49.999Z</time></trkpt><trkpt lat="42.44403835429559" lon="-8.083754846827588"><ele>398.3333333333333</ele><time>2026-04-16T14:19:50.999Z</time></trkpt><trkpt lat="42.444231868865" lon="-8.083773257687323"><ele>398.66666666666663</ele><time>2026-04-16T14:19:51.999Z</time></trkpt><trkpt lat="42.44442886877365" lon="-8.083758874342042"><ele>399.0</ele><time>2026-04-16T14:19:52.999Z</time></trkpt><trkpt lat="42.44462948926855" lon="-8.083766345627456"><ele>401.66666666666663</ele><time>2026-04-16T14:19:53.999Z</time></trkpt><trkpt lat="42.444837258719225" lon="-8.083802672914102"><ele>404.3333333333333</ele><time>2026-04-16T14:19:54.999Z</time></trkpt><trkpt lat="42.445020246511994" lon="-8.083861195886572"><ele>407.0</ele><time>2026-04-16T14:19:55.999Z</time></trkpt><trkpt lat="42.44520929267995" lon="-8.083927722384749"><ele>407.0</ele><time>2026-04-16T14:19:56.999Z</time></trkpt><trkpt lat="42.445405865752925" lon="-8.08399162444894"><ele>407.0</ele><time>2026-04-16T14:19:57.999Z</time></trkpt><trkpt lat="42.44559533152183" lon="-8.084052785116484"><ele>407.0</ele><time>2026-04-16T14:19:58.999Z</time></trkpt><trkpt lat="42.44579021085917" lon="-8.084131557299518"><ele>408.3333333333333</ele><time>2026-04-16T14:19:59.999Z</time></trkpt><trkpt lat="42.445988362555966" lon="-8.08417730640555"><ele>409.66666666666663</ele><time>2026-04-16T14:20:00.999Z</time></trkpt><trkpt lat="42.44617866738841" lon="-8.084251909715471"><ele>411.0</ele><time>2026-04-16T14:20:01.999Z</time></trkpt><trkpt lat="42.44635775153521" lon="-8.08430453763461"><ele>412.66666666666663</ele><time>2026-04-16T14:20:02.999Z</time></trkpt><trkpt lat="42.44654970665075" lon="-8.084347221376222"><ele>414.3333333333333</ele><time>2026-04-16T14:20:03.999Z</time></trkpt><trkpt lat="42.446738521928445" lon="-8.084406132724457"><ele>416.0</ele><time>2026-04-16T14:20:04.999Z</time></trkpt><trkpt lat="42.446910738833544" lon="-8.084484774559867"><ele>416.0</ele><time>2026-04-16T14:20:05.999Z</time></trkpt><trkpt lat="42.44708525126966" lon="-8.084533810331996"><ele>416.0</ele><time>2026-04-16T14:20:06.999Z</time></trkpt><trkpt lat="42.44726033672337" lon="-8.084616167848782"><ele>416.0</ele><time>2026-04-16T14:20:07.999Z</time></trkpt><trkpt lat="42.44742595770146" lon="-8.084722137587224"><ele>417.3333333333333</ele><time>2026-04-16T14:20:08.999Z</time></trkpt><trkpt lat="42.44757513405037" lon="-8.084850937254279"><ele>418.66666666666663</ele><time>2026-04-16T14:20:09.999Z</time></trkpt><trkpt lat="42.44771534393064" lon="-8.084998173235604"><ele>420.0</ele><time>2026-04-16T14:20:10.999Z</time></trkpt><trkpt lat="42.44784958782782" lon="-8.0851492275949"><ele>423.0</ele><time>2026-04-16T14:20:11.999Z</time></trkpt><trkpt lat="42.44796778328744" lon="-8.085330318654032"><ele>426.0</ele><time>2026-04-16T14:20:12.999Z</time></trkpt><trkpt lat="42.448078772648145" lon="-8.085507724471462"><ele>429.0</ele><time>2026-04-16T14:20:13.999Z</time></trkpt><trkpt lat="42.44816893993564" lon="-8.085696931043078"><ele>429.0</ele><time>2026-04-16T14:20:14.999Z</time></trkpt><trkpt lat="42.44826940152143" lon="-8.085887809180202"><ele>429.0</ele><time>2026-04-16T14:20:15.999Z</time></trkpt><trkpt lat="42.448353204954756" lon="-8.08609653799455"><ele>429.0</ele><time>2026-04-16T14:20:16.999Z</time></trkpt><trkpt lat="42.44842029303959" lon="-8.08629909621411"><ele>429.0</ele><time>2026-04-16T14:20:17.999Z</time></trkpt><trkpt lat="42.44847550593745" lon="-8.086523293806705"><ele>429.0</ele><time>2026-04-16T14:20:18.999Z</time></trkpt><trkpt lat="42.44852802307178" lon="-8.086768246872897"><ele>429.0</ele><time>2026-04-16T14:20:19.999Z</time></trkpt><trkpt lat="42.44856887959954" lon="-8.086994095948945"><ele>430.0</ele><time>2026-04-16T14:20:20.999Z</time></trkpt><trkpt lat="42.44859606032705" lon="-8.087208398980707"><ele>431.0</ele><time>2026-04-16T14:20:21.999Z</time></trkpt><trkpt lat="42.448622549296076" lon="-8.087443183253722"><ele>432.0</ele><time>2026-04-16T14:20:22.999Z</time></trkpt><trkpt lat="42.44864763610189" lon="-8.087668216901074"><ele>433.0</ele><time>2026-04-16T14:20:23.999Z</time></trkpt><trkpt lat="42.44868068287116" lon="-8.087896502922876"><ele>434.0</ele><time>2026-04-16T14:20:24.999Z</time></trkpt><trkpt lat="42.448718555339404" lon="-8.088117585409323"><ele>435.0</ele><time>2026-04-16T14:20:25.999Z</time></trkpt><trkpt lat="42.44873451559248" lon="-8.088307198910067"><ele>436.4</ele><time>2026-04-16T14:20:26.999Z</time></trkpt><trkpt lat="42.44876637731979" lon="-8.0884788832672"><ele>437.8</ele><time>2026-04-16T14:20:27.999Z</time></trkpt><trkpt lat="42.44882079177926" lon="-8.08859269913857"><ele>439.20000000000005</ele><time>2026-04-16T14:20:28.999Z</time></trkpt><trkpt lat="42.448859245710615" lon="-8.088666253145604"><ele>440.6</ele><time>2026-04-16T14:20:29.999Z</time></trkpt><trkpt lat="42.44897145728499" lon="-8.088641939885594"><ele>442.0</ele><time>2026-04-16T14:20:30.999Z</time></trkpt><trkpt lat="42.449035121983705" lon="-8.0886740459601"><ele>442.8</ele><time>2026-04-16T14:20:32.999Z</time></trkpt><trkpt lat="42.44901577246056" lon="-8.088804917385135"><ele>443.6</ele><time>2026-04-16T14:20:33.999Z</time></trkpt><trkpt lat="42.44895124632866" lon="-8.088963121945675"><ele>444.40000000000003</ele><time>2026-04-16T14:20:35.999Z</time></trkpt><trkpt lat="42.44896500989622" lon="-8.089096233252723"><ele>445.20000000000005</ele><time>2026-04-16T14:20:36.999Z</time></trkpt><trkpt lat="42.44899497280916" lon="-8.089241562340796"><ele>446.0</ele><time>2026-04-16T14:20:37.999Z</time></trkpt><trkpt lat="42.449022296537855" lon="-8.089389724798911"><ele>447.0</ele><time>2026-04-16T14:20:38.999Z</time></trkpt><trkpt lat="42.44906632019181" lon="-8.089544753268289"><ele>448.0</ele><time>2026-04-16T14:20:39.999Z</time></trkpt><trkpt lat="42.44910957540601" lon="-8.089703809375376"><ele>449.0</ele><time>2026-04-16T14:20:40.999Z</time></trkpt><trkpt lat="42.44914894359187" lon="-8.08987204515305"><ele>450.0</ele><time>2026-04-16T14:20:41.999Z</time></trkpt><trkpt lat="42.449191381688436" lon="-8.090030206648724"><ele>450.5</ele><time>2026-04-16T14:20:42.999Z</time></trkpt><trkpt lat="42.4492410451314" lon="-8.090199265306266"><ele>451.0</ele><time>2026-04-16T14:20:43.999Z</time></trkpt><trkpt lat="42.44928589114431" lon="-8.090384731198755"><ele>451.5</ele><time>2026-04-16T14:20:44.999Z</time></trkpt><trkpt lat="42.449330938825696" lon="-8.090565167541799"><ele>452.0</ele><time>2026-04-16T14:20:45.999Z</time></trkpt><trkpt lat="42.44938047740299" lon="-8.090763042745529"><ele>452.75</ele><time>2026-04-16T14:20:46.999Z</time></trkpt><trkpt lat="42.44942654446588" lon="-8.090946932240819"><ele>453.5</ele><time>2026-04-16T14:20:47.999Z</time></trkpt><trkpt lat="42.449474483117434" lon="-8.091121926031303"><ele>454.25</ele><time>2026-04-16T14:20:48.999Z</time></trkpt><trkpt lat="42.44951602929853" lon="-8.09128171044418"><ele>455.0</ele><time>2026-04-16T14:20:49.999Z</time></trkpt><trkpt lat="42.449569399723885" lon="-8.091448176376822"><ele>455.0</ele><time>2026-04-16T14:20:50.999Z</time></trkpt><trkpt lat="42.44962081725964" lon="-8.09158750730195"><ele>455.0</ele><time>2026-04-16T14:20:51.999Z</time></trkpt><trkpt lat="42.4496730712318" lon="-8.091718674374508"><ele>455.0</ele><time>2026-04-16T14:20:52.999Z</time></trkpt><trkpt lat="42.44973244496335" lon="-8.09185042624852"><ele>455.0</ele><time>2026-04-16T14:20:53.999Z</time></trkpt><trkpt lat="42.449804652963955" lon="-8.091954679931877"><ele>455.0</ele><time>2026-04-16T14:20:54.999Z</time></trkpt><trkpt lat="42.44988197087477" lon="-8.092056770530196"><ele>457.6</ele><time>2026-04-16T14:20:55.999Z</time></trkpt><trkpt lat="42.449959321071574" lon="-8.09218033230749"><ele>460.2</ele><time>2026-04-16T14:20:56.999Z</time></trkpt><trkpt lat="42.45003906057738" lon="-8.092276583707765"><ele>462.79999999999995</ele><time>2026-04-16T14:20:57.999Z</time></trkpt><trkpt lat="42.45011715190853" lon="-8.092359159718722"><ele>465.4</ele><time>2026-04-16T14:20:58.999Z</time></trkpt><trkpt lat="42.45020220235544" lon="-8.092446385076476"><ele>468.0</ele><time>2026-04-16T14:20:59.999Z</time></trkpt><trkpt lat="42.450292526530596" lon="-8.092532588654521"><ele>468.0</ele><time>2026-04-16T14:21:00.999Z</time></trkpt><trkpt lat="42.4504014089466" lon="-8.092601615579285"><ele>468.0</ele><time>2026-04-16T14:21:01.999Z</time></trkpt><trkpt lat="42.45051769776779" lon="-8.092655859417851"><ele>468.0</ele><time>2026-04-16T14:21:02.999Z</time></trkpt><trkpt lat="42.450651518517276" lon="-8.092711161164797"><ele>468.0</ele><time>2026-04-16T14:21:03.999Z</time></trkpt><trkpt lat="42.45078756454831" lon="-8.092750155806673"><ele>470.75</ele><time>2026-04-16T14:21:04.999Z</time></trkpt><trkpt lat="42.45093383807513" lon="-8.092769859489717"><ele>473.5</ele><time>2026-04-16T14:21:05.999Z</time></trkpt><trkpt lat="42.451056195862954" lon="-8.092746053199264"><ele>476.25</ele><time>2026-04-16T14:21:06.999Z</time></trkpt><trkpt lat="42.45118434816496" lon="-8.092728526725455"><ele>479.0</ele><time>2026-04-16T14:21:07.999Z</time></trkpt><trkpt lat="42.45130266938075" lon="-8.092702367698323"><ele>481.25</ele><time>2026-04-16T14:21:08.999Z</time></trkpt><trkpt lat="42.4513985430367" lon="-8.092659703394755"><ele>483.5</ele><time>2026-04-16T14:21:09.999Z</time></trkpt><trkpt lat="42.45150281238791" lon="-8.092618872924865"><ele>485.75</ele><time>2026-04-16T14:21:10.999Z</time></trkpt><trkpt lat="42.45162762785514" lon="-8.09256680543651"><ele>488.0</ele><time>2026-04-16T14:21:11.999Z</time></trkpt><trkpt lat="42.45173665112186" lon="-8.092520572268977"><ele>488.0</ele><time>2026-04-16T14:21:12.999Z</time></trkpt><trkpt lat="42.45184846961198" lon="-8.092439290775658"><ele>488.0</ele><time>2026-04-16T14:21:13.999Z</time></trkpt><trkpt lat="42.45196312338592" lon="-8.092352942914108"><ele>488.0</ele><time>2026-04-16T14:21:14.999Z</time></trkpt><trkpt lat="42.45207880023689" lon="-8.092266619859618"><ele>488.0</ele><time>2026-04-16T14:21:15.999Z</time></trkpt><trkpt lat="42.45218144511661" lon="-8.092208903250407"><ele>490.75</ele><time>2026-04-16T14:21:16.999Z</time></trkpt><trkpt lat="42.45229245667346" lon="-8.092144641231645"><ele>493.5</ele><time>2026-04-16T14:21:17.999Z</time></trkpt><trkpt lat="42.45240983797549" lon="-8.092080007885292"><ele>496.25</ele><time>2026-04-16T14:21:18.999Z</time></trkpt><trkpt lat="42.45253326053103" lon="-8.092007761527766"><ele>499.0</ele><time>2026-04-16T14:21:19.999Z</time></trkpt><trkpt lat="42.452635008961394" lon="-8.091951760671465"><ele>499.0</ele><time>2026-04-16T14:21:20.999Z</time></trkpt><trkpt lat="42.4527074645477" lon="-8.091882230928483"><ele>499.0</ele><time>2026-04-16T14:21:21.999Z</time></trkpt><trkpt lat="42.45276857836635" lon="-8.091858806779532"><ele>499.0</ele><time>2026-04-16T14:21:22.999Z</time></trkpt><trkpt lat="42.45283287499842" lon="-8.091848026021282"><ele>499.0</ele><time>2026-04-16T14:21:23.999Z</time></trkpt><trkpt lat="42.452998996851846" lon="-8.091725175593165"><ele>499.0</ele><time>2026-04-16T14:21:24.999Z</time></trkpt><trkpt lat="42.453105117762206" lon="-8.09167861954111"><ele>499.5</ele><time>2026-04-16T14:21:25.999Z</time></trkpt><trkpt lat="42.45321807772844" lon="-8.091639629315571"><ele>500.0</ele><time>2026-04-16T14:21:26.999Z</time></trkpt><trkpt lat="42.453329227409384" lon="-8.091613477474873"><ele>500.5</ele><time>2026-04-16T14:21:27.999Z</time></trkpt><trkpt lat="42.45344860443187" lon="-8.091594370864945"><ele>501.0</ele><time>2026-04-16T14:21:28.999Z</time></trkpt><trkpt lat="42.4535682558155" lon="-8.091592440629096"><ele>501.0</ele><time>2026-04-16T14:21:29.999Z</time></trkpt><trkpt lat="42.45368302717368" lon="-8.091599346022669"><ele>501.0</ele><time>2026-04-16T14:21:30.999Z</time></trkpt><trkpt lat="42.453791258186136" lon="-8.091606533081814"><ele>501.0</ele><time>2026-04-16T14:21:31.999Z</time></trkpt><trkpt lat="42.45389717141272" lon="-8.091622314277743"><ele>501.0</ele><time>2026-04-16T14:21:32.999Z</time></trkpt><trkpt lat="42.45399780863102" lon="-8.091640770979891"><ele>501.0</ele><time>2026-04-16T14:21:33.999Z</time></trkpt><trkpt lat="42.45409469119217" lon="-8.09165463736252"><ele>502.3333333333333</ele><time>2026-04-16T14:21:34.999Z</time></trkpt><trkpt lat="42.454193902256854" lon="-8.09166943214418"><ele>503.66666666666663</ele><time>2026-04-16T14:21:35.999Z</time></trkpt><trkpt lat="42.45427731038304" lon="-8.091684195612656"><ele>505.0</ele><time>2026-04-16T14:21:36.999Z</time></trkpt><trkpt lat="42.4543589089001" lon="-8.091697668861995"><ele>506.3333333333333</ele><time>2026-04-16T14:21:37.999Z</time></trkpt><trkpt lat="42.45443937960516" lon="-8.09171561290238"><ele>507.66666666666663</ele><time>2026-04-16T14:21:38.999Z</time></trkpt><trkpt lat="42.45450884919312" lon="-8.091735796516614"><ele>509.0</ele><time>2026-04-16T14:21:39.999Z</time></trkpt><trkpt lat="42.45457473060626" lon="-8.091773817709658"><ele>511.0</ele><time>2026-04-16T14:21:40.999Z</time></trkpt><trkpt lat="42.45464466384163" lon="-8.091859080746623"><ele>513.0</ele><time>2026-04-16T14:21:41.999Z</time></trkpt><trkpt lat="42.454706629739036" lon="-8.091971343855722"><ele>515.0</ele><time>2026-04-16T14:21:42.999Z</time></trkpt><trkpt lat="42.4547575756781" lon="-8.092098766511613"><ele>517.0</ele><time>2026-04-16T14:21:43.999Z</time></trkpt><trkpt lat="42.45482075464447" lon="-8.092225105788408"><ele>519.0</ele><time>2026-04-16T14:21:44.999Z</time></trkpt><trkpt lat="42.454900612240806" lon="-8.092325790337506"><ele>519.0</ele><time>2026-04-16T14:21:45.999Z</time></trkpt><trkpt lat="42.45498425032334" lon="-8.092422058519144"><ele>519.0</ele><time>2026-04-16T14:21:46.999Z</time></trkpt><trkpt lat="42.455061759042046" lon="-8.09253404592893"><ele>519.0</ele><time>2026-04-16T14:21:47.999Z</time></trkpt><trkpt lat="42.45513876849687" lon="-8.092641570485675"><ele>519.0</ele><time>2026-04-16T14:21:48.999Z</time></trkpt><trkpt lat="42.455215547790466" lon="-8.092758353124479"><ele>519.0</ele><time>2026-04-16T14:21:49.999Z</time></trkpt><trkpt lat="42.45529826462248" lon="-8.092876047985508"><ele>518.8</ele><time>2026-04-16T14:21:50.999Z</time></trkpt><trkpt lat="42.45536822385094" lon="-8.092998932243747"><ele>518.5999999999999</ele><time>2026-04-16T14:21:51.999Z</time></trkpt><trkpt lat="42.45543222655462" lon="-8.09310261156921"><ele>518.4</ele><time>2026-04-16T14:21:52.999Z</time></trkpt><trkpt lat="42.45548576397929" lon="-8.0932003862846"><ele>518.1999999999999</ele><time>2026-04-16T14:21:53.999Z</time></trkpt><trkpt lat="42.45554384394849" lon="-8.09326131200532"><ele>518.0</ele><time>2026-04-16T14:21:54.999Z</time></trkpt><trkpt lat="42.4556292820134" lon="-8.09328233774897"><ele>520.4</ele><time>2026-04-16T14:21:57.999Z</time></trkpt><trkpt lat="42.455700326594936" lon="-8.093283681918983"><ele>522.8</ele><time>2026-04-16T14:21:58.999Z</time></trkpt><trkpt lat="42.455789748980585" lon="-8.093274115177051"><ele>525.2</ele><time>2026-04-16T14:21:59.999Z</time></trkpt><trkpt lat="42.45588897968156" lon="-8.093257000509759"><ele>527.6</ele><time>2026-04-16T14:22:00.999Z</time></trkpt><trkpt lat="42.45600652044586" lon="-8.093256118954363"><ele>530.0</ele><time>2026-04-16T14:22:01.999Z</time></trkpt><trkpt lat="42.45610860453104" lon="-8.09330017955182"><ele>530.0</ele><time>2026-04-16T14:22:02.999Z</time></trkpt><trkpt lat="42.4562324193453" lon="-8.093373588695197"><ele>530.0</ele><time>2026-04-16T14:22:03.999Z</time></trkpt><trkpt lat="42.4563384176062" lon="-8.093473055881898"><ele>530.0</ele><time>2026-04-16T14:22:04.999Z</time></trkpt><trkpt lat="42.45643745924472" lon="-8.093571837870602"><ele>530.0</ele><time>2026-04-16T14:22:05.999Z</time></trkpt><trkpt lat="42.456531990713955" lon="-8.093650219426609"><ele>531.6666666666666</ele><time>2026-04-16T14:22:06.999Z</time></trkpt><trkpt lat="42.45662587475276" lon="-8.093727736438437"><ele>533.3333333333333</ele><time>2026-04-16T14:22:07.999Z</time></trkpt><trkpt lat="42.45670128396487" lon="-8.093790001565575"><ele>535.0</ele><time>2026-04-16T14:22:08.999Z</time></trkpt><trkpt lat="42.456778711286084" lon="-8.093840451136506"><ele>536.6666666666666</ele><time>2026-04-16T14:22:09.999Z</time></trkpt><trkpt lat="42.45685960472727" lon="-8.093878683492417"><ele>538.3333333333334</ele><time>2026-04-16T14:22:10.999Z</time></trkpt><trkpt lat="42.45693656259732" lon="-8.093886980856533"><ele>540.0</ele><time>2026-04-16T14:22:11.999Z</time></trkpt><trkpt lat="42.457026567248846" lon="-8.093871939451079"><ele>540.0</ele><time>2026-04-16T14:22:12.999Z</time></trkpt><trkpt lat="42.45710813379867" lon="-8.093818473370176"><ele>540.0</ele><time>2026-04-16T14:22:13.999Z</time></trkpt><trkpt lat="42.45719827662287" lon="-8.093732759715438"><ele>540.0</ele><time>2026-04-16T14:22:14.999Z</time></trkpt><trkpt lat="42.457285384785266" lon="-8.093650552542233"><ele>540.0</ele><time>2026-04-16T14:22:15.999Z</time></trkpt><trkpt lat="42.457370321722046" lon="-8.093561120000958"><ele>540.0</ele><time>2026-04-16T14:22:16.999Z</time></trkpt><trkpt lat="42.457484402685594" lon="-8.09347050415258"><ele>539.8</ele><time>2026-04-16T14:22:17.999Z</time></trkpt><trkpt lat="42.45758496665832" lon="-8.093380366318065"><ele>539.6</ele><time>2026-04-16T14:22:18.999Z</time></trkpt><trkpt lat="42.45767684338712" lon="-8.0933067703537"><ele>539.4</ele><time>2026-04-16T14:22:19.999Z</time></trkpt><trkpt lat="42.4577664150435" lon="-8.093247159862738"><ele>539.2</ele><time>2026-04-16T14:22:20.999Z</time></trkpt><trkpt lat="42.45785288363498" lon="-8.093209722769197"><ele>539.0</ele><time>2026-04-16T14:22:21.999Z</time></trkpt><trkpt lat="42.45794338770821" lon="-8.09318519549893"><ele>541.0</ele><time>2026-04-16T14:22:22.999Z</time></trkpt><trkpt lat="42.458028177414825" lon="-8.093169825863214"><ele>543.0</ele><time>2026-04-16T14:22:23.999Z</time></trkpt><trkpt lat="42.45812734170807" lon="-8.093174915293758"><ele>545.0</ele><time>2026-04-16T14:22:24.999Z</time></trkpt><trkpt lat="42.45822463605028" lon="-8.09317144785162"><ele>547.0</ele><time>2026-04-16T14:22:25.999Z</time></trkpt><trkpt lat="42.458321680364186" lon="-8.093157347893573"><ele>549.0</ele><time>2026-04-16T14:22:26.999Z</time></trkpt><trkpt lat="42.45841010964378" lon="-8.093146813957553"><ele>549.0</ele><time>2026-04-16T14:22:27.999Z</time></trkpt><trkpt lat="42.458496026490934" lon="-8.093152637519626"><ele>549.0</ele><time>2026-04-16T14:22:29Z</time></trkpt><trkpt lat="42.458571461746004" lon="-8.093158505326556"><ele>549.0</ele><time>2026-04-16T14:22:30Z</time></trkpt><trkpt lat="42.45869701757387" lon="-8.093196091370816"><ele>549.0</ele><time>2026-04-16T14:22:32Z</time></trkpt><trkpt lat="42.4587872405581" lon="-8.09319822875368"><ele>549.0</ele><time>2026-04-16T14:22:33Z</time></trkpt><trkpt lat="42.45889836071258" lon="-8.093216108914861"><ele>550.25</ele><time>2026-04-16T14:22:34Z</time></trkpt><trkpt lat="42.459028608734286" lon="-8.093223593103488"><ele>551.5</ele><time>2026-04-16T14:22:35Z</time></trkpt><trkpt lat="42.45915675499831" lon="-8.093193183993506"><ele>552.75</ele><time>2026-04-16T14:22:36Z</time></trkpt><trkpt lat="42.459300694594276" lon="-8.093206043462017"><ele>554.0</ele><time>2026-04-16T14:22:37Z</time></trkpt><trkpt lat="42.45943442640803" lon="-8.093070729802683"><ele>554.0</ele><time>2026-04-16T14:22:38Z</time></trkpt><trkpt lat="42.45956828970582" lon="-8.092992680738872"><ele>554.0</ele><time>2026-04-16T14:22:39Z</time></trkpt><trkpt lat="42.45970778691969" lon="-8.092937952057287"><ele>554.0</ele><time>2026-04-16T14:22:40Z</time></trkpt><trkpt lat="42.45985972829848" lon="-8.092903506985714"><ele>554.0</ele><time>2026-04-16T14:22:41Z</time></trkpt><trkpt lat="42.46001318804636" lon="-8.092883379497327"><ele>554.3333333333333</ele><time>2026-04-16T14:22:42Z</time></trkpt><trkpt lat="42.46016953457826" lon="-8.092883756351743"><ele>554.6666666666666</ele><time>2026-04-16T14:22:43Z</time></trkpt><trkpt lat="42.460328953450045" lon="-8.09289940581522"><ele>555.0</ele><time>2026-04-16T14:22:44Z</time></trkpt><trkpt lat="42.46048550122243" lon="-8.09291994067558"><ele>555.0</ele><time>2026-04-16T14:22:45Z</time></trkpt><trkpt lat="42.460640582867974" lon="-8.092949583830558"><ele>555.0</ele><time>2026-04-16T14:22:46Z</time></trkpt><trkpt lat="42.46079887350468" lon="-8.093008771891098"><ele>555.0</ele><time>2026-04-16T14:22:47Z</time></trkpt><trkpt lat="42.46095354600272" lon="-8.09308473008469"><ele>555.0</ele><time>2026-04-16T14:22:48Z</time></trkpt><trkpt lat="42.461100431659" lon="-8.093173867437903"><ele>555.0</ele><time>2026-04-16T14:22:49Z</time></trkpt><trkpt lat="42.46124516718357" lon="-8.093283278205837"><ele>555.0</ele><time>2026-04-16T14:22:50Z</time></trkpt><trkpt lat="42.46138032236265" lon="-8.093405398183576"><ele>555.6666666666666</ele><time>2026-04-16T14:22:51Z</time></trkpt><trkpt lat="42.461510494004415" lon="-8.093538111987526"><ele>556.3333333333333</ele><time>2026-04-16T14:22:52Z</time></trkpt><trkpt lat="42.4616350751037" lon="-8.0936798392137"><ele>557.0</ele><time>2026-04-16T14:22:53Z</time></trkpt><trkpt lat="42.461748942304524" lon="-8.093839970487547"><ele>557.0</ele><time>2026-04-16T14:22:54Z</time></trkpt><trkpt lat="42.461845370016675" lon="-8.094015882163383"><ele>557.0</ele><time>2026-04-16T14:22:55Z</time></trkpt><trkpt lat="42.461941529101765" lon="-8.094190675284073"><ele>557.0</ele><time>2026-04-16T14:22:56Z</time></trkpt><trkpt lat="42.46201686588515" lon="-8.09435515298183"><ele>557.0</ele><time>2026-04-16T14:22:57Z</time></trkpt><trkpt lat="42.4620810574229" lon="-8.094516656548029"><ele>557.0</ele><time>2026-04-16T14:22:58Z</time></trkpt><trkpt lat="42.46214214377177" lon="-8.094669565824551"><ele>557.0</ele><time>2026-04-16T14:22:59Z</time></trkpt><trkpt lat="42.462204201486635" lon="-8.09482372863768"><ele>557.0</ele><time>2026-04-16T14:23:00Z</time></trkpt><trkpt lat="42.46225967242591" lon="-8.094979770784635"><ele>560.0</ele><time>2026-04-16T14:23:01Z</time></trkpt><trkpt lat="42.46232040818587" lon="-8.0951448723854"><ele>563.0</ele><time>2026-04-16T14:23:02Z</time></trkpt><trkpt lat="42.462380517688025" lon="-8.09531139972993"><ele>566.0</ele><time>2026-04-16T14:23:03Z</time></trkpt><trkpt lat="42.46244706178151" lon="-8.09548281781696"><ele>569.0</ele><time>2026-04-16T14:23:04Z</time></trkpt><trkpt lat="42.462509465284626" lon="-8.095659378794927"><ele>569.0</ele><time>2026-04-16T14:23:05Z</time></trkpt><trkpt lat="42.462574439010716" lon="-8.09585188651676"><ele>569.0</ele><time>2026-04-16T14:23:06Z</time></trkpt><trkpt lat="42.46263912555602" lon="-8.096045328710606"><ele>569.0</ele><time>2026-04-16T14:23:07Z</time></trkpt><trkpt lat="42.46270480543843" lon="-8.096237352506801"><ele>569.0</ele><time>2026-04-16T14:23:08Z</time></trkpt><trkpt lat="42.46277302199058" lon="-8.09644023865227"><ele>569.0</ele><time>2026-04-16T14:23:09Z</time></trkpt><trkpt lat="42.462844105909596" lon="-8.096636799927916"><ele>569.0</ele><time>2026-04-16T14:23:10Z</time></trkpt><trkpt lat="42.46292512763272" lon="-8.096832245805865"><ele>570.6666666666666</ele><time>2026-04-16T14:23:11Z</time></trkpt><trkpt lat="42.46301681204341" lon="-8.097031758659856"><ele>572.3333333333334</ele><time>2026-04-16T14:23:12Z</time></trkpt><trkpt lat="42.46311583293092" lon="-8.097226461956083"><ele>574.0</ele><time>2026-04-16T14:23:13Z</time></trkpt><trkpt lat="42.46322156826892" lon="-8.09740072208913"><ele>571.0</ele><time>2026-04-16T14:23:14Z</time></trkpt><trkpt lat="42.46333732861286" lon="-8.097546650343327"><ele>568.0</ele><time>2026-04-16T14:23:15Z</time></trkpt><trkpt lat="42.463461949562586" lon="-8.097666463721843"><ele>565.0</ele><time>2026-04-16T14:23:16Z</time></trkpt><trkpt lat="42.46358990884004" lon="-8.097766454297023"><ele>565.0</ele><time>2026-04-16T14:23:17Z</time></trkpt><trkpt lat="42.463720284335174" lon="-8.097849538639263"><ele>565.0</ele><time>2026-04-16T14:23:18Z</time></trkpt><trkpt lat="42.46385834518727" lon="-8.09791610177128"><ele>565.0</ele><time>2026-04-16T14:23:19Z</time></trkpt><trkpt lat="42.464000335589816" lon="-8.097966150274363"><ele>565.0</ele><time>2026-04-16T14:23:20Z</time></trkpt><trkpt lat="42.46415166467763" lon="-8.097997109293166"><ele>566.0</ele><time>2026-04-16T14:23:21Z</time></trkpt><trkpt lat="42.464304638752495" lon="-8.098010747714756"><ele>567.0</ele><time>2026-04-16T14:23:22Z</time></trkpt><trkpt lat="42.46445708971719" lon="-8.098007016574105"><ele>568.0</ele><time>2026-04-16T14:23:23Z</time></trkpt><trkpt lat="42.46460453381328" lon="-8.09799168441849"><ele>566.3333333333334</ele><time>2026-04-16T14:23:24Z</time></trkpt><trkpt lat="42.46475528933251" lon="-8.097976183453227"><ele>564.6666666666666</ele><time>2026-04-16T14:23:25Z</time></trkpt><trkpt lat="42.46490331862933" lon="-8.097959173673454"><ele>563.0</ele><time>2026-04-16T14:23:26Z</time></trkpt><trkpt lat="42.46505880770582" lon="-8.097936590301757"><ele>563.0</ele><time>2026-04-16T14:23:27Z</time></trkpt><trkpt lat="42.46521108618964" lon="-8.09791542646811"><ele>563.0</ele><time>2026-04-16T14:23:28Z</time></trkpt><trkpt lat="42.46536030635207" lon="-8.09790480951861"><ele>563.0</ele><time>2026-04-16T14:23:29Z</time></trkpt><trkpt lat="42.46550642585143" lon="-8.097900006540003"><ele>563.0</ele><time>2026-04-16T14:23:30Z</time></trkpt><trkpt lat="42.46565115514873" lon="-8.09791478021165"><ele>560.75</ele><time>2026-04-16T14:23:31Z</time></trkpt><trkpt lat="42.46579744409656" lon="-8.097954963239728"><ele>558.5</ele><time>2026-04-16T14:23:32Z</time></trkpt><trkpt lat="42.465931033508774" lon="-8.098012571854955"><ele>556.25</ele><time>2026-04-16T14:23:33Z</time></trkpt><trkpt lat="42.46605930872791" lon="-8.098072087207905"><ele>554.0</ele><time>2026-04-16T14:23:34Z</time></trkpt><trkpt lat="42.46618265885452" lon="-8.098141341533774"><ele>554.75</ele><time>2026-04-16T14:23:35Z</time></trkpt><trkpt lat="42.466304458675914" lon="-8.09822442053995"><ele>555.5</ele><time>2026-04-16T14:23:36Z</time></trkpt><trkpt lat="42.46642160082541" lon="-8.098324476666125"><ele>556.25</ele><time>2026-04-16T14:23:37Z</time></trkpt><trkpt lat="42.46653879095655" lon="-8.098435421642622"><ele>557.0</ele><time>2026-04-16T14:23:38Z</time></trkpt><trkpt lat="42.46665548352688" lon="-8.09854946572639"><ele>556.0</ele><time>2026-04-16T14:23:39Z</time></trkpt><trkpt lat="42.46677557354499" lon="-8.098666237800629"><ele>555.0</ele><time>2026-04-16T14:23:40Z</time></trkpt><trkpt lat="42.466888280917175" lon="-8.098783046201223"><ele>554.0</ele><time>2026-04-16T14:23:41Z</time></trkpt><trkpt lat="42.46700163432084" lon="-8.098896855063765"><ele>553.0</ele><time>2026-04-16T14:23:42Z</time></trkpt><trkpt lat="42.4671131257788" lon="-8.099004414619769"><ele>549.25</ele><time>2026-04-16T14:23:43Z</time></trkpt><trkpt lat="42.46723292584179" lon="-8.099101776566613"><ele>545.5</ele><time>2026-04-16T14:23:44Z</time></trkpt><trkpt lat="42.46735034140062" lon="-8.099193820285446"><ele>541.75</ele><time>2026-04-16T14:23:45Z</time></trkpt><trkpt lat="42.46747097194673" lon="-8.099274775520126"><ele>538.0</ele><time>2026-04-16T14:23:46Z</time></trkpt><trkpt lat="42.46759663427431" lon="-8.099353072314726"><ele>538.0</ele><time>2026-04-16T14:23:47Z</time></trkpt><trkpt lat="42.46773195314816" lon="-8.099418332507073"><ele>538.0</ele><time>2026-04-16T14:23:48Z</time></trkpt><trkpt lat="42.46787308555022" lon="-8.099473414045761"><ele>538.0</ele><time>2026-04-16T14:23:49Z</time></trkpt><trkpt lat="42.46802245899496" lon="-8.09951194279374"><ele>538.0</ele><time>2026-04-16T14:23:50Z</time></trkpt><trkpt lat="42.46817951648383" lon="-8.099540312666537"><ele>537.3333333333334</ele><time>2026-04-16T14:23:51Z</time></trkpt><trkpt lat="42.46834143201542" lon="-8.099556165937486"><ele>536.6666666666666</ele><time>2026-04-16T14:23:52Z</time></trkpt><trkpt lat="42.468500758741335" lon="-8.09956160603655"><ele>536.0</ele><time>2026-04-16T14:23:53Z</time></trkpt><trkpt lat="42.468665672801606" lon="-8.0995663298273"><ele>535.6666666666666</ele><time>2026-04-16T14:23:54Z</time></trkpt><trkpt lat="42.46882694789341" lon="-8.099572641239975"><ele>535.3333333333334</ele><time>2026-04-16T14:23:55Z</time></trkpt><trkpt lat="42.46898459984256" lon="-8.099585992291102"><ele>535.0</ele><time>2026-04-16T14:23:55.999Z</time></trkpt><trkpt lat="42.46913022567028" lon="-8.099600058232355"><ele>535.0</ele><time>2026-04-16T14:23:56.999Z</time></trkpt><trkpt lat="42.4692723583509" lon="-8.099616712629894"><ele>535.0</ele><time>2026-04-16T14:23:57.999Z</time></trkpt><trkpt lat="42.469395982999096" lon="-8.09963459976577"><ele>535.0</ele><time>2026-04-16T14:23:58.999Z</time></trkpt><trkpt lat="42.46950488845713" lon="-8.099658114289321"><ele>535.0</ele><time>2026-04-16T14:23:59.999Z</time></trkpt><trkpt lat="42.4695750047913" lon="-8.09967424036365"><ele>535.0</ele><time>2026-04-16T14:24:00.999Z</time></trkpt><trkpt lat="42.46964400101037" lon="-8.099662866568778"><ele>533.4</ele><time>2026-04-16T14:24:01.999Z</time></trkpt><trkpt lat="42.46978867023254" lon="-8.099546046242533"><ele>531.8</ele><time>2026-04-16T14:24:03.999Z</time></trkpt><trkpt lat="42.46987069700319" lon="-8.099498972210617"><ele>530.2</ele><time>2026-04-16T14:24:04.999Z</time></trkpt><trkpt lat="42.46994841767874" lon="-8.09943475610428"><ele>528.6</ele><time>2026-04-16T14:24:05.999Z</time></trkpt><trkpt lat="42.470012887225295" lon="-8.099369139311294"><ele>527.0</ele><time>2026-04-16T14:24:06.999Z</time></trkpt><trkpt lat="42.47005927254686" lon="-8.09930317811557"><ele>527.0</ele><time>2026-04-16T14:24:07.999Z</time></trkpt><trkpt lat="42.47009841254533" lon="-8.099231351763468"><ele>527.0</ele><time>2026-04-16T14:24:08.999Z</time></trkpt><trkpt lat="42.47014119422066" lon="-8.099154481579419"><ele>527.0</ele><time>2026-04-16T14:24:09.999Z</time></trkpt><trkpt lat="42.47018191292788" lon="-8.099068038142795"><ele>527.0</ele><time>2026-04-16T14:24:10.999Z</time></trkpt><trkpt lat="42.47022023498661" lon="-8.098968767417821"><ele>527.0</ele><time>2026-04-16T14:24:11.999Z</time></trkpt><trkpt lat="42.470248815297815" lon="-8.098855557083176"><ele>527.0</ele><time>2026-04-16T14:24:12.999Z</time></trkpt><trkpt lat="42.47025579719164" lon="-8.098732851881957"><ele>526.4</ele><time>2026-04-16T14:24:13.999Z</time></trkpt><trkpt lat="42.4702729134386" lon="-8.098611109622658"><ele>525.8000000000001</ele><time>2026-04-16T14:24:14.999Z</time></trkpt><trkpt lat="42.470326757047204" lon="-8.098491860668203"><ele>525.2</ele><time>2026-04-16T14:24:15.999Z</time></trkpt><trkpt lat="42.470398526748816" lon="-8.098392397252658"><ele>524.6</ele><time>2026-04-16T14:24:16.999Z</time></trkpt><trkpt lat="42.47049805552146" lon="-8.098301346655935"><ele>524.0</ele><time>2026-04-16T14:24:18Z</time></trkpt><trkpt lat="42.47057681567533" lon="-8.098235455032942"><ele>528.3333333333333</ele><time>2026-04-16T14:24:19Z</time></trkpt><trkpt lat="42.470707890231694" lon="-8.098136982313479"><ele>532.6666666666666</ele><time>2026-04-16T14:24:20Z</time></trkpt><trkpt lat="42.470833141846796" lon="-8.09801690953414"><ele>537.0</ele><time>2026-04-16T14:24:21Z</time></trkpt><trkpt lat="42.47095334331071" lon="-8.097890754111052"><ele>537.0</ele><time>2026-04-16T14:24:22Z</time></trkpt><trkpt lat="42.47107188591059" lon="-8.097778464756406"><ele>537.0</ele><time>2026-04-16T14:24:23Z</time></trkpt><trkpt lat="42.47119803907104" lon="-8.097651361104605"><ele>537.0</ele><time>2026-04-16T14:24:24Z</time></trkpt><trkpt lat="42.471313005601345" lon="-8.097522910591154"><ele>537.75</ele><time>2026-04-16T14:24:25Z</time></trkpt><trkpt lat="42.47141695997761" lon="-8.097408743384337"><ele>538.5</ele><time>2026-04-16T14:24:26Z</time></trkpt><trkpt lat="42.47151411625599" lon="-8.097276004866048"><ele>539.25</ele><time>2026-04-16T14:24:27Z</time></trkpt><trkpt lat="42.47160339058538" lon="-8.097152086824659"><ele>540.0</ele><time>2026-04-16T14:24:28Z</time></trkpt><trkpt lat="42.471674511755026" lon="-8.097020916249695"><ele>540.0</ele><time>2026-04-16T14:24:29Z</time></trkpt><trkpt lat="42.471740322927225" lon="-8.096879562680483"><ele>540.0</ele><time>2026-04-16T14:24:30Z</time></trkpt><trkpt lat="42.471780973607416" lon="-8.096720360015665"><ele>540.0</ele><time>2026-04-16T14:24:31Z</time></trkpt><trkpt lat="42.47182655493257" lon="-8.096576259541246"><ele>540.0</ele><time>2026-04-16T14:24:32Z</time></trkpt><trkpt lat="42.47187500744825" lon="-8.096422913503549"><ele>542.75</ele><time>2026-04-16T14:24:33Z</time></trkpt><trkpt lat="42.47193947519044" lon="-8.096267670144726"><ele>545.5</ele><time>2026-04-16T14:24:34Z</time></trkpt><trkpt lat="42.47199331622304" lon="-8.096111632936578"><ele>548.25</ele><time>2026-04-16T14:24:35Z</time></trkpt><trkpt lat="42.47205270622229" lon="-8.0959703332412"><ele>551.0</ele><time>2026-04-16T14:24:36Z</time></trkpt><trkpt lat="42.47209569947225" lon="-8.09583312560716"><ele>549.8</ele><time>2026-04-16T14:24:37Z</time></trkpt><trkpt lat="42.47214116824342" lon="-8.095725223174286"><ele>548.6</ele><time>2026-04-16T14:24:38Z</time></trkpt><trkpt lat="42.47218464718966" lon="-8.095595479221295"><ele>547.4</ele><time>2026-04-16T14:24:39Z</time></trkpt><trkpt lat="42.47222515907519" lon="-8.095455553037848"><ele>546.2</ele><time>2026-04-16T14:24:40Z</time></trkpt><trkpt lat="42.472246434016625" lon="-8.095306815056846"><ele>545.0</ele><time>2026-04-16T14:24:41Z</time></trkpt><trkpt lat="42.472255937092555" lon="-8.095156686397404"><ele>545.0</ele><time>2026-04-16T14:24:42Z</time></trkpt><trkpt lat="42.472257199879685" lon="-8.09498054866352"><ele>545.0</ele><time>2026-04-16T14:24:43Z</time></trkpt><trkpt lat="42.47224459784407" lon="-8.094804795127445"><ele>545.0</ele><time>2026-04-16T14:24:44Z</time></trkpt><trkpt lat="42.4722459966042" lon="-8.094625747799975"><ele>545.0</ele><time>2026-04-16T14:24:45Z</time></trkpt><trkpt lat="42.47222695560359" lon="-8.09443626998465"><ele>546.0</ele><time>2026-04-16T14:24:46Z</time></trkpt><trkpt lat="42.47221726838403" lon="-8.0942611027448"><ele>547.0</ele><time>2026-04-16T14:24:47Z</time></trkpt><trkpt lat="42.47220315781815" lon="-8.094063979557419"><ele>548.0</ele><time>2026-04-16T14:24:48Z</time></trkpt><trkpt lat="42.47220459446274" lon="-8.093911176674368"><ele>549.0</ele><time>2026-04-16T14:24:49Z</time></trkpt><trkpt lat="42.472167662700095" lon="-8.093771708869832"><ele>549.4</ele><time>2026-04-16T14:24:50Z</time></trkpt><trkpt lat="42.47213825209032" lon="-8.093642178210938"><ele>549.8</ele><time>2026-04-16T14:24:51Z</time></trkpt><trkpt lat="42.47210401168907" lon="-8.093516908061329"><ele>550.2</ele><time>2026-04-16T14:24:52Z</time></trkpt><trkpt lat="42.47207690641598" lon="-8.09340098291089"><ele>550.6</ele><time>2026-04-16T14:24:53Z</time></trkpt><trkpt lat="42.47205191549672" lon="-8.093290451079492"><ele>551.0</ele><time>2026-04-16T14:24:54Z</time></trkpt><trkpt lat="42.47202984942782" lon="-8.093183392321999"><ele>551.1666666666666</ele><time>2026-04-16T14:24:55Z</time></trkpt><trkpt lat="42.47201579539321" lon="-8.0930867911074"><ele>551.3333333333333</ele><time>2026-04-16T14:24:56Z</time></trkpt><trkpt lat="42.472008071406094" lon="-8.092999283437587"><ele>551.5</ele><time>2026-04-16T14:24:57Z</time></trkpt><trkpt lat="42.472012623661364" lon="-8.092841459139557"><ele>551.6666666666666</ele><time>2026-04-16T14:24:59Z</time></trkpt><trkpt lat="42.47204281503143" lon="-8.092716775476159"><ele>551.8333333333334</ele><time>2026-04-16T14:25:00Z</time></trkpt><trkpt lat="42.472070234702315" lon="-8.092598667055974"><ele>552.0</ele><time>2026-04-16T14:25:01Z</time></trkpt><trkpt lat="42.47210812471322" lon="-8.092481801700714"><ele>554.0</ele><time>2026-04-16T14:25:02Z</time></trkpt><trkpt lat="42.472169804604114" lon="-8.092321003647085"><ele>556.0</ele><time>2026-04-16T14:25:03Z</time></trkpt><trkpt lat="42.47220646005926" lon="-8.092155558951655"><ele>558.0</ele><time>2026-04-16T14:25:04Z</time></trkpt><trkpt lat="42.472246841623814" lon="-8.09198395441017"><ele>560.0</ele><time>2026-04-16T14:25:05Z</time></trkpt><trkpt lat="42.472282453406905" lon="-8.091840967557646"><ele>560.0</ele><time>2026-04-16T14:25:06Z</time></trkpt><trkpt lat="42.47231714971936" lon="-8.091713116366742"><ele>560.0</ele><time>2026-04-16T14:25:07Z</time></trkpt><trkpt lat="42.47230857323354" lon="-8.091611865905975"><ele>560.0</ele><time>2026-04-16T14:25:08Z</time></trkpt><trkpt lat="42.47226978422162" lon="-8.091490980774177"><ele>560.0</ele><time>2026-04-16T14:25:10Z</time></trkpt><trkpt lat="42.47221234440393" lon="-8.091428940502135"><ele>560.0</ele><time>2026-04-16T14:25:11Z</time></trkpt><trkpt lat="42.47216506528301" lon="-8.09133709740912"><ele>560.0</ele><time>2026-04-16T14:25:12Z</time></trkpt><trkpt lat="42.47211127391009" lon="-8.091226508300322"><ele>560.8333333333333</ele><time>2026-04-16T14:25:13Z</time></trkpt><trkpt lat="42.472059700734384" lon="-8.091114758518614"><ele>561.6666666666666</ele><time>2026-04-16T14:25:14Z</time></trkpt><trkpt lat="42.47202893021821" lon="-8.091033048297783"><ele>562.5</ele><time>2026-04-16T14:25:15Z</time></trkpt><trkpt lat="42.47200210296773" lon="-8.090937192844946"><ele>563.3333333333334</ele><time>2026-04-16T14:25:16Z</time></trkpt><trkpt lat="42.47200190402461" lon="-8.090843597941536"><ele>564.1666666666667</ele><time>2026-04-16T14:25:17Z</time></trkpt><trkpt lat="42.47204122978898" lon="-8.090739998340135"><ele>565.0</ele><time>2026-04-16T14:25:18Z</time></trkpt><trkpt lat="42.472085113985436" lon="-8.090665739732039"><ele>566.0</ele><time>2026-04-16T14:25:19Z</time></trkpt><trkpt lat="42.472140553757704" lon="-8.090587357203978"><ele>567.0</ele><time>2026-04-16T14:25:20Z</time></trkpt><trkpt lat="42.472191001869845" lon="-8.090506353063686"><ele>568.0</ele><time>2026-04-16T14:25:21Z</time></trkpt><trkpt lat="42.47222174250492" lon="-8.090423467181436"><ele>569.0</ele><time>2026-04-16T14:25:22Z</time></trkpt><trkpt lat="42.47226269269982" lon="-8.090296221776514"><ele>570.0</ele><time>2026-04-16T14:25:24Z</time></trkpt><trkpt lat="42.47224892126033" lon="-8.090180499095503"><ele>571.0</ele><time>2026-04-16T14:25:26Z</time></trkpt><trkpt lat="42.472226300507586" lon="-8.090001420670223"><ele>572.3333333333334</ele><time>2026-04-16T14:25:28Z</time></trkpt><trkpt lat="42.47220886082049" lon="-8.089856498905359"><ele>573.6666666666667</ele><time>2026-04-16T14:25:30Z</time></trkpt><trkpt lat="42.472208847214304" lon="-8.089750558205333"><ele>575.0</ele><time>2026-04-16T14:25:32Z</time></trkpt><trkpt lat="42.47225378906959" lon="-8.089652557579159"><ele>576.3333333333334</ele><time>2026-04-16T14:25:34Z</time></trkpt><trkpt lat="42.472312225853926" lon="-8.089566566615458"><ele>577.6666666666666</ele><time>2026-04-16T14:25:36Z</time></trkpt><trkpt lat="42.472378947314034" lon="-8.089531663059708"><ele>579.0</ele><time>2026-04-16T14:25:40Z</time></trkpt><trkpt lat="42.47246410019473" lon="-8.089500480500798"><ele>579.0</ele><time>2026-04-16T14:25:42Z</time></trkpt><trkpt lat="42.47253774412126" lon="-8.089464367497031"><ele>579.0</ele><time>2026-04-16T14:25:44Z</time></trkpt><trkpt lat="42.472619124904305" lon="-8.089466388384597"><ele>579.0</ele><time>2026-04-16T14:25:46Z</time></trkpt><trkpt lat="42.47269486121026" lon="-8.089479925710434"><ele>579.0</ele><time>2026-04-16T14:25:48Z</time></trkpt><trkpt lat="42.472770339183164" lon="-8.08949927223424"><ele>579.0</ele><time>2026-04-16T14:25:50Z</time></trkpt><trkpt lat="42.47284093179028" lon="-8.08951259321834"><ele>579.0</ele><time>2026-04-16T14:25:52Z</time></trkpt><trkpt lat="42.472929617631074" lon="-8.089498316757249"><ele>577.8333333333334</ele><time>2026-04-16T14:25:54Z</time></trkpt><trkpt lat="42.47301742883544" lon="-8.089462731222474"><ele>576.6666666666666</ele><time>2026-04-16T14:25:56Z</time></trkpt><trkpt lat="42.47308027776254" lon="-8.089404137001242"><ele>575.5</ele><time>2026-04-16T14:25:58Z</time></trkpt><trkpt lat="42.47313300836388" lon="-8.089337274457481"><ele>574.3333333333333</ele><time>2026-04-16T14:26:01Z</time></trkpt><trkpt lat="42.47317638647707" lon="-8.089234992570418"><ele>573.1666666666666</ele><time>2026-04-16T14:26:05Z</time></trkpt><trkpt lat="42.473199732637035" lon="-8.08915362387418"><ele>572.0</ele><time>2026-04-16T14:26:07Z</time></trkpt><trkpt lat="42.473225152781765" lon="-8.089069077465636"><ele>572.0</ele><time>2026-04-16T14:26:10Z</time></trkpt><trkpt lat="42.473218454296145" lon="-8.088981972488318"><ele>572.0</ele><time>2026-04-16T14:26:18Z</time></trkpt><trkpt lat="42.473082599483796" lon="-8.08892897271739"><ele>572.0</ele><time>2026-04-16T14:26:20Z</time></trkpt><trkpt lat="42.473149298517434" lon="-8.088972721734418"><ele>572.0</ele><time>2026-04-16T14:26:31Z</time></trkpt><trkpt lat="42.473208248671085" lon="-8.089030199975747"><ele>572.0</ele><time>2026-04-16T14:26:33Z</time></trkpt><trkpt lat="42.47324538733768" lon="-8.089101768978978"><ele>572.0</ele><time>2026-04-16T14:26:40Z</time></trkpt><trkpt lat="42.4731807191453" lon="-8.08922165993225"><ele>571.6666666666666</ele><time>2026-04-16T14:26:45Z</time></trkpt><trkpt lat="42.473173294615016" lon="-8.089311282655778"><ele>571.3333333333333</ele><time>2026-04-16T14:26:46Z</time></trkpt><trkpt lat="42.473108515754305" lon="-8.089420005044635"><ele>571.0</ele><time>2026-04-16T14:26:48Z</time></trkpt><trkpt lat="42.4730556677904" lon="-8.089475922402551"><ele>570.6666666666666</ele><time>2026-04-16T14:26:49Z</time></trkpt><trkpt lat="42.47297444383724" lon="-8.089518122985675"><ele>570.3333333333334</ele><time>2026-04-16T14:26:50Z</time></trkpt><trkpt lat="42.47288684788586" lon="-8.089542874896983"><ele>570.0</ele><time>2026-04-16T14:26:51Z</time></trkpt><trkpt lat="42.47280743771349" lon="-8.08955345229354"><ele>571.5</ele><time>2026-04-16T14:26:52Z</time></trkpt><trkpt lat="42.47271783733136" lon="-8.089525426336083"><ele>573.0</ele><time>2026-04-16T14:26:53Z</time></trkpt><trkpt lat="42.47263063074889" lon="-8.089512161124476"><ele>574.5</ele><time>2026-04-16T14:26:54Z</time></trkpt><trkpt lat="42.47254931698922" lon="-8.089507694584931"><ele>576.0</ele><time>2026-04-16T14:26:55Z</time></trkpt><trkpt lat="42.47247599988629" lon="-8.089521564032866"><ele>577.5</ele><time>2026-04-16T14:26:56Z</time></trkpt><trkpt lat="42.47237736432585" lon="-8.089568809059873"><ele>579.0</ele><time>2026-04-16T14:26:58Z</time></trkpt><trkpt lat="42.47230603083536" lon="-8.089624561370119"><ele>579.0</ele><time>2026-04-16T14:27:00Z</time></trkpt><trkpt lat="42.472261759706115" lon="-8.089705580906916"><ele>579.0</ele><time>2026-04-16T14:27:02Z</time></trkpt><trkpt lat="42.47222522605993" lon="-8.089845818655665"><ele>579.0</ele><time>2026-04-16T14:27:04Z</time></trkpt><trkpt lat="42.472236817850764" lon="-8.089933204674743"><ele>579.0</ele><time>2026-04-16T14:27:05Z</time></trkpt><trkpt lat="42.472255420742535" lon="-8.090035955751334"><ele>579.0</ele><time>2026-04-16T14:27:06Z</time></trkpt><trkpt lat="42.472276391625684" lon="-8.090127413837212"><ele>579.0</ele><time>2026-04-16T14:27:07Z</time></trkpt><trkpt lat="42.47229066770953" lon="-8.090215502779998"><ele>577.6</ele><time>2026-04-16T14:27:08Z</time></trkpt><trkpt lat="42.47227272600551" lon="-8.090378311727983"><ele>576.2</ele><time>2026-04-16T14:27:10Z</time></trkpt><trkpt lat="42.472208245062994" lon="-8.090532078274991"><ele>574.8000000000001</ele><time>2026-04-16T14:27:12Z</time></trkpt><trkpt lat="42.4721732689112" lon="-8.090605145275687"><ele>573.4</ele><time>2026-04-16T14:27:13Z</time></trkpt><trkpt lat="42.472104667316" lon="-8.090729829961294"><ele>572.0</ele><time>2026-04-16T14:27:15Z</time></trkpt><trkpt lat="42.47205054550468" lon="-8.090814035837258"><ele>570.8333333333333</ele><time>2026-04-16T14:27:16Z</time></trkpt><trkpt lat="42.472041605486126" lon="-8.09090922098772"><ele>569.6666666666666</ele><time>2026-04-16T14:27:19Z</time></trkpt><trkpt lat="42.47206732028163" lon="-8.091008034501394"><ele>568.5</ele><time>2026-04-16T14:27:20Z</time></trkpt><trkpt lat="42.47208791376355" lon="-8.091099064555024"><ele>567.3333333333334</ele><time>2026-04-16T14:27:21Z</time></trkpt><trkpt lat="42.47215586593598" lon="-8.091235358609056"><ele>566.1666666666667</ele><time>2026-04-16T14:27:23Z</time></trkpt><trkpt lat="42.47219831576249" lon="-8.091316585984956"><ele>565.0</ele><time>2026-04-16T14:27:24Z</time></trkpt><trkpt lat="42.47227559631577" lon="-8.091446521791205"><ele>565.0</ele><time>2026-04-16T14:27:26Z</time></trkpt><trkpt lat="42.472329743017525" lon="-8.091571924748157"><ele>565.0</ele><time>2026-04-16T14:27:28Z</time></trkpt><trkpt lat="42.47233447520444" lon="-8.09173295305525"><ele>565.0</ele><time>2026-04-16T14:27:30Z</time></trkpt><trkpt lat="42.47232092590796" lon="-8.091828938198251"><ele>565.0</ele><time>2026-04-16T14:27:31Z</time></trkpt><trkpt lat="42.4722977991143" lon="-8.091954778711525"><ele>565.0</ele><time>2026-04-16T14:27:32Z</time></trkpt><trkpt lat="42.47226985243022" lon="-8.092071936312603"><ele>564.1666666666667</ele><time>2026-04-16T14:27:33Z</time></trkpt><trkpt lat="42.472238358342565" lon="-8.092185400716579"><ele>563.3333333333334</ele><time>2026-04-16T14:27:34Z</time></trkpt><trkpt lat="42.47219224136555" lon="-8.09229547977183"><ele>562.5</ele><time>2026-04-16T14:27:35Z</time></trkpt><trkpt lat="42.4721697417614" lon="-8.092400231293928"><ele>561.6666666666666</ele><time>2026-04-16T14:27:36Z</time></trkpt><trkpt lat="42.472134122985565" lon="-8.09251726528563"><ele>560.8333333333333</ele><time>2026-04-16T14:27:37Z</time></trkpt><trkpt lat="42.47210858118004" lon="-8.092617884320665"><ele>560.0</ele><time>2026-04-16T14:27:38Z</time></trkpt><trkpt lat="42.47208741183639" lon="-8.092745188655938"><ele>559.8</ele><time>2026-04-16T14:27:39Z</time></trkpt><trkpt lat="42.472066553868146" lon="-8.092835486351605"><ele>559.6</ele><time>2026-04-16T14:27:40Z</time></trkpt><trkpt lat="42.472057859476124" lon="-8.092991266447399"><ele>559.4</ele><time>2026-04-16T14:27:42Z</time></trkpt><trkpt lat="42.47208521531162" lon="-8.093111875504809"><ele>559.2</ele><time>2026-04-16T14:27:43Z</time></trkpt><trkpt lat="42.47209850338511" lon="-8.09326546788045"><ele>559.0</ele><time>2026-04-16T14:27:44Z</time></trkpt><trkpt lat="42.47214389305489" lon="-8.093398048058415"><ele>557.6666666666667</ele><time>2026-04-16T14:27:45Z</time></trkpt><trkpt lat="42.47214323296924" lon="-8.093505952994109"><ele>556.3333333333334</ele><time>2026-04-16T14:27:46Z</time></trkpt><trkpt lat="42.472172600550735" lon="-8.093609965983786"><ele>555.0</ele><time>2026-04-16T14:27:47Z</time></trkpt><trkpt lat="42.47219235815217" lon="-8.093698484822946"><ele>553.6666666666666</ele><time>2026-04-16T14:27:48Z</time></trkpt><trkpt lat="42.47222799752935" lon="-8.093872846838718"><ele>552.3333333333333</ele><time>2026-04-16T14:27:50Z</time></trkpt><trkpt lat="42.472240608513296" lon="-8.093980178709591"><ele>551.0</ele><time>2026-04-16T14:27:51Z</time></trkpt><trkpt lat="42.47224493927371" lon="-8.094076737457787"><ele>550.6666666666666</ele><time>2026-04-16T14:27:52Z</time></trkpt><trkpt lat="42.472251093755354" lon="-8.094181102171937"><ele>550.3333333333333</ele><time>2026-04-16T14:27:53Z</time></trkpt><trkpt lat="42.47226299138572" lon="-8.094282682451801"><ele>550.0</ele><time>2026-04-16T14:27:54Z</time></trkpt><trkpt lat="42.47226861599383" lon="-8.094387483923834"><ele>549.6666666666666</ele><time>2026-04-16T14:27:55Z</time></trkpt><trkpt lat="42.4722746748727" lon="-8.094507458985328"><ele>549.3333333333334</ele><time>2026-04-16T14:27:56Z</time></trkpt><trkpt lat="42.4722752589536" lon="-8.094619257136037"><ele>549.0</ele><time>2026-04-16T14:27:57Z</time></trkpt><trkpt lat="42.47227367381807" lon="-8.094727023365293"><ele>549.0</ele><time>2026-04-16T14:27:58Z</time></trkpt><trkpt lat="42.47227021447183" lon="-8.094845037734608"><ele>549.0</ele><time>2026-04-16T14:27:59Z</time></trkpt><trkpt lat="42.47229452944996" lon="-8.09505098439796"><ele>549.0</ele><time>2026-04-16T14:28:01Z</time></trkpt><trkpt lat="42.47228774294858" lon="-8.095184096535679"><ele>549.0</ele><time>2026-04-16T14:28:02Z</time></trkpt><trkpt lat="42.47227380208719" lon="-8.095304272598824"><ele>549.0</ele><time>2026-04-16T14:28:03Z</time></trkpt><trkpt lat="42.47225162756793" lon="-8.095421881554689"><ele>549.3333333333334</ele><time>2026-04-16T14:28:04Z</time></trkpt><trkpt lat="42.47222515679736" lon="-8.095533930161974"><ele>549.6666666666666</ele><time>2026-04-16T14:28:05Z</time></trkpt><trkpt lat="42.47221527188455" lon="-8.095635984135642"><ele>550.0</ele><time>2026-04-16T14:28:06Z</time></trkpt><trkpt lat="42.47218832801137" lon="-8.095716148538523"><ele>550.3333333333333</ele><time>2026-04-16T14:28:07Z</time></trkpt><trkpt lat="42.47214586027212" lon="-8.095841611099331"><ele>550.6666666666666</ele><time>2026-04-16T14:28:08Z</time></trkpt><trkpt lat="42.472096566000666" lon="-8.09593540217755"><ele>551.0</ele><time>2026-04-16T14:28:09Z</time></trkpt><trkpt lat="42.47204318596935" lon="-8.096072393436133"><ele>551.0</ele><time>2026-04-16T14:28:10Z</time></trkpt><trkpt lat="42.472001462599415" lon="-8.096184002239333"><ele>551.0</ele><time>2026-04-16T14:28:11Z</time></trkpt><trkpt lat="42.47195474759987" lon="-8.096265657119538"><ele>551.0</ele><time>2026-04-16T14:28:12Z</time></trkpt><trkpt lat="42.47192999460636" lon="-8.096386299549328"><ele>551.0</ele><time>2026-04-16T14:28:13Z</time></trkpt><trkpt lat="42.47187630480286" lon="-8.096490843947501"><ele>551.0</ele><time>2026-04-16T14:28:14Z</time></trkpt><trkpt lat="42.471855872587" lon="-8.096604258278846"><ele>551.0</ele><time>2026-04-16T14:28:15Z</time></trkpt><trkpt lat="42.47181741513609" lon="-8.096719315328363"><ele>548.8</ele><time>2026-04-16T14:28:16Z</time></trkpt><trkpt lat="42.47178022841647" lon="-8.096837954631587"><ele>546.6</ele><time>2026-04-16T14:28:17Z</time></trkpt><trkpt lat="42.47172739827454" lon="-8.096945629126456"><ele>544.4</ele><time>2026-04-16T14:28:18Z</time></trkpt><trkpt lat="42.471664157359186" lon="-8.097064469901294"><ele>542.2</ele><time>2026-04-16T14:28:19Z</time></trkpt><trkpt lat="42.4716054229125" lon="-8.097168115953764"><ele>540.0</ele><time>2026-04-16T14:28:20Z</time></trkpt><trkpt lat="42.471548500218375" lon="-8.097276430291425"><ele>540.0</ele><time>2026-04-16T14:28:21Z</time></trkpt><trkpt lat="42.471478150411116" lon="-8.097373425834752"><ele>540.0</ele><time>2026-04-16T14:28:22Z</time></trkpt><trkpt lat="42.4714240775748" lon="-8.097462993370911"><ele>540.0</ele><time>2026-04-16T14:28:23Z</time></trkpt><trkpt lat="42.47133808994188" lon="-8.097523569917906"><ele>540.0</ele><time>2026-04-16T14:28:24Z</time></trkpt><trkpt lat="42.47126439128899" lon="-8.097612417126076"><ele>540.0</ele><time>2026-04-16T14:28:25Z</time></trkpt><trkpt lat="42.471206363892804" lon="-8.097701828059455"><ele>539.5</ele><time>2026-04-16T14:28:26Z</time></trkpt><trkpt lat="42.47114552833328" lon="-8.097770508943734"><ele>539.0</ele><time>2026-04-16T14:28:27Z</time></trkpt><trkpt lat="42.471076645081205" lon="-8.097847864585752"><ele>538.5</ele><time>2026-04-16T14:28:28Z</time></trkpt><trkpt lat="42.47100406527478" lon="-8.097926765105893"><ele>538.0</ele><time>2026-04-16T14:28:29Z</time></trkpt><trkpt lat="42.47092491225674" lon="-8.097990256924414"><ele>537.5</ele><time>2026-04-16T14:28:30Z</time></trkpt><trkpt lat="42.470859379193016" lon="-8.098082781699993"><ele>537.0</ele><time>2026-04-16T14:28:31Z</time></trkpt><trkpt lat="42.47076740163312" lon="-8.098156499783386"><ele>537.0</ele><time>2026-04-16T14:28:32Z</time></trkpt><trkpt lat="42.47067153922938" lon="-8.098231858379684"><ele>537.0</ele><time>2026-04-16T14:28:33Z</time></trkpt><trkpt lat="42.470585986441456" lon="-8.098298813418822"><ele>537.0</ele><time>2026-04-16T14:28:34Z</time></trkpt><trkpt lat="42.47051301081034" lon="-8.098385235573101"><ele>537.0</ele><time>2026-04-16T14:28:35Z</time></trkpt><trkpt lat="42.47043392108543" lon="-8.098467845346104"><ele>537.0</ele><time>2026-04-16T14:28:36Z</time></trkpt><trkpt lat="42.470364056091825" lon="-8.098547931243957"><ele>537.4</ele><time>2026-04-16T14:28:37Z</time></trkpt><trkpt lat="42.470314764282826" lon="-8.098660349278433"><ele>537.8000000000001</ele><time>2026-04-16T14:28:38Z</time></trkpt><trkpt lat="42.47027484180501" lon="-8.098778486154632"><ele>538.2</ele><time>2026-04-16T14:28:39Z</time></trkpt><trkpt lat="42.47027038929257" lon="-8.098916951270992"><ele>538.6</ele><time>2026-04-16T14:28:40Z</time></trkpt><trkpt lat="42.47026060660714" lon="-8.099032793249327"><ele>539.0</ele><time>2026-04-16T14:28:41Z</time></trkpt><trkpt lat="42.47018630376431" lon="-8.099149198903104"><ele>537.0</ele><time>2026-04-16T14:28:42Z</time></trkpt><trkpt lat="42.470127356615734" lon="-8.09925408644002"><ele>535.0</ele><time>2026-04-16T14:28:43Z</time></trkpt><trkpt lat="42.47007139003427" lon="-8.099330530733504"><ele>533.0</ele><time>2026-04-16T14:28:44Z</time></trkpt><trkpt lat="42.47001705802051" lon="-8.099400604696624"><ele>531.0</ele><time>2026-04-16T14:28:45Z</time></trkpt><trkpt lat="42.46996065105737" lon="-8.099457430769421"><ele>529.0</ele><time>2026-04-16T14:28:46Z</time></trkpt><trkpt lat="42.46990671687868" lon="-8.09950870439352"><ele>527.0</ele><time>2026-04-16T14:28:47Z</time></trkpt><trkpt lat="42.4698520758962" lon="-8.099564428705829"><ele>527.0</ele><time>2026-04-16T14:28:48Z</time></trkpt><trkpt lat="42.46976709902154" lon="-8.099614733563417"><ele>527.0</ele><time>2026-04-16T14:28:50Z</time></trkpt><trkpt lat="42.46972162742595" lon="-8.099738658818955"><ele>527.0</ele><time>2026-04-16T14:30:25Z</time></trkpt><trkpt lat="42.46985603880593" lon="-8.099853752933361"><ele>527.0</ele><time>2026-04-16T14:30:27Z</time></trkpt><trkpt lat="42.46994489472394" lon="-8.099923270621886"><ele>524.6</ele><time>2026-04-16T14:30:28Z</time></trkpt><trkpt lat="42.470034215706086" lon="-8.09996760269523"><ele>522.2</ele><time>2026-04-16T14:30:29Z</time></trkpt><trkpt lat="42.47012542097132" lon="-8.099997340721703"><ele>519.8</ele><time>2026-04-16T14:30:30Z</time></trkpt><trkpt lat="42.47023356323183" lon="-8.100078040017726"><ele>517.4</ele><time>2026-04-16T14:30:31Z</time></trkpt><trkpt lat="42.47033399694325" lon="-8.100127922058663"><ele>515.0</ele><time>2026-04-16T14:30:32Z</time></trkpt><trkpt lat="42.470427090019456" lon="-8.10018034768816"><ele>515.6</ele><time>2026-04-16T14:30:33Z</time></trkpt><trkpt lat="42.47051411583303" lon="-8.100233981918223"><ele>516.2</ele><time>2026-04-16T14:30:34Z</time></trkpt><trkpt lat="42.47060171330959" lon="-8.10028665403731"><ele>516.8</ele><time>2026-04-16T14:30:35Z</time></trkpt><trkpt lat="42.47068142724925" lon="-8.100339840697872"><ele>517.4</ele><time>2026-04-16T14:30:36Z</time></trkpt><trkpt lat="42.47076601294344" lon="-8.100392374979908"><ele>518.0</ele><time>2026-04-16T14:30:37Z</time></trkpt><trkpt lat="42.470852172595116" lon="-8.100441179551066"><ele>518.0</ele><time>2026-04-16T14:30:38Z</time></trkpt><trkpt lat="42.470925416266695" lon="-8.10048528384771"><ele>518.0</ele><time>2026-04-16T14:30:39Z</time></trkpt><trkpt lat="42.47100324945371" lon="-8.100533669963232"><ele>518.0</ele><time>2026-04-16T14:30:40Z</time></trkpt><trkpt lat="42.47108088793074" lon="-8.10058040032028"><ele>518.0</ele><time>2026-04-16T14:30:41Z</time></trkpt><trkpt lat="42.471146200978424" lon="-8.100620772552075"><ele>518.0</ele><time>2026-04-16T14:30:42Z</time></trkpt><trkpt lat="42.471241120867106" lon="-8.100684549440448"><ele>518.0</ele><time>2026-04-16T14:30:44Z</time></trkpt><trkpt lat="42.47133797220077" lon="-8.100726847803248"><ele>519.0</ele><time>2026-04-16T14:30:46Z</time></trkpt><trkpt lat="42.47140182304522" lon="-8.100750412845505"><ele>520.0</ele><time>2026-04-16T14:30:48Z</time></trkpt><trkpt lat="42.471470476968044" lon="-8.100780344112538"><ele>521.0</ele><time>2026-04-16T14:30:51Z</time></trkpt><trkpt lat="42.471581379838405" lon="-8.100891687091389"><ele>522.0</ele><time>2026-04-16T14:36:27.001Z</time></trkpt><trkpt lat="42.47166873319918" lon="-8.100951903766655"><ele>523.0</ele><time>2026-04-16T14:36:28Z</time></trkpt><trkpt lat="42.471720922868116" lon="-8.101000356492632"><ele>524.0</ele><time>2026-04-16T14:36:29Z</time></trkpt><trkpt lat="42.47173047613912" lon="-8.101157953919063"><ele>524.0</ele><time>2026-04-16T14:36:32Z</time></trkpt><trkpt lat="42.47167895166865" lon="-8.10129167091411"><ele>524.0</ele><time>2026-04-16T14:36:34Z</time></trkpt><trkpt lat="42.47165360411139" lon="-8.101402530804531"><ele>524.0</ele><time>2026-04-16T14:36:35Z</time></trkpt><trkpt lat="42.471616186226484" lon="-8.101501024991588"><ele>524.0</ele><time>2026-04-16T14:36:36Z</time></trkpt><trkpt lat="42.47158096168" lon="-8.101590846386877"><ele>524.0</ele><time>2026-04-16T14:36:37Z</time></trkpt><trkpt lat="42.47153381237185" lon="-8.101689414218562"><ele>524.0</ele><time>2026-04-16T14:36:38Z</time></trkpt><trkpt lat="42.471495292705164" lon="-8.101773738163532"><ele>524.2857142857143</ele><time>2026-04-16T14:36:39Z</time></trkpt><trkpt lat="42.471443070442895" lon="-8.101861473805524"><ele>524.5714285714287</ele><time>2026-04-16T14:36:40Z</time></trkpt><trkpt lat="42.471391562629314" lon="-8.101947016355638"><ele>524.8571428571429</ele><time>2026-04-16T14:36:41Z</time></trkpt><trkpt lat="42.47134401851186" lon="-8.102019678902366"><ele>525.1428571428571</ele><time>2026-04-16T14:36:42Z</time></trkpt><trkpt lat="42.471315523719184" lon="-8.102095840478807"><ele>525.4285714285713</ele><time>2026-04-16T14:36:43Z</time></trkpt><trkpt lat="42.471274449684515" lon="-8.102164517926797"><ele>525.7142857142857</ele><time>2026-04-16T14:36:44Z</time></trkpt><trkpt lat="42.471228883743755" lon="-8.102239554374489"><ele>526.0</ele><time>2026-04-16T14:36:45Z</time></trkpt><trkpt lat="42.471183448653534" lon="-8.102310281599808"><ele>526.5</ele><time>2026-04-16T14:36:46Z</time></trkpt><trkpt lat="42.47112470266805" lon="-8.10236914120481"><ele>527.0</ele><time>2026-04-16T14:36:47Z</time></trkpt><trkpt lat="42.47107592541193" lon="-8.102446480674438"><ele>527.5</ele><time>2026-04-16T14:36:48Z</time></trkpt><trkpt lat="42.471027958490524" lon="-8.10253394815686"><ele>528.0</ele><time>2026-04-16T14:36:49Z</time></trkpt><trkpt lat="42.470972005669644" lon="-8.10260087703331"><ele>528.5</ele><time>2026-04-16T14:36:50Z</time></trkpt><trkpt lat="42.4709119347802" lon="-8.102657229151077"><ele>529.0</ele><time>2026-04-16T14:36:51Z</time></trkpt><trkpt lat="42.4708545455942" lon="-8.102724596580373"><ele>529.0</ele><time>2026-04-16T14:36:52Z</time></trkpt><trkpt lat="42.470793905593794" lon="-8.102794848755329"><ele>529.0</ele><time>2026-04-16T14:36:53Z</time></trkpt><trkpt lat="42.47073592083491" lon="-8.102862402330038"><ele>529.0</ele><time>2026-04-16T14:36:54Z</time></trkpt><trkpt lat="42.470692896411634" lon="-8.102932884508402"><ele>529.0</ele><time>2026-04-16T14:36:55Z</time></trkpt><trkpt lat="42.470652099515064" lon="-8.103014641882684"><ele>529.0</ele><time>2026-04-16T14:36:56Z</time></trkpt><trkpt lat="42.470626972223656" lon="-8.103106913603485"><ele>529.0</ele><time>2026-04-16T14:36:57Z</time></trkpt><trkpt lat="42.47061291590427" lon="-8.1032022191458"><ele>529.0</ele><time>2026-04-16T14:36:58Z</time></trkpt><trkpt lat="42.470596449854526" lon="-8.10329185206544"><ele>527.75</ele><time>2026-04-16T14:36:59Z</time></trkpt><trkpt lat="42.47057219871611" lon="-8.103454262040193"><ele>526.5</ele><time>2026-04-16T14:37:01Z</time></trkpt><trkpt lat="42.47053923250032" lon="-8.10361554971019"><ele>525.25</ele><time>2026-04-16T14:37:03Z</time></trkpt><trkpt lat="42.4705046966769" lon="-8.103761652730803"><ele>524.0</ele><time>2026-04-16T14:37:05Z</time></trkpt><trkpt lat="42.470468001688914" lon="-8.103909007333202"><ele>524.0</ele><time>2026-04-16T14:37:07Z</time></trkpt><trkpt lat="42.47043741423506" lon="-8.104062118368104"><ele>524.0</ele><time>2026-04-16T14:37:09Z</time></trkpt><trkpt lat="42.47042558501692" lon="-8.104148515688605"><ele>524.0</ele><time>2026-04-16T14:37:10Z</time></trkpt><trkpt lat="42.470411383907525" lon="-8.104243098613667"><ele>524.0</ele><time>2026-04-16T14:37:11Z</time></trkpt><trkpt lat="42.47040142666414" lon="-8.104338368122463"><ele>524.0</ele><time>2026-04-16T14:37:12Z</time></trkpt><trkpt lat="42.470396378551875" lon="-8.1044412845247"><ele>524.0</ele><time>2026-04-16T14:37:13Z</time></trkpt><trkpt lat="42.47039154623448" lon="-8.104546457559257"><ele>523.1666666666666</ele><time>2026-04-16T14:37:14Z</time></trkpt><trkpt lat="42.4703882679755" lon="-8.104653665672684"><ele>522.3333333333333</ele><time>2026-04-16T14:37:15Z</time></trkpt><trkpt lat="42.47037313875838" lon="-8.104765406409422"><ele>521.5</ele><time>2026-04-16T14:37:16Z</time></trkpt><trkpt lat="42.47036685659601" lon="-8.104865561234595"><ele>520.6666666666666</ele><time>2026-04-16T14:37:17Z</time></trkpt><trkpt lat="42.47035096989553" lon="-8.104962574799833"><ele>519.8333333333334</ele><time>2026-04-16T14:37:18Z</time></trkpt><trkpt lat="42.47034499736812" lon="-8.105071349182317"><ele>519.0</ele><time>2026-04-16T14:37:19Z</time></trkpt><trkpt lat="42.470360012525774" lon="-8.10516558228401"><ele>519.0</ele><time>2026-04-16T14:37:20Z</time></trkpt><trkpt lat="42.47037760931391" lon="-8.10525248532662"><ele>519.0</ele><time>2026-04-16T14:37:21Z</time></trkpt><trkpt lat="42.470384503509884" lon="-8.105350646593386"><ele>519.0</ele><time>2026-04-16T14:37:22Z</time></trkpt><trkpt lat="42.470377912998835" lon="-8.105446461091647"><ele>519.0</ele><time>2026-04-16T14:37:23Z</time></trkpt><trkpt lat="42.47035655562642" lon="-8.105534505530795"><ele>519.0</ele><time>2026-04-16T14:37:24Z</time></trkpt><trkpt lat="42.4703285707997" lon="-8.105619295697009"><ele>519.0</ele><time>2026-04-16T14:37:25Z</time></trkpt><trkpt lat="42.47030891913562" lon="-8.105716035036094"><ele>519.0</ele><time>2026-04-16T14:37:26Z</time></trkpt><trkpt lat="42.47025117468161" lon="-8.105862775700869"><ele>519.0</ele><time>2026-04-16T14:37:28Z</time></trkpt><trkpt lat="42.470191583374366" lon="-8.105989984078754"><ele>519.0</ele><time>2026-04-16T14:37:30Z</time></trkpt><trkpt lat="42.470141508414144" lon="-8.106099641957488"><ele>519.0</ele><time>2026-04-16T14:37:32Z</time></trkpt><trkpt lat="42.470137642665584" lon="-8.10621822621054"><ele>519.0</ele><time>2026-04-16T14:37:43Z</time></trkpt><trkpt lat="42.47024516775364" lon="-8.106298113213109"><ele>519.0</ele><time>2026-04-16T14:37:45Z</time></trkpt><trkpt lat="42.47035352642149" lon="-8.106371989450663"><ele>519.0</ele><time>2026-04-16T14:37:47Z</time></trkpt><trkpt lat="42.47041546252731" lon="-8.106418043176078"><ele>519.0</ele><time>2026-04-16T14:37:48Z</time></trkpt><trkpt lat="42.470478874705535" lon="-8.106467445036573"><ele>519.0</ele><time>2026-04-16T14:37:49Z</time></trkpt><trkpt lat="42.47054986566603" lon="-8.106524086041892"><ele>519.0</ele><time>2026-04-16T14:37:50Z</time></trkpt><trkpt lat="42.47062148041238" lon="-8.10658793288825"><ele>519.0</ele><time>2026-04-16T14:37:51Z</time></trkpt><trkpt lat="42.4706944301899" lon="-8.106650621563853"><ele>519.0</ele><time>2026-04-16T14:37:52Z</time></trkpt><trkpt lat="42.47078212256734" lon="-8.106725229958887"><ele>519.2</ele><time>2026-04-16T14:37:53Z</time></trkpt><trkpt lat="42.47086829953576" lon="-8.10680304349869"><ele>519.4</ele><time>2026-04-16T14:37:54Z</time></trkpt><trkpt lat="42.47095260587295" lon="-8.106882345228623"><ele>519.6</ele><time>2026-04-16T14:37:55Z</time></trkpt><trkpt lat="42.47103880018307" lon="-8.106957262040622"><ele>519.8</ele><time>2026-04-16T14:37:56Z</time></trkpt><trkpt lat="42.47112512860353" lon="-8.10703549515907"><ele>520.0</ele><time>2026-04-16T14:37:57Z</time></trkpt><trkpt lat="42.471209738897" lon="-8.1071202522979"><ele>521.0</ele><time>2026-04-16T14:37:58Z</time></trkpt><trkpt lat="42.47129469216228" lon="-8.107200154634889"><ele>522.0</ele><time>2026-04-16T14:37:59Z</time></trkpt><trkpt lat="42.471359924620074" lon="-8.10724755092085"><ele>523.0</ele><time>2026-04-16T14:38:00Z</time></trkpt><trkpt lat="42.471429587852356" lon="-8.107304854999102"><ele>524.0</ele><time>2026-04-16T14:38:01Z</time></trkpt><trkpt lat="42.47152164922535" lon="-8.107415869966793"><ele>525.0</ele><time>2026-04-16T14:38:02Z</time></trkpt><trkpt lat="42.47160394455002" lon="-8.107500575944032"><ele>525.8333333333334</ele><time>2026-04-16T14:38:03Z</time></trkpt><trkpt lat="42.471689279777735" lon="-8.107557554321351"><ele>526.6666666666666</ele><time>2026-04-16T14:38:04Z</time></trkpt><trkpt lat="42.471768279633814" lon="-8.10763681689046"><ele>527.5</ele><time>2026-04-16T14:38:05Z</time></trkpt><trkpt lat="42.471831042955024" lon="-8.107691886447137"><ele>528.3333333333333</ele><time>2026-04-16T14:38:06Z</time></trkpt><trkpt lat="42.471891162455435" lon="-8.107748556367937"><ele>529.1666666666666</ele><time>2026-04-16T14:38:07Z</time></trkpt><trkpt lat="42.47196154917978" lon="-8.107815042688669"><ele>530.0</ele><time>2026-04-16T14:38:08Z</time></trkpt><trkpt lat="42.47202246600136" lon="-8.10787281501089"><ele>530.0</ele><time>2026-04-16T14:38:09Z</time></trkpt><trkpt lat="42.47207554289946" lon="-8.10794464277176"><ele>530.0</ele><time>2026-04-16T14:38:10Z</time></trkpt><trkpt lat="42.47212453768767" lon="-8.108019474786715"><ele>530.0</ele><time>2026-04-16T14:38:11Z</time></trkpt><trkpt lat="42.4721527204839" lon="-8.108118397220952"><ele>530.0</ele><time>2026-04-16T14:38:12Z</time></trkpt><trkpt lat="42.47216840335487" lon="-8.108229810019324"><ele>530.0</ele><time>2026-04-16T14:38:13Z</time></trkpt><trkpt lat="42.472188934029994" lon="-8.108344665788271"><ele>530.0</ele><time>2026-04-16T14:38:14Z</time></trkpt><trkpt lat="42.472200649635326" lon="-8.108454150966029"><ele>531.3333333333333</ele><time>2026-04-16T14:38:15Z</time></trkpt><trkpt lat="42.47220149993412" lon="-8.108563252636126"><ele>532.6666666666666</ele><time>2026-04-16T14:38:16Z</time></trkpt><trkpt lat="42.47222665100094" lon="-8.108659943142948"><ele>534.0</ele><time>2026-04-16T14:38:17Z</time></trkpt><trkpt lat="42.47227862460887" lon="-8.108751649951984"><ele>535.3333333333334</ele><time>2026-04-16T14:38:18Z</time></trkpt><trkpt lat="42.472303174094286" lon="-8.108834171513614"><ele>536.6666666666667</ele><time>2026-04-16T14:38:19Z</time></trkpt><trkpt lat="42.47232256587156" lon="-8.108928616205562"><ele>538.0</ele><time>2026-04-16T14:38:20Z</time></trkpt><trkpt lat="42.47235304546254" lon="-8.109019591339857"><ele>536.6</ele><time>2026-04-16T14:38:21Z</time></trkpt><trkpt lat="42.47236338083357" lon="-8.109129504040112"><ele>535.1999999999999</ele><time>2026-04-16T14:38:22Z</time></trkpt><trkpt lat="42.472355362015485" lon="-8.109260927176315"><ele>533.8</ele><time>2026-04-16T14:38:23Z</time></trkpt><trkpt lat="42.47233343948291" lon="-8.109392692913627"><ele>532.4</ele><time>2026-04-16T14:38:24Z</time></trkpt><trkpt lat="42.47228686336007" lon="-8.109505251314884"><ele>531.0</ele><time>2026-04-16T14:38:25Z</time></trkpt><trkpt lat="42.47221753308731" lon="-8.109633935292496"><ele>531.0</ele><time>2026-04-16T14:38:26Z</time></trkpt><trkpt lat="42.47215594127832" lon="-8.109749417228334"><ele>531.0</ele><time>2026-04-16T14:38:27Z</time></trkpt><trkpt lat="42.47209219798105" lon="-8.109868905417"><ele>531.0</ele><time>2026-04-16T14:38:28Z</time></trkpt><trkpt lat="42.47203338799385" lon="-8.109979517646325"><ele>531.0</ele><time>2026-04-16T14:38:29Z</time></trkpt><trkpt lat="42.4719905300375" lon="-8.110081759261243"><ele>531.0</ele><time>2026-04-16T14:38:30Z</time></trkpt><trkpt lat="42.471953059188486" lon="-8.110184887229128"><ele>529.5</ele><time>2026-04-16T14:38:31Z</time></trkpt><trkpt lat="42.47192328632984" lon="-8.110286928128248"><ele>528.0</ele><time>2026-04-16T14:38:32Z</time></trkpt><trkpt lat="42.471897082410486" lon="-8.110395843725193"><ele>526.5</ele><time>2026-04-16T14:38:33Z</time></trkpt><trkpt lat="42.471873501932855" lon="-8.110507332218472"><ele>525.0</ele><time>2026-04-16T14:38:34Z</time></trkpt><trkpt lat="42.471846553865646" lon="-8.110635586155256"><ele>523.5</ele><time>2026-04-16T14:38:35Z</time></trkpt><trkpt lat="42.47180797987059" lon="-8.110746975823524"><ele>522.0</ele><time>2026-04-16T14:38:36Z</time></trkpt><trkpt lat="42.47178765745063" lon="-8.110873220256744"><ele>522.0</ele><time>2026-04-16T14:38:37Z</time></trkpt><trkpt lat="42.471760365619346" lon="-8.11099534573006"><ele>522.0</ele><time>2026-04-16T14:38:38Z</time></trkpt><trkpt lat="42.47174226115981" lon="-8.111114203854738"><ele>522.0</ele><time>2026-04-16T14:38:39Z</time></trkpt><trkpt lat="42.471724339851626" lon="-8.111234249373839"><ele>522.0</ele><time>2026-04-16T14:38:40Z</time></trkpt><trkpt lat="42.47168780454642" lon="-8.1113479349082"><ele>522.0</ele><time>2026-04-16T14:38:41Z</time></trkpt><trkpt lat="42.471644646489025" lon="-8.111456318124487"><ele>522.0</ele><time>2026-04-16T14:38:42Z</time></trkpt><trkpt lat="42.47159785677456" lon="-8.111554137477182"><ele>522.0</ele><time>2026-04-16T14:38:43Z</time></trkpt><trkpt lat="42.47156719844129" lon="-8.111657335083983"><ele>522.0</ele><time>2026-04-16T14:38:44Z</time></trkpt><trkpt lat="42.471525632999686" lon="-8.11175271943905"><ele>522.0</ele><time>2026-04-16T14:38:45Z</time></trkpt><trkpt lat="42.471476318383395" lon="-8.11184601769123"><ele>522.0</ele><time>2026-04-16T14:38:46Z</time></trkpt><trkpt lat="42.47143786190809" lon="-8.111971697693493"><ele>522.0</ele><time>2026-04-16T14:38:47Z</time></trkpt><trkpt lat="42.47140920554214" lon="-8.112085703386407"><ele>522.4</ele><time>2026-04-16T14:38:48Z</time></trkpt><trkpt lat="42.4713817759166" lon="-8.112197335185533"><ele>522.8000000000001</ele><time>2026-04-16T14:38:49Z</time></trkpt><trkpt lat="42.47136749879992" lon="-8.112348183229301"><ele>523.2</ele><time>2026-04-16T14:38:51Z</time></trkpt><trkpt lat="42.47139432353162" lon="-8.11243902385288"><ele>523.6</ele><time>2026-04-16T14:38:53Z</time></trkpt><trkpt lat="42.471453342612634" lon="-8.112504956658475"><ele>524.0</ele><time>2026-04-16T14:38:55Z</time></trkpt><trkpt lat="42.471566139414364" lon="-8.112538287837225"><ele>524.6</ele><time>2026-04-16T14:38:57Z</time></trkpt><trkpt lat="42.47163862623571" lon="-8.11255093696991"><ele>525.2</ele><time>2026-04-16T14:38:58Z</time></trkpt><trkpt lat="42.47173048754733" lon="-8.112575326887024"><ele>525.8000000000001</ele><time>2026-04-16T14:38:59Z</time></trkpt><trkpt lat="42.47182550141535" lon="-8.112595386146973"><ele>526.4</ele><time>2026-04-16T14:39:00Z</time></trkpt><trkpt lat="42.471934760455646" lon="-8.112633860658057"><ele>527.0</ele><time>2026-04-16T14:39:01Z</time></trkpt><trkpt lat="42.472048330997204" lon="-8.112681312388586"><ele>528.5</ele><time>2026-04-16T14:39:02Z</time></trkpt><trkpt lat="42.472166842899576" lon="-8.112735353653445"><ele>530.0</ele><time>2026-04-16T14:39:03Z</time></trkpt><trkpt lat="42.47228422651104" lon="-8.11278072089784"><ele>531.5</ele><time>2026-04-16T14:39:04Z</time></trkpt><trkpt lat="42.4723888719275" lon="-8.112822955868943"><ele>533.0</ele><time>2026-04-16T14:39:05Z</time></trkpt><trkpt lat="42.472485528793065" lon="-8.112867602927329"><ele>533.0</ele><time>2026-04-16T14:39:06Z</time></trkpt><trkpt lat="42.472592460484954" lon="-8.112949874523986"><ele>533.0</ele><time>2026-04-16T14:39:07Z</time></trkpt><trkpt lat="42.47267667810635" lon="-8.113040702524517"><ele>533.0</ele><time>2026-04-16T14:39:08Z</time></trkpt><trkpt lat="42.47275915574313" lon="-8.113135993380338"><ele>533.0</ele><time>2026-04-16T14:39:09Z</time></trkpt><trkpt lat="42.47284118681783" lon="-8.113222899851733"><ele>533.0</ele><time>2026-04-16T14:39:10Z</time></trkpt><trkpt lat="42.4729336832537" lon="-8.11329084239209"><ele>534.8</ele><time>2026-04-16T14:39:11Z</time></trkpt><trkpt lat="42.473025667761284" lon="-8.113333386087689"><ele>536.5999999999999</ele><time>2026-04-16T14:39:12Z</time></trkpt><trkpt lat="42.47312723883193" lon="-8.113376136977863"><ele>538.4000000000001</ele><time>2026-04-16T14:39:13Z</time></trkpt><trkpt lat="42.47321850920504" lon="-8.113399393807528"><ele>540.2</ele><time>2026-04-16T14:39:14Z</time></trkpt><trkpt lat="42.4732978570071" lon="-8.113421378924501"><ele>542.0</ele><time>2026-04-16T14:39:15Z</time></trkpt><trkpt lat="42.47338494998159" lon="-8.113455893863778"><ele>542.0</ele><time>2026-04-16T14:39:16Z</time></trkpt><trkpt lat="42.473473827250395" lon="-8.113485439768922"><ele>542.0</ele><time>2026-04-16T14:39:17Z</time></trkpt><trkpt lat="42.47353501229028" lon="-8.113518568605972"><ele>542.0</ele><time>2026-04-16T14:39:18Z</time></trkpt><trkpt lat="42.47362337056398" lon="-8.113611197379747"><ele>542.0</ele><time>2026-04-16T14:39:20Z</time></trkpt><trkpt lat="42.473669367434596" lon="-8.113676162224756"><ele>542.0</ele><time>2026-04-16T14:39:22Z</time></trkpt><trkpt lat="42.47369445023788" lon="-8.11377355434638"><ele>542.0</ele><time>2026-04-16T14:39:25Z</time></trkpt><trkpt lat="42.47363102049126" lon="-8.113913869834098"><ele>542.0</ele><time>2026-04-16T14:39:27Z</time></trkpt><trkpt lat="42.47358500135027" lon="-8.11398285499532"><ele>542.0</ele><time>2026-04-16T14:39:28Z</time></trkpt><trkpt lat="42.47353030678452" lon="-8.11403357980293"><ele>542.0</ele><time>2026-04-16T14:39:29Z</time></trkpt><trkpt lat="42.47347684004231" lon="-8.114114246467434"><ele>542.0</ele><time>2026-04-16T14:39:30Z</time></trkpt><trkpt lat="42.473406607541335" lon="-8.114190136647421"><ele>542.0</ele><time>2026-04-16T14:39:31Z</time></trkpt><trkpt lat="42.47334763216785" lon="-8.114290950159448"><ele>542.0</ele><time>2026-04-16T14:39:32Z</time></trkpt><trkpt lat="42.47328534395352" lon="-8.114361549235248"><ele>542.0</ele><time>2026-04-16T14:39:33Z</time></trkpt><trkpt lat="42.47322345448286" lon="-8.114446041203195"><ele>542.0</ele><time>2026-04-16T14:39:34Z</time></trkpt><trkpt lat="42.47315914797846" lon="-8.114530640671788"><ele>542.0</ele><time>2026-04-16T14:39:35Z</time></trkpt><trkpt lat="42.473088029982236" lon="-8.114621285790955"><ele>542.0</ele><time>2026-04-16T14:39:36Z</time></trkpt><trkpt lat="42.47301642281591" lon="-8.114714081809288"><ele>542.0</ele><time>2026-04-16T14:39:37Z</time></trkpt><trkpt lat="42.47294712436771" lon="-8.114807188007633"><ele>541.0</ele><time>2026-04-16T14:39:38Z</time></trkpt><trkpt lat="42.47287626575455" lon="-8.114886090753014"><ele>540.0</ele><time>2026-04-16T14:39:39Z</time></trkpt><trkpt lat="42.47283774711796" lon="-8.114958286440507"><ele>539.0</ele><time>2026-04-16T14:39:40Z</time></trkpt><trkpt lat="42.472781399877896" lon="-8.115024505822248"><ele>538.0</ele><time>2026-04-16T14:39:41Z</time></trkpt><trkpt lat="42.47271789111673" lon="-8.115070369763352"><ele>537.0</ele><time>2026-04-16T14:39:42Z</time></trkpt><trkpt lat="42.47266349659252" lon="-8.115135636270299"><ele>536.0</ele><time>2026-04-16T14:39:43Z</time></trkpt><trkpt lat="42.47260842162686" lon="-8.115202059853914"><ele>536.0</ele><time>2026-04-16T14:39:44Z</time></trkpt><trkpt lat="42.47255601491055" lon="-8.115275562734128"><ele>536.0</ele><time>2026-04-16T14:39:45Z</time></trkpt><trkpt lat="42.472489340799825" lon="-8.115329152087819"><ele>536.0</ele><time>2026-04-16T14:39:46Z</time></trkpt><trkpt lat="42.47242710023328" lon="-8.115381354152404"><ele>536.0</ele><time>2026-04-16T14:39:47Z</time></trkpt><trkpt lat="42.472331281730824" lon="-8.115472316750374"><ele>536.0</ele><time>2026-04-16T14:39:49Z</time></trkpt><trkpt lat="42.472253324388596" lon="-8.115559847422134"><ele>536.0</ele><time>2026-04-16T14:39:51Z</time></trkpt><trkpt lat="42.4721882366233" lon="-8.115618417214682"><ele>536.0</ele><time>2026-04-16T14:39:53Z</time></trkpt><trkpt lat="42.472105939058004" lon="-8.115694995266027"><ele>536.0</ele><time>2026-04-16T14:39:55Z</time></trkpt><trkpt lat="42.472046826630326" lon="-8.11572643049583"><ele>536.0</ele><time>2026-04-16T14:39:56Z</time></trkpt><trkpt lat="42.47192987855531" lon="-8.11579774641201"><ele>536.0</ele><time>2026-04-16T14:39:58Z</time></trkpt><trkpt lat="42.471867183523976" lon="-8.11581919470504"><ele>536.0</ele><time>2026-04-16T14:39:59Z</time></trkpt><trkpt lat="42.4718085972743" lon="-8.115868468303795"><ele>536.0</ele><time>2026-04-16T14:40:00Z</time></trkpt><trkpt lat="42.471739722066836" lon="-8.115900655747774"><ele>536.0</ele><time>2026-04-16T14:40:01Z</time></trkpt><trkpt lat="42.47166620670301" lon="-8.115933890385922"><ele>536.0</ele><time>2026-04-16T14:40:02Z</time></trkpt><trkpt lat="42.4715958665992" lon="-8.115963990348211"><ele>536.0</ele><time>2026-04-16T14:40:03Z</time></trkpt><trkpt lat="42.47152103813299" lon="-8.115996010948265"><ele>536.0</ele><time>2026-04-16T14:40:04Z</time></trkpt><trkpt lat="42.471442310610875" lon="-8.116029572752648"><ele>536.0</ele><time>2026-04-16T14:40:05Z</time></trkpt><trkpt lat="42.471363882646415" lon="-8.116062448254878"><ele>536.0</ele><time>2026-04-16T14:40:06Z</time></trkpt><trkpt lat="42.471278515908715" lon="-8.116098232392265"><ele>535.0</ele><time>2026-04-16T14:40:07Z</time></trkpt><trkpt lat="42.471204507663096" lon="-8.116129255268042"><ele>534.0</ele><time>2026-04-16T14:40:08Z</time></trkpt><trkpt lat="42.47112383500043" lon="-8.116163071692322"><ele>533.0</ele><time>2026-04-16T14:40:09Z</time></trkpt><trkpt lat="42.4710420836826" lon="-8.116197340306053"><ele>532.0</ele><time>2026-04-16T14:40:10Z</time></trkpt><trkpt lat="42.47095952417997" lon="-8.11623159365386"><ele>531.0</ele><time>2026-04-16T14:40:11Z</time></trkpt><trkpt lat="42.470876438856855" lon="-8.116243328703785"><ele>530.0</ele><time>2026-04-16T14:40:12Z</time></trkpt><trkpt lat="42.470792831984674" lon="-8.116283729436002"><ele>530.0</ele><time>2026-04-16T14:40:13Z</time></trkpt><trkpt lat="42.47072440697989" lon="-8.116316762456512"><ele>530.0</ele><time>2026-04-16T14:40:14Z</time></trkpt><trkpt lat="42.47064777956857" lon="-8.116348960751127"><ele>530.0</ele><time>2026-04-16T14:40:15Z</time></trkpt><trkpt lat="42.47056945582187" lon="-8.116378116522233"><ele>530.0</ele><time>2026-04-16T14:40:16Z</time></trkpt><trkpt lat="42.47049293708499" lon="-8.116407826449805"><ele>530.0</ele><time>2026-04-16T14:40:17Z</time></trkpt><trkpt lat="42.470427874507806" lon="-8.11644294507378"><ele>530.0</ele><time>2026-04-16T14:40:18Z</time></trkpt><trkpt lat="42.47035453495083" lon="-8.116476120620458"><ele>529.6666666666666</ele><time>2026-04-16T14:40:19Z</time></trkpt><trkpt lat="42.47028502314473" lon="-8.116504555908486"><ele>529.3333333333333</ele><time>2026-04-16T14:40:20Z</time></trkpt><trkpt lat="42.47020667860661" lon="-8.116531438940529"><ele>529.0</ele><time>2026-04-16T14:40:21Z</time></trkpt><trkpt lat="42.47013382810877" lon="-8.116568047878534"><ele>528.6666666666666</ele><time>2026-04-16T14:40:22Z</time></trkpt><trkpt lat="42.47005351358917" lon="-8.116602190052001"><ele>528.3333333333334</ele><time>2026-04-16T14:40:23Z</time></trkpt><trkpt lat="42.46997238515358" lon="-8.11663444839788"><ele>528.0</ele><time>2026-04-16T14:40:24Z</time></trkpt><trkpt lat="42.46988692638895" lon="-8.116670244404556"><ele>528.0</ele><time>2026-04-16T14:40:25Z</time></trkpt><trkpt lat="42.469796398798394" lon="-8.116708055299608"><ele>528.0</ele><time>2026-04-16T14:40:26Z</time></trkpt><trkpt lat="42.46970806890582" lon="-8.116740043356199"><ele>528.0</ele><time>2026-04-16T14:40:27Z</time></trkpt><trkpt lat="42.469621198166664" lon="-8.116774258246082"><ele>528.0</ele><time>2026-04-16T14:40:28Z</time></trkpt><trkpt lat="42.46952927324178" lon="-8.116815664699393"><ele>528.0</ele><time>2026-04-16T14:40:29Z</time></trkpt><trkpt lat="42.46943984828393" lon="-8.1168491452171"><ele>527.1999999999999</ele><time>2026-04-16T14:40:30Z</time></trkpt><trkpt lat="42.46935709079943" lon="-8.116898097642428"><ele>526.4</ele><time>2026-04-16T14:40:31Z</time></trkpt><trkpt lat="42.469266806444935" lon="-8.11693808967911"><ele>525.5999999999999</ele><time>2026-04-16T14:40:32Z</time></trkpt><trkpt lat="42.46916391485911" lon="-8.116976562533072"><ele>524.8</ele><time>2026-04-16T14:40:33Z</time></trkpt><trkpt lat="42.46908707921226" lon="-8.117018861908615"><ele>524.0</ele><time>2026-04-16T14:40:34Z</time></trkpt><trkpt lat="42.46899153284549" lon="-8.11704495656503"><ele>524.0</ele><time>2026-04-16T14:40:35Z</time></trkpt><trkpt lat="42.4689054736036" lon="-8.117077767008453"><ele>524.0</ele><time>2026-04-16T14:40:36Z</time></trkpt><trkpt lat="42.46882712922113" lon="-8.11712058230677"><ele>524.0</ele><time>2026-04-16T14:40:37Z</time></trkpt><trkpt lat="42.46874294502331" lon="-8.117147428882262"><ele>524.0</ele><time>2026-04-16T14:40:38Z</time></trkpt><trkpt lat="42.4686746332461" lon="-8.117181671302694"><ele>524.0</ele><time>2026-04-16T14:40:39Z</time></trkpt><trkpt lat="42.468614196353684" lon="-8.117221344275954"><ele>524.0</ele><time>2026-04-16T14:40:40Z</time></trkpt><trkpt lat="42.46854105288185" lon="-8.11724608900387"><ele>523.5</ele><time>2026-04-16T14:40:41Z</time></trkpt><trkpt lat="42.468471302780515" lon="-8.117271093268798"><ele>523.0</ele><time>2026-04-16T14:40:42Z</time></trkpt><trkpt lat="42.46840457532342" lon="-8.11730215945629"><ele>522.5</ele><time>2026-04-16T14:40:43Z</time></trkpt><trkpt lat="42.46832295520174" lon="-8.117320630410015"><ele>522.0</ele><time>2026-04-16T14:40:44Z</time></trkpt><trkpt lat="42.46823980614796" lon="-8.117337368016933"><ele>521.5</ele><time>2026-04-16T14:40:45Z</time></trkpt><trkpt lat="42.46816503209438" lon="-8.117350623569745"><ele>521.0</ele><time>2026-04-16T14:40:46Z</time></trkpt><trkpt lat="42.46808956695589" lon="-8.11737054962445"><ele>521.0</ele><time>2026-04-16T14:40:47Z</time></trkpt><trkpt lat="42.46801698936489" lon="-8.11739358327821"><ele>521.0</ele><time>2026-04-16T14:40:48Z</time></trkpt><trkpt lat="42.46794516046082" lon="-8.117405757791536"><ele>521.0</ele><time>2026-04-16T14:40:49Z</time></trkpt><trkpt lat="42.46787851571089" lon="-8.117428622685713"><ele>521.0</ele><time>2026-04-16T14:40:50Z</time></trkpt><trkpt lat="42.46780751343222" lon="-8.117438572525101"><ele>521.0</ele><time>2026-04-16T14:40:51Z</time></trkpt><trkpt lat="42.46774377558642" lon="-8.117470513983479"><ele>521.0</ele><time>2026-04-16T14:40:52Z</time></trkpt><trkpt lat="42.46762501995354" lon="-8.117475401225922"><ele>520.6666666666666</ele><time>2026-04-16T14:40:54Z</time></trkpt><trkpt lat="42.46756373530501" lon="-8.117504824694885"><ele>520.3333333333333</ele><time>2026-04-16T14:40:55Z</time></trkpt><trkpt lat="42.46749130292602" lon="-8.117505041689014"><ele>520.0</ele><time>2026-04-16T14:40:56Z</time></trkpt><trkpt lat="42.46742646986109" lon="-8.117524515933667"><ele>519.6666666666666</ele><time>2026-04-16T14:40:57Z</time></trkpt><trkpt lat="42.467309863414556" lon="-8.11754007293837"><ele>519.3333333333334</ele><time>2026-04-16T14:40:59Z</time></trkpt><trkpt lat="42.46719003301231" lon="-8.117571283711126"><ele>519.0</ele><time>2026-04-16T14:41:01Z</time></trkpt><trkpt lat="42.4671324237374" lon="-8.117635673657876"><ele>519.0</ele><time>2026-04-16T14:41:02Z</time></trkpt><trkpt lat="42.4670972315431" lon="-8.11773301033141"><ele>519.0</ele><time>2026-04-16T14:41:03Z</time></trkpt><trkpt lat="42.46705867929157" lon="-8.11783719750264"><ele>519.0</ele><time>2026-04-16T14:41:04Z</time></trkpt><trkpt lat="42.46700570978272" lon="-8.117941922418087"><ele>519.0</ele><time>2026-04-16T14:41:05Z</time></trkpt><trkpt lat="42.4669496788814" lon="-8.118051286097263"><ele>519.0</ele><time>2026-04-16T14:41:06Z</time></trkpt><trkpt lat="42.46689673229713" lon="-8.11814867534289"><ele>519.0</ele><time>2026-04-16T14:41:07Z</time></trkpt><trkpt lat="42.46682074457446" lon="-8.118258176320657"><ele>518.2</ele><time>2026-04-16T14:41:08Z</time></trkpt><trkpt lat="42.46674912420868" lon="-8.11835596917555"><ele>517.4</ele><time>2026-04-16T14:41:09Z</time></trkpt><trkpt lat="42.4666776939886" lon="-8.11845675330897"><ele>516.6</ele><time>2026-04-16T14:41:10Z</time></trkpt><trkpt lat="42.46661141073636" lon="-8.11854564125202"><ele>515.8</ele><time>2026-04-16T14:41:11Z</time></trkpt><trkpt lat="42.46653006674833" lon="-8.118620674068488"><ele>515.0</ele><time>2026-04-16T14:41:12Z</time></trkpt><trkpt lat="42.46644834658125" lon="-8.118705373178368"><ele>515.0</ele><time>2026-04-16T14:41:13Z</time></trkpt><trkpt lat="42.4663624117739" lon="-8.118794648119653"><ele>515.0</ele><time>2026-04-16T14:41:14Z</time></trkpt><trkpt lat="42.46627440491404" lon="-8.118889523134921"><ele>515.0</ele><time>2026-04-16T14:41:15Z</time></trkpt><trkpt lat="42.466178882592004" lon="-8.118990568716645"><ele>515.0</ele><time>2026-04-16T14:41:16Z</time></trkpt><trkpt lat="42.46608349688372" lon="-8.119086280949"><ele>516.6</ele><time>2026-04-16T14:41:17Z</time></trkpt><trkpt lat="42.46601083714985" lon="-8.119178433348958"><ele>518.2</ele><time>2026-04-16T14:41:18Z</time></trkpt><trkpt lat="42.46592914312001" lon="-8.119267511222308"><ele>519.8</ele><time>2026-04-16T14:41:19Z</time></trkpt><trkpt lat="42.465847511254495" lon="-8.119352072627747"><ele>521.4</ele><time>2026-04-16T14:41:20Z</time></trkpt><trkpt lat="42.46577239528388" lon="-8.119424392787108"><ele>523.0</ele><time>2026-04-16T14:41:21Z</time></trkpt><trkpt lat="42.465709002259864" lon="-8.119496452131811"><ele>523.0</ele><time>2026-04-16T14:41:22Z</time></trkpt><trkpt lat="42.465634080894795" lon="-8.119573137941437"><ele>523.0</ele><time>2026-04-16T14:41:23Z</time></trkpt><trkpt lat="42.46557594602735" lon="-8.119639994536106"><ele>523.0</ele><time>2026-04-16T14:41:24Z</time></trkpt><trkpt lat="42.465531029092986" lon="-8.119703175085482"><ele>523.0</ele><time>2026-04-16T14:41:25Z</time></trkpt><trkpt lat="42.46547676932642" lon="-8.119784036492412"><ele>523.0</ele><time>2026-04-16T14:41:26Z</time></trkpt><trkpt lat="42.46540709350737" lon="-8.119843870785203"><ele>523.0</ele><time>2026-04-16T14:41:27Z</time></trkpt><trkpt lat="42.46535031780469" lon="-8.119901106167951"><ele>524.4</ele><time>2026-04-16T14:41:28Z</time></trkpt><trkpt lat="42.46525579632713" lon="-8.120017977987375"><ele>525.8</ele><time>2026-04-16T14:41:30Z</time></trkpt><trkpt lat="42.465187395726716" lon="-8.120090647008986"><ele>527.2</ele><time>2026-04-16T14:41:31Z</time></trkpt><trkpt lat="42.465133976832504" lon="-8.120161224131078"><ele>528.6</ele><time>2026-04-16T14:41:32Z</time></trkpt><trkpt lat="42.465083816398405" lon="-8.120219060367074"><ele>530.0</ele><time>2026-04-16T14:41:33Z</time></trkpt><trkpt lat="42.46498330481029" lon="-8.120344712234482"><ele>530.0</ele><time>2026-04-16T14:41:35Z</time></trkpt><trkpt lat="42.464930047072514" lon="-8.120421116287767"><ele>530.0</ele><time>2026-04-16T14:41:36Z</time></trkpt><trkpt lat="42.464877716639485" lon="-8.120496763764148"><ele>530.0</ele><time>2026-04-16T14:41:37Z</time></trkpt><trkpt lat="42.464814520465886" lon="-8.120587550850644"><ele>530.0</ele><time>2026-04-16T14:41:38Z</time></trkpt><trkpt lat="42.46473377337422" lon="-8.12065147844741"><ele>530.0</ele><time>2026-04-16T14:41:39Z</time></trkpt><trkpt lat="42.46467162867595" lon="-8.120738165225438"><ele>530.0</ele><time>2026-04-16T14:41:40Z</time></trkpt><trkpt lat="42.464616963312764" lon="-8.12081480054312"><ele>529.8333333333333</ele><time>2026-04-16T14:41:41Z</time></trkpt><trkpt lat="42.46456480681511" lon="-8.120880637527792"><ele>529.6666666666666</ele><time>2026-04-16T14:41:42Z</time></trkpt><trkpt lat="42.46450667068152" lon="-8.120944839362041"><ele>529.5</ele><time>2026-04-16T14:41:43Z</time></trkpt><trkpt lat="42.464445891707896" lon="-8.120997785803686"><ele>529.3333333333334</ele><time>2026-04-16T14:41:44Z</time></trkpt><trkpt lat="42.46437581020779" lon="-8.121027175510726"><ele>529.1666666666667</ele><time>2026-04-16T14:41:45Z</time></trkpt><trkpt lat="42.464300882440995" lon="-8.121067817055472"><ele>529.0</ele><time>2026-04-16T14:41:46Z</time></trkpt><trkpt lat="42.46421581897317" lon="-8.121047924342195"><ele>529.0</ele><time>2026-04-16T14:41:47Z</time></trkpt><trkpt lat="42.464124553900575" lon="-8.121041705792745"><ele>529.0</ele><time>2026-04-16T14:41:48Z</time></trkpt><trkpt lat="42.464028604094906" lon="-8.121037851033774"><ele>529.0</ele><time>2026-04-16T14:41:49Z</time></trkpt><trkpt lat="42.46394446640593" lon="-8.121031253896659"><ele>529.0</ele><time>2026-04-16T14:41:50Z</time></trkpt><trkpt lat="42.4638577779063" lon="-8.121073650406585"><ele>529.0</ele><time>2026-04-16T14:41:51Z</time></trkpt><trkpt lat="42.46377698364119" lon="-8.121091725941277"><ele>529.0</ele><time>2026-04-16T14:41:52Z</time></trkpt><trkpt lat="42.463712958443885" lon="-8.121131567594338"><ele>529.5</ele><time>2026-04-16T14:41:53Z</time></trkpt><trkpt lat="42.46367526388085" lon="-8.12122526431642"><ele>530.0</ele><time>2026-04-16T14:41:54Z</time></trkpt><trkpt lat="42.46365764538731" lon="-8.121321437351948"><ele>530.5</ele><time>2026-04-16T14:41:55Z</time></trkpt><trkpt lat="42.46361459281653" lon="-8.121429011072781"><ele>531.0</ele><time>2026-04-16T14:41:56Z</time></trkpt><trkpt lat="42.46359441656858" lon="-8.121543234999416"><ele>531.5</ele><time>2026-04-16T14:41:57Z</time></trkpt><trkpt lat="42.46355609903467" lon="-8.121654137391957"><ele>532.0</ele><time>2026-04-16T14:41:58Z</time></trkpt><trkpt lat="42.46350871081879" lon="-8.121783011362238"><ele>533.6</ele><time>2026-04-16T14:41:59Z</time></trkpt><trkpt lat="42.46345455029102" lon="-8.121897441684863"><ele>535.2</ele><time>2026-04-16T14:42:00Z</time></trkpt><trkpt lat="42.46340109525213" lon="-8.122010278989464"><ele>536.8</ele><time>2026-04-16T14:42:01Z</time></trkpt><trkpt lat="42.463334140687806" lon="-8.122108933068855"><ele>538.4</ele><time>2026-04-16T14:42:02Z</time></trkpt><trkpt lat="42.46328174928291" lon="-8.122213469293039"><ele>540.0</ele><time>2026-04-16T14:42:03Z</time></trkpt><trkpt lat="42.46321455595448" lon="-8.122316145886451"><ele>541.0</ele><time>2026-04-16T14:42:04Z</time></trkpt><trkpt lat="42.46316065386074" lon="-8.122415040813259"><ele>542.0</ele><time>2026-04-16T14:42:05Z</time></trkpt><trkpt lat="42.46310459896719" lon="-8.122508860447594"><ele>543.0</ele><time>2026-04-16T14:42:06Z</time></trkpt><trkpt lat="42.46305145969547" lon="-8.122590636849957"><ele>544.0</ele><time>2026-04-16T14:42:07Z</time></trkpt><trkpt lat="42.46299048526819" lon="-8.122679320449917"><ele>545.0</ele><time>2026-04-16T14:42:08Z</time></trkpt><trkpt lat="42.462925867040866" lon="-8.122766861873675"><ele>546.0</ele><time>2026-04-16T14:42:09Z</time></trkpt><trkpt lat="42.46284816415866" lon="-8.122848587260526"><ele>546.0</ele><time>2026-04-16T14:42:10Z</time></trkpt><trkpt lat="42.46278088283652" lon="-8.122950569708422"><ele>546.0</ele><time>2026-04-16T14:42:11Z</time></trkpt><trkpt lat="42.46269600909496" lon="-8.123015841313377"><ele>546.0</ele><time>2026-04-16T14:42:12Z</time></trkpt><trkpt lat="42.46261095505099" lon="-8.123092563793902"><ele>546.0</ele><time>2026-04-16T14:42:13Z</time></trkpt><trkpt lat="42.46251563643676" lon="-8.12317049765924"><ele>546.0</ele><time>2026-04-16T14:42:14Z</time></trkpt><trkpt lat="42.46243561239814" lon="-8.123237098058956"><ele>546.6</ele><time>2026-04-16T14:42:15Z</time></trkpt><trkpt lat="42.46235666473686" lon="-8.123320495682764"><ele>547.2</ele><time>2026-04-16T14:42:16Z</time></trkpt><trkpt lat="42.46228903522796" lon="-8.123400745994703"><ele>547.8</ele><time>2026-04-16T14:42:17Z</time></trkpt><trkpt lat="42.46222388450447" lon="-8.1234921803899"><ele>548.4</ele><time>2026-04-16T14:42:18Z</time></trkpt><trkpt lat="42.46214350815436" lon="-8.123567571350534"><ele>549.0</ele><time>2026-04-16T14:42:19Z</time></trkpt><trkpt lat="42.4620757707152" lon="-8.123662234105181"><ele>549.0</ele><time>2026-04-16T14:42:20Z</time></trkpt><trkpt lat="42.46201146989391" lon="-8.123743978516384"><ele>549.0</ele><time>2026-04-16T14:42:21Z</time></trkpt><trkpt lat="42.461952074628456" lon="-8.123844942693715"><ele>549.0</ele><time>2026-04-16T14:42:22Z</time></trkpt><trkpt lat="42.46189016833569" lon="-8.123938868260836"><ele>549.0</ele><time>2026-04-16T14:42:22.999Z</time></trkpt><trkpt lat="42.46183208345457" lon="-8.124038707973828"><ele>549.0</ele><time>2026-04-16T14:42:23.999Z</time></trkpt><trkpt lat="42.46177114956105" lon="-8.124137520900371"><ele>550.2</ele><time>2026-04-16T14:42:24.999Z</time></trkpt><trkpt lat="42.461715780633945" lon="-8.124238639335683"><ele>551.4</ele><time>2026-04-16T14:42:25.999Z</time></trkpt><trkpt lat="42.46166336191942" lon="-8.12433431706915"><ele>552.6</ele><time>2026-04-16T14:42:26.999Z</time></trkpt><trkpt lat="42.46162599348177" lon="-8.124454720851743"><ele>553.8</ele><time>2026-04-16T14:42:27.999Z</time></trkpt><trkpt lat="42.461605540561536" lon="-8.12458637069988"><ele>555.0</ele><time>2026-04-16T14:42:28.999Z</time></trkpt><trkpt lat="42.46156219981377" lon="-8.124703287746922"><ele>555.0</ele><time>2026-04-16T14:42:30Z</time></trkpt><trkpt lat="42.4615426572699" lon="-8.124839301542258"><ele>555.0</ele><time>2026-04-16T14:42:31Z</time></trkpt><trkpt lat="42.46151314647831" lon="-8.124972329391664"><ele>555.0</ele><time>2026-04-16T14:42:32Z</time></trkpt><trkpt lat="42.461488090007634" lon="-8.125111135353329"><ele>555.0</ele><time>2026-04-16T14:42:33Z</time></trkpt><trkpt lat="42.46144632736853" lon="-8.12522557798146"><ele>555.0</ele><time>2026-04-16T14:42:34Z</time></trkpt><trkpt lat="42.46139345766816" lon="-8.125314467902149"><ele>554.2</ele><time>2026-04-16T14:42:35Z</time></trkpt><trkpt lat="42.46129909754316" lon="-8.12537524894904"><ele>553.4</ele><time>2026-04-16T14:42:36Z</time></trkpt><trkpt lat="42.46120034871159" lon="-8.125361880383538"><ele>552.6</ele><time>2026-04-16T14:42:37Z</time></trkpt><trkpt lat="42.461102544192954" lon="-8.125346003034386"><ele>551.8</ele><time>2026-04-16T14:42:38Z</time></trkpt><trkpt lat="42.46099560051441" lon="-8.12531805344037"><ele>551.0</ele><time>2026-04-16T14:42:39Z</time></trkpt><trkpt lat="42.46088517071832" lon="-8.125306069967792"><ele>551.0</ele><time>2026-04-16T14:42:40Z</time></trkpt><trkpt lat="42.46077125505453" lon="-8.125251657558513"><ele>551.0</ele><time>2026-04-16T14:42:41Z</time></trkpt><trkpt lat="42.46066130319272" lon="-8.125226807208811"><ele>551.0</ele><time>2026-04-16T14:42:42Z</time></trkpt><trkpt lat="42.460568507270736" lon="-8.125190910330765"><ele>551.0</ele><time>2026-04-16T14:42:43Z</time></trkpt><trkpt lat="42.4604790815836" lon="-8.125176605864008"><ele>551.0</ele><time>2026-04-16T14:42:44Z</time></trkpt><trkpt lat="42.46036237132781" lon="-8.12515231662219"><ele>551.6</ele><time>2026-04-16T14:42:45Z</time></trkpt><trkpt lat="42.4602494055361" lon="-8.125143445155405"><ele>552.2</ele><time>2026-04-16T14:42:46Z</time></trkpt><trkpt lat="42.46014829315675" lon="-8.1251443492093"><ele>552.8</ele><time>2026-04-16T14:42:47Z</time></trkpt><trkpt lat="42.46005255328071" lon="-8.125146059295504"><ele>553.4</ele><time>2026-04-16T14:42:48Z</time></trkpt><trkpt lat="42.45996356750319" lon="-8.125150511396878"><ele>554.0</ele><time>2026-04-16T14:42:49Z</time></trkpt><trkpt lat="42.45986837687834" lon="-8.12515520818725"><ele>554.0</ele><time>2026-04-16T14:42:50Z</time></trkpt><trkpt lat="42.45977415266485" lon="-8.125158341539674"><ele>554.0</ele><time>2026-04-16T14:42:51Z</time></trkpt><trkpt lat="42.45966276993875" lon="-8.125164538437962"><ele>554.0</ele><time>2026-04-16T14:42:52Z</time></trkpt><trkpt lat="42.459575818130425" lon="-8.125176208762943"><ele>554.0</ele><time>2026-04-16T14:42:53Z</time></trkpt><trkpt lat="42.459486771203075" lon="-8.125227100098785"><ele>554.0</ele><time>2026-04-16T14:42:54Z</time></trkpt><trkpt lat="42.45939989669919" lon="-8.125273012001808"><ele>554.0</ele><time>2026-04-16T14:42:55Z</time></trkpt><trkpt lat="42.45930618615173" lon="-8.125309686919737"><ele>554.0</ele><time>2026-04-16T14:42:56Z</time></trkpt><trkpt lat="42.45921808872155" lon="-8.125370782596534"><ele>554.0</ele><time>2026-04-16T14:42:57Z</time></trkpt><trkpt lat="42.45913493760396" lon="-8.125406923333054"><ele>554.0</ele><time>2026-04-16T14:42:58Z</time></trkpt><trkpt lat="42.45905407334885" lon="-8.125463774150774"><ele>554.0</ele><time>2026-04-16T14:42:59Z</time></trkpt><trkpt lat="42.458959755953806" lon="-8.125521622401095"><ele>554.0</ele><time>2026-04-16T14:43:00Z</time></trkpt><trkpt lat="42.45887994622115" lon="-8.125591028120132"><ele>554.0</ele><time>2026-04-16T14:43:01Z</time></trkpt><trkpt lat="42.45879825153215" lon="-8.125656766900757"><ele>554.0</ele><time>2026-04-16T14:43:02Z</time></trkpt><trkpt lat="42.458718227005136" lon="-8.125738395057889"><ele>554.0</ele><time>2026-04-16T14:43:03Z</time></trkpt><trkpt lat="42.458642648805935" lon="-8.125812650644242"><ele>554.0</ele><time>2026-04-16T14:43:04Z</time></trkpt><trkpt lat="42.4585866044239" lon="-8.125893765505895"><ele>555.3333333333333</ele><time>2026-04-16T14:43:05Z</time></trkpt><trkpt lat="42.45850506089414" lon="-8.12595336267811"><ele>556.6666666666666</ele><time>2026-04-16T14:43:06Z</time></trkpt><trkpt lat="42.45842938513714" lon="-8.126038182064757"><ele>558.0</ele><time>2026-04-16T14:43:07Z</time></trkpt><trkpt lat="42.45835870285779" lon="-8.126110080638764"><ele>559.3333333333334</ele><time>2026-04-16T14:43:08Z</time></trkpt><trkpt lat="42.45828588369952" lon="-8.126163889919344"><ele>560.6666666666667</ele><time>2026-04-16T14:43:09Z</time></trkpt><trkpt lat="42.45822208220163" lon="-8.126243103581329"><ele>562.0</ele><time>2026-04-16T14:43:10Z</time></trkpt><trkpt lat="42.458153188260226" lon="-8.126300611515523"><ele>562.0</ele><time>2026-04-16T14:43:11Z</time></trkpt><trkpt lat="42.45808530957929" lon="-8.126343319648695"><ele>562.0</ele><time>2026-04-16T14:43:12Z</time></trkpt><trkpt lat="42.458016733023086" lon="-8.126386727594468"><ele>562.0</ele><time>2026-04-16T14:43:13Z</time></trkpt><trkpt lat="42.457939275071794" lon="-8.126413624122428"><ele>562.0</ele><time>2026-04-16T14:43:14Z</time></trkpt><trkpt lat="42.457843817553794" lon="-8.126425210261667"><ele>562.0</ele><time>2026-04-16T14:43:15Z</time></trkpt><trkpt lat="42.457759178638234" lon="-8.126443285640935"><ele>562.0</ele><time>2026-04-16T14:43:16Z</time></trkpt><trkpt lat="42.45765984860965" lon="-8.12646717082461"><ele>561.8000000000001</ele><time>2026-04-16T14:43:17Z</time></trkpt><trkpt lat="42.457566410363896" lon="-8.126477319933207"><ele>561.6</ele><time>2026-04-16T14:43:18Z</time></trkpt><trkpt lat="42.4574768323947" lon="-8.126493124466876"><ele>561.4000000000001</ele><time>2026-04-16T14:43:19Z</time></trkpt><trkpt lat="42.45738238604967" lon="-8.126516457658221"><ele>561.2</ele><time>2026-04-16T14:43:20Z</time></trkpt><trkpt lat="42.457288781457265" lon="-8.126539447913073"><ele>561.0</ele><time>2026-04-16T14:43:21Z</time></trkpt><trkpt lat="42.45719441759189" lon="-8.1265814850565"><ele>560.2</ele><time>2026-04-16T14:43:22Z</time></trkpt><trkpt lat="42.45709650938448" lon="-8.126628269272935"><ele>559.4000000000001</ele><time>2026-04-16T14:43:23Z</time></trkpt><trkpt lat="42.457013093228774" lon="-8.126693359234316"><ele>558.6</ele><time>2026-04-16T14:43:24Z</time></trkpt><trkpt lat="42.456916553627885" lon="-8.126744677030558"><ele>557.8000000000001</ele><time>2026-04-16T14:43:25Z</time></trkpt><trkpt lat="42.45682466397039" lon="-8.126799945369504"><ele>557.0</ele><time>2026-04-16T14:43:26Z</time></trkpt><trkpt lat="42.45672586686633" lon="-8.126841096150555"><ele>557.0</ele><time>2026-04-16T14:43:27Z</time></trkpt><trkpt lat="42.45662102723136" lon="-8.126894789192635"><ele>557.0</ele><time>2026-04-16T14:43:28Z</time></trkpt><trkpt lat="42.45653699430726" lon="-8.126943480929839"><ele>557.0</ele><time>2026-04-16T14:43:29Z</time></trkpt><trkpt lat="42.456441424186416" lon="-8.126980740769053"><ele>557.0</ele><time>2026-04-16T14:43:30Z</time></trkpt><trkpt lat="42.456334170919334" lon="-8.126994856302552"><ele>557.0</ele><time>2026-04-16T14:43:31Z</time></trkpt><trkpt lat="42.4562297879222" lon="-8.127007332481945"><ele>556.2</ele><time>2026-04-16T14:43:32Z</time></trkpt><trkpt lat="42.456136703254465" lon="-8.127010244945247"><ele>555.4000000000001</ele><time>2026-04-16T14:43:33Z</time></trkpt><trkpt lat="42.45603445370735" lon="-8.12702786570585"><ele>554.5999999999999</ele><time>2026-04-16T14:43:34Z</time></trkpt><trkpt lat="42.45593594374981" lon="-8.127018183626346"><ele>553.8</ele><time>2026-04-16T14:43:35Z</time></trkpt><trkpt lat="42.455837874527056" lon="-8.12701218278839"><ele>553.0</ele><time>2026-04-16T14:43:36Z</time></trkpt><trkpt lat="42.455723629248446" lon="-8.127036367376485"><ele>553.0</ele><time>2026-04-16T14:43:37Z</time></trkpt><trkpt lat="42.455604979563496" lon="-8.127032639200461"><ele>553.0</ele><time>2026-04-16T14:43:38Z</time></trkpt><trkpt lat="42.455494972069296" lon="-8.127041658178445"><ele>553.0</ele><time>2026-04-16T14:43:39Z</time></trkpt><trkpt lat="42.455376855204484" lon="-8.127035573814096"><ele>553.0</ele><time>2026-04-16T14:43:40Z</time></trkpt><trkpt lat="42.455263343740135" lon="-8.127045227381323"><ele>552.5</ele><time>2026-04-16T14:43:41Z</time></trkpt><trkpt lat="42.4551557148265" lon="-8.127061495285057"><ele>552.0</ele><time>2026-04-16T14:43:42Z</time></trkpt><trkpt lat="42.45503302480978" lon="-8.127061299525835"><ele>551.5</ele><time>2026-04-16T14:43:43Z</time></trkpt><trkpt lat="42.45491966907111" lon="-8.127042894768291"><ele>551.0</ele><time>2026-04-16T14:43:44Z</time></trkpt><trkpt lat="42.45480138080279" lon="-8.127036685232428"><ele>551.0</ele><time>2026-04-16T14:43:45Z</time></trkpt><trkpt lat="42.45469504820388" lon="-8.127056670174067"><ele>551.0</ele><time>2026-04-16T14:43:46Z</time></trkpt><trkpt lat="42.45459632491084" lon="-8.127054778934953"><ele>551.0</ele><time>2026-04-16T14:43:47Z</time></trkpt><trkpt lat="42.454486587365636" lon="-8.127053789602794"><ele>551.0</ele><time>2026-04-16T14:43:48Z</time></trkpt><trkpt lat="42.45438648553481" lon="-8.127054688093517"><ele>551.0</ele><time>2026-04-16T14:43:49Z</time></trkpt><trkpt lat="42.454282463336256" lon="-8.127041833604807"><ele>550.2</ele><time>2026-04-16T14:43:50Z</time></trkpt><trkpt lat="42.454177360331805" lon="-8.127068291414952"><ele>549.4000000000001</ele><time>2026-04-16T14:43:51Z</time></trkpt><trkpt lat="42.45407260141628" lon="-8.127106149629496"><ele>548.6</ele><time>2026-04-16T14:43:52Z</time></trkpt><trkpt lat="42.45396669157872" lon="-8.127139374140677"><ele>547.8000000000001</ele><time>2026-04-16T14:43:53Z</time></trkpt><trkpt lat="42.453860459968695" lon="-8.127167164171347"><ele>547.0</ele><time>2026-04-16T14:43:54Z</time></trkpt><trkpt lat="42.45375170928887" lon="-8.127197046606495"><ele>546.2</ele><time>2026-04-16T14:43:55Z</time></trkpt><trkpt lat="42.4536501718203" lon="-8.127233048569153"><ele>545.4000000000001</ele><time>2026-04-16T14:43:56Z</time></trkpt><trkpt lat="42.45356568534195" lon="-8.127258889070882"><ele>544.5999999999999</ele><time>2026-04-16T14:43:57Z</time></trkpt><trkpt lat="42.453472794198575" lon="-8.127283506219152"><ele>543.8</ele><time>2026-04-16T14:43:58Z</time></trkpt><trkpt lat="42.453373640257226" lon="-8.127314943822872"><ele>543.0</ele><time>2026-04-16T14:43:59Z</time></trkpt><trkpt lat="42.45327910312135" lon="-8.12734760720127"><ele>543.0</ele><time>2026-04-16T14:44:00Z</time></trkpt><trkpt lat="42.45320319714605" lon="-8.127370143033271"><ele>543.0</ele><time>2026-04-16T14:44:01Z</time></trkpt><trkpt lat="42.453135523041205" lon="-8.127392362043595"><ele>543.0</ele><time>2026-04-16T14:44:02Z</time></trkpt><trkpt lat="42.45306062441049" lon="-8.127446539286382"><ele>543.0</ele><time>2026-04-16T14:44:04Z</time></trkpt><trkpt lat="42.452966098879166" lon="-8.127510872085665"><ele>543.0</ele><time>2026-04-16T14:44:07Z</time></trkpt><trkpt lat="42.452876429087475" lon="-8.127407338145765"><ele>541.6</ele><time>2026-04-16T14:44:08Z</time></trkpt><trkpt lat="42.45279986119423" lon="-8.127350410979881"><ele>540.1999999999999</ele><time>2026-04-16T14:44:09Z</time></trkpt><trkpt lat="42.452705503057565" lon="-8.127304047903639"><ele>538.8</ele><time>2026-04-16T14:44:10Z</time></trkpt><trkpt lat="42.452618357853616" lon="-8.127219022152762"><ele>537.4</ele><time>2026-04-16T14:44:11Z</time></trkpt><trkpt lat="42.452521275435736" lon="-8.127163768161576"><ele>536.0</ele><time>2026-04-16T14:44:12Z</time></trkpt><trkpt lat="42.45242044914806" lon="-8.127082368156373"><ele>536.0</ele><time>2026-04-16T14:44:13Z</time></trkpt><trkpt lat="42.45233161559787" lon="-8.127018031501462"><ele>536.0</ele><time>2026-04-16T14:44:14Z</time></trkpt><trkpt lat="42.45222519186147" lon="-8.126938206687056"><ele>536.0</ele><time>2026-04-16T14:44:15Z</time></trkpt><trkpt lat="42.45211983412208" lon="-8.126869536095848"><ele>536.0</ele><time>2026-04-16T14:44:16Z</time></trkpt><trkpt lat="42.45202473785677" lon="-8.126797247631368"><ele>536.0</ele><time>2026-04-16T14:44:17Z</time></trkpt><trkpt lat="42.45192163310521" lon="-8.126725005877281"><ele>535.2</ele><time>2026-04-16T14:44:18Z</time></trkpt><trkpt lat="42.45182573692172" lon="-8.126647130201823"><ele>534.4000000000001</ele><time>2026-04-16T14:44:19Z</time></trkpt><trkpt lat="42.45172914888826" lon="-8.12658353459989"><ele>533.6</ele><time>2026-04-16T14:44:20Z</time></trkpt><trkpt lat="42.451622981436365" lon="-8.126510571171735"><ele>532.8000000000001</ele><time>2026-04-16T14:44:21Z</time></trkpt><trkpt lat="42.45152608958277" lon="-8.126443963666514"><ele>532.0</ele><time>2026-04-16T14:44:22Z</time></trkpt><trkpt lat="42.45142000082271" lon="-8.126372566477073"><ele>532.0</ele><time>2026-04-16T14:44:23Z</time></trkpt><trkpt lat="42.45131922160626" lon="-8.126287844526685"><ele>532.0</ele><time>2026-04-16T14:44:24Z</time></trkpt><trkpt lat="42.451227686528505" lon="-8.12624432720625"><ele>532.0</ele><time>2026-04-16T14:44:25Z</time></trkpt><trkpt lat="42.4511297012598" lon="-8.126168502818773"><ele>532.0</ele><time>2026-04-16T14:44:26Z</time></trkpt><trkpt lat="42.45101824288792" lon="-8.126090228322864"><ele>531.2</ele><time>2026-04-16T14:44:27Z</time></trkpt><trkpt lat="42.4509214532744" lon="-8.126030767684957"><ele>530.4000000000001</ele><time>2026-04-16T14:44:28Z</time></trkpt><trkpt lat="42.450822737535596" lon="-8.125942159529984"><ele>529.5999999999999</ele><time>2026-04-16T14:44:29Z</time></trkpt><trkpt lat="42.450731099866985" lon="-8.125871853427734"><ele>528.8</ele><time>2026-04-16T14:44:30Z</time></trkpt><trkpt lat="42.45063437289781" lon="-8.12579071536444"><ele>528.0</ele><time>2026-04-16T14:44:30.999Z</time></trkpt><trkpt lat="42.45053303590513" lon="-8.125722841760016"><ele>527.0</ele><time>2026-04-16T14:44:31.999Z</time></trkpt><trkpt lat="42.45042858431084" lon="-8.125657507465535"><ele>526.0</ele><time>2026-04-16T14:44:32.999Z</time></trkpt><trkpt lat="42.45031213149584" lon="-8.125588655294063"><ele>525.0</ele><time>2026-04-16T14:44:33.999Z</time></trkpt><trkpt lat="42.4502092759829" lon="-8.125508477854819"><ele>524.0</ele><time>2026-04-16T14:44:34.999Z</time></trkpt><trkpt lat="42.45011436814223" lon="-8.125426284465624"><ele>524.0</ele><time>2026-04-16T14:44:36Z</time></trkpt><trkpt lat="42.45002024188318" lon="-8.125354343198238"><ele>524.0</ele><time>2026-04-16T14:44:37Z</time></trkpt><trkpt lat="42.449918334467725" lon="-8.12528258257666"><ele>524.0</ele><time>2026-04-16T14:44:38Z</time></trkpt><trkpt lat="42.4498446256073" lon="-8.125206892253852"><ele>524.0</ele><time>2026-04-16T14:44:39Z</time></trkpt><trkpt lat="42.449766785431784" lon="-8.125132874161812"><ele>524.0</ele><time>2026-04-16T14:44:40Z</time></trkpt><trkpt lat="42.44967264933253" lon="-8.125059706231193"><ele>523.8</ele><time>2026-04-16T14:44:41Z</time></trkpt><trkpt lat="42.4495754204601" lon="-8.124983112099292"><ele>523.5999999999999</ele><time>2026-04-16T14:44:42Z</time></trkpt><trkpt lat="42.44949341222422" lon="-8.124900835863833"><ele>523.4</ele><time>2026-04-16T14:44:43Z</time></trkpt><trkpt lat="42.44939901009219" lon="-8.124824936272924"><ele>523.1999999999999</ele><time>2026-04-16T14:44:44Z</time></trkpt><trkpt lat="42.44929562440668" lon="-8.124746971185486"><ele>523.0</ele><time>2026-04-16T14:44:45Z</time></trkpt><trkpt lat="42.44919032241426" lon="-8.12467662092479"><ele>521.5</ele><time>2026-04-16T14:44:46Z</time></trkpt><trkpt lat="42.44909724887632" lon="-8.124593074777668"><ele>520.0</ele><time>2026-04-16T14:44:47Z</time></trkpt><trkpt lat="42.449006242700435" lon="-8.124524977783507"><ele>518.5</ele><time>2026-04-16T14:44:48Z</time></trkpt><trkpt lat="42.448898814071626" lon="-8.124444066236789"><ele>517.0</ele><time>2026-04-16T14:44:49Z</time></trkpt><trkpt lat="42.448790841668405" lon="-8.124368747732598"><ele>517.0</ele><time>2026-04-16T14:44:50Z</time></trkpt><trkpt lat="42.44868318482643" lon="-8.124296758770742"><ele>517.0</ele><time>2026-04-16T14:44:51Z</time></trkpt><trkpt lat="42.4485800434359" lon="-8.124220296325944"><ele>517.0</ele><time>2026-04-16T14:44:52Z</time></trkpt><trkpt lat="42.448479013513726" lon="-8.124145399160993"><ele>517.0</ele><time>2026-04-16T14:44:53Z</time></trkpt><trkpt lat="42.44836813618373" lon="-8.12406320172275"><ele>516.25</ele><time>2026-04-16T14:44:54Z</time></trkpt><trkpt lat="42.44826584371887" lon="-8.123984352806842"><ele>515.5</ele><time>2026-04-16T14:44:55Z</time></trkpt><trkpt lat="42.44816117600329" lon="-8.12389329945612"><ele>514.75</ele><time>2026-04-16T14:44:56Z</time></trkpt><trkpt lat="42.448053215359145" lon="-8.123819612824992"><ele>514.0</ele><time>2026-04-16T14:44:57Z</time></trkpt><trkpt lat="42.447958710203224" lon="-8.123738918955342"><ele>514.0</ele><time>2026-04-16T14:44:58Z</time></trkpt><trkpt lat="42.447863665473825" lon="-8.123657532923234"><ele>514.0</ele><time>2026-04-16T14:44:59Z</time></trkpt><trkpt lat="42.44777115645741" lon="-8.123578473192241"><ele>514.0</ele><time>2026-04-16T14:45:00Z</time></trkpt><trkpt lat="42.447684087467415" lon="-8.123516562832542"><ele>514.0</ele><time>2026-04-16T14:45:01Z</time></trkpt><trkpt lat="42.44759300717768" lon="-8.12344527587506"><ele>514.0</ele><time>2026-04-16T14:45:02Z</time></trkpt><trkpt lat="42.447502571984955" lon="-8.123377855388974"><ele>514.0</ele><time>2026-04-16T14:45:03Z</time></trkpt><trkpt lat="42.447412378427565" lon="-8.123298893826634"><ele>514.0</ele><time>2026-04-16T14:45:04Z</time></trkpt><trkpt lat="42.4473429876365" lon="-8.123221386032826"><ele>514.0</ele><time>2026-04-16T14:45:05Z</time></trkpt><trkpt lat="42.44727095025005" lon="-8.123137024583338"><ele>514.0</ele><time>2026-04-16T14:45:06Z</time></trkpt><trkpt lat="42.447212142572766" lon="-8.123042597511631"><ele>514.0</ele><time>2026-04-16T14:45:07Z</time></trkpt><trkpt lat="42.447163897520625" lon="-8.122977592562103"><ele>514.2</ele><time>2026-04-16T14:45:08Z</time></trkpt><trkpt lat="42.447107984796794" lon="-8.122848564590509"><ele>514.4</ele><time>2026-04-16T14:45:09Z</time></trkpt><trkpt lat="42.4470634479637" lon="-8.12271707082591"><ele>514.6</ele><time>2026-04-16T14:45:10Z</time></trkpt><trkpt lat="42.44702180416731" lon="-8.122572570870291"><ele>514.8</ele><time>2026-04-16T14:45:11Z</time></trkpt><trkpt lat="42.44698275181229" lon="-8.122438141573374"><ele>515.0</ele><time>2026-04-16T14:45:12Z</time></trkpt><trkpt lat="42.446941845905926" lon="-8.12230142485349"><ele>514.0</ele><time>2026-04-16T14:45:13Z</time></trkpt><trkpt lat="42.44689970847972" lon="-8.122160592402905"><ele>513.0</ele><time>2026-04-16T14:45:14Z</time></trkpt><trkpt lat="42.44686064425285" lon="-8.122030031321014"><ele>512.0</ele><time>2026-04-16T14:45:15Z</time></trkpt><trkpt lat="42.44683095722074" lon="-8.12189586208312"><ele>511.0</ele><time>2026-04-16T14:45:16Z</time></trkpt><trkpt lat="42.44679861817644" lon="-8.121773688176004"><ele>510.0</ele><time>2026-04-16T14:45:17Z</time></trkpt><trkpt lat="42.44675409862589" lon="-8.121660901681471"><ele>508.2</ele><time>2026-04-16T14:45:18Z</time></trkpt><trkpt lat="42.446715687969885" lon="-8.121549518432818"><ele>506.4</ele><time>2026-04-16T14:45:19Z</time></trkpt><trkpt lat="42.446678230342314" lon="-8.121438987112258"><ele>504.6</ele><time>2026-04-16T14:45:20Z</time></trkpt><trkpt lat="42.446622894402545" lon="-8.121333069789904"><ele>502.8</ele><time>2026-04-16T14:45:21Z</time></trkpt><trkpt lat="42.44653620739323" lon="-8.121267984493407"><ele>501.0</ele><time>2026-04-16T14:45:22Z</time></trkpt><trkpt lat="42.44645338575719" lon="-8.121186408276015"><ele>501.0</ele><time>2026-04-16T14:45:23Z</time></trkpt><trkpt lat="42.44637108698777" lon="-8.121091898776033"><ele>501.0</ele><time>2026-04-16T14:45:24Z</time></trkpt><trkpt lat="42.446278241164705" lon="-8.12102431480131"><ele>501.0</ele><time>2026-04-16T14:45:25Z</time></trkpt><trkpt lat="42.44619658925665" lon="-8.120952153976098"><ele>501.0</ele><time>2026-04-16T14:45:26Z</time></trkpt><trkpt lat="42.44611214692427" lon="-8.120874084079183"><ele>501.0</ele><time>2026-04-16T14:45:27Z</time></trkpt><trkpt lat="42.4460199540815" lon="-8.120811420042577"><ele>498.8</ele><time>2026-04-16T14:45:28Z</time></trkpt><trkpt lat="42.44593524393688" lon="-8.120729781957758"><ele>496.6</ele><time>2026-04-16T14:45:29Z</time></trkpt><trkpt lat="42.445847264686456" lon="-8.120652370647012"><ele>494.4</ele><time>2026-04-16T14:45:30Z</time></trkpt><trkpt lat="42.445755053230755" lon="-8.120576935947787"><ele>492.2</ele><time>2026-04-16T14:45:31Z</time></trkpt><trkpt lat="42.445661578210164" lon="-8.120505603034834"><ele>490.0</ele><time>2026-04-16T14:45:32Z</time></trkpt><trkpt lat="42.44556878655784" lon="-8.120435610619213"><ele>490.0</ele><time>2026-04-16T14:45:33Z</time></trkpt><trkpt lat="42.44546454075663" lon="-8.120420251587399"><ele>490.0</ele><time>2026-04-16T14:45:34Z</time></trkpt><trkpt lat="42.44535785419442" lon="-8.120398909039883"><ele>490.0</ele><time>2026-04-16T14:45:35Z</time></trkpt><trkpt lat="42.445258039081445" lon="-8.120361669132262"><ele>490.0</ele><time>2026-04-16T14:45:36Z</time></trkpt><trkpt lat="42.44515685225119" lon="-8.120325763034508"><ele>490.0</ele><time>2026-04-16T14:45:37Z</time></trkpt><trkpt lat="42.44505897441089" lon="-8.120244429151837"><ele>490.2</ele><time>2026-04-16T14:45:38Z</time></trkpt><trkpt lat="42.44499272749762" lon="-8.120139080711231"><ele>490.4</ele><time>2026-04-16T14:45:39Z</time></trkpt><trkpt lat="42.444929204924456" lon="-8.120021190722461"><ele>490.6</ele><time>2026-04-16T14:45:40Z</time></trkpt><trkpt lat="42.44485856239476" lon="-8.11991336428294"><ele>490.8</ele><time>2026-04-16T14:45:41Z</time></trkpt><trkpt lat="42.44476825321582" lon="-8.119855284510274"><ele>491.0</ele><time>2026-04-16T14:45:42Z</time></trkpt><trkpt lat="42.44468193219573" lon="-8.119783628207173"><ele>489.8</ele><time>2026-04-16T14:45:43Z</time></trkpt><trkpt lat="42.44459624835077" lon="-8.11969949827103"><ele>488.6</ele><time>2026-04-16T14:45:44Z</time></trkpt><trkpt lat="42.44450973442075" lon="-8.119624714755679"><ele>487.4</ele><time>2026-04-16T14:45:45Z</time></trkpt><trkpt lat="42.444429550802006" lon="-8.119533955858481"><ele>486.2</ele><time>2026-04-16T14:45:46Z</time></trkpt><trkpt lat="42.444356173931304" lon="-8.119429561881434"><ele>485.0</ele><time>2026-04-16T14:45:47Z</time></trkpt><trkpt lat="42.44428922057785" lon="-8.119313930056697"><ele>485.0</ele><time>2026-04-16T14:45:48Z</time></trkpt><trkpt lat="42.4442402192241" lon="-8.119179392769992"><ele>485.0</ele><time>2026-04-16T14:45:49Z</time></trkpt><trkpt lat="42.444205144909844" lon="-8.11904151427024"><ele>485.0</ele><time>2026-04-16T14:45:50Z</time></trkpt><trkpt lat="42.44416323350761" lon="-8.118905688477573"><ele>485.0</ele><time>2026-04-16T14:45:51Z</time></trkpt><trkpt lat="42.4441148637696" lon="-8.1187742578399"><ele>485.0</ele><time>2026-04-16T14:45:52Z</time></trkpt><trkpt lat="42.44408086894368" lon="-8.118638253118876"><ele>483.6</ele><time>2026-04-16T14:45:53Z</time></trkpt><trkpt lat="42.44403706893019" lon="-8.118503747818458"><ele>482.2</ele><time>2026-04-16T14:45:54Z</time></trkpt><trkpt lat="42.44399038701701" lon="-8.11837341775554"><ele>480.79999999999995</ele><time>2026-04-16T14:45:55Z</time></trkpt><trkpt lat="42.44391719672845" lon="-8.118264713304086"><ele>479.4</ele><time>2026-04-16T14:45:56Z</time></trkpt><trkpt lat="42.44384196950258" lon="-8.118164406002514"><ele>478.0</ele><time>2026-04-16T14:45:57Z</time></trkpt><trkpt lat="42.443763336699746" lon="-8.118070804450044"><ele>477.2</ele><time>2026-04-16T14:45:58Z</time></trkpt><trkpt lat="42.44368587398221" lon="-8.117966709732144"><ele>476.4</ele><time>2026-04-16T14:45:59Z</time></trkpt><trkpt lat="42.44360167596733" lon="-8.117873368940792"><ele>475.59999999999997</ele><time>2026-04-16T14:46:00Z</time></trkpt><trkpt lat="42.44351796751836" lon="-8.11778296537741"><ele>474.79999999999995</ele><time>2026-04-16T14:46:01Z</time></trkpt><trkpt lat="42.44343293760194" lon="-8.117700401925823"><ele>474.0</ele><time>2026-04-16T14:46:02Z</time></trkpt><trkpt lat="42.44334907490271" lon="-8.117617678921405"><ele>474.0</ele><time>2026-04-16T14:46:03Z</time></trkpt><trkpt lat="42.4432753241843" lon="-8.117538562902062"><ele>474.0</ele><time>2026-04-16T14:46:04Z</time></trkpt><trkpt lat="42.443200209177256" lon="-8.117446094588535"><ele>474.0</ele><time>2026-04-16T14:46:05Z</time></trkpt><trkpt lat="42.443125935323785" lon="-8.117366992762387"><ele>474.0</ele><time>2026-04-16T14:46:06Z</time></trkpt><trkpt lat="42.44305173522737" lon="-8.117290655926183"><ele>474.0</ele><time>2026-04-16T14:46:07Z</time></trkpt><trkpt lat="42.442977563712056" lon="-8.117211550532913"><ele>474.1666666666667</ele><time>2026-04-16T14:46:08Z</time></trkpt><trkpt lat="42.44291093795287" lon="-8.117140678133264"><ele>474.33333333333337</ele><time>2026-04-16T14:46:09Z</time></trkpt><trkpt lat="42.44284098519761" lon="-8.117062227468523"><ele>474.5</ele><time>2026-04-16T14:46:10Z</time></trkpt><trkpt lat="42.4427769551294" lon="-8.116982647386884"><ele>474.6666666666667</ele><time>2026-04-16T14:46:11Z</time></trkpt><trkpt lat="42.442715490607846" lon="-8.11690101090145"><ele>474.83333333333337</ele><time>2026-04-16T14:46:12Z</time></trkpt><trkpt lat="42.44266062809517" lon="-8.116821795775857"><ele>475.0</ele><time>2026-04-16T14:46:13Z</time></trkpt><trkpt lat="42.442611363981776" lon="-8.11674367741197"><ele>475.00000000000006</ele><time>2026-04-16T14:46:14Z</time></trkpt><trkpt lat="42.442592308713905" lon="-8.116593932796524"><ele>475.0</ele><time>2026-04-16T14:46:16Z</time></trkpt><trkpt lat="42.44257815411243" lon="-8.11648642239064"><ele>475.0</ele><time>2026-04-16T14:46:18Z</time></trkpt><trkpt lat="42.44257505463618" lon="-8.116386257945093"><ele>475.0</ele><time>2026-04-16T14:46:21Z</time></trkpt><trkpt lat="42.44256002505794" lon="-8.116271689388658"><ele>475.00000000000006</ele><time>2026-04-16T14:46:23Z</time></trkpt><trkpt lat="42.44255282888693" lon="-8.116185342910983"><ele>475.0</ele><time>2026-04-16T14:46:24Z</time></trkpt><trkpt lat="42.442529726455234" lon="-8.116093006834193"><ele>475.4</ele><time>2026-04-16T14:46:25Z</time></trkpt><trkpt lat="42.44253159575528" lon="-8.115979062749084"><ele>475.8</ele><time>2026-04-16T14:46:25.999Z</time></trkpt><trkpt lat="42.44251348913803" lon="-8.115861930502524"><ele>476.20000000000005</ele><time>2026-04-16T14:46:26.999Z</time></trkpt><trkpt lat="42.44249255558767" lon="-8.115743657870551"><ele>476.6</ele><time>2026-04-16T14:46:27.999Z</time></trkpt><trkpt lat="42.44247340307548" lon="-8.115605731728975"><ele>477.0</ele><time>2026-04-16T14:46:28.999Z</time></trkpt><trkpt lat="42.44245541389538" lon="-8.115471554920713"><ele>477.0</ele><time>2026-04-16T14:46:29.999Z</time></trkpt><trkpt lat="42.442431062307236" lon="-8.115327171585683"><ele>477.00000000000006</ele><time>2026-04-16T14:46:30.999Z</time></trkpt><trkpt lat="42.44240586066111" lon="-8.115180957240902"><ele>477.00000000000006</ele><time>2026-04-16T14:46:31.999Z</time></trkpt><trkpt lat="42.44236167372752" lon="-8.115042141045834"><ele>477.0</ele><time>2026-04-16T14:46:32.999Z</time></trkpt><trkpt lat="42.44233971866198" lon="-8.114900273519869"><ele>477.0</ele><time>2026-04-16T14:46:33.999Z</time></trkpt><trkpt lat="42.4423085481365" lon="-8.11477703290798"><ele>476.8</ele><time>2026-04-16T14:46:34.999Z</time></trkpt><trkpt lat="42.442270221099584" lon="-8.114660221580131"><ele>476.6</ele><time>2026-04-16T14:46:35.999Z</time></trkpt><trkpt lat="42.44222919497799" lon="-8.114556142013555"><ele>476.40000000000003</ele><time>2026-04-16T14:46:36.999Z</time></trkpt><trkpt lat="42.4421677360169" lon="-8.114480901456163"><ele>476.20000000000005</ele><time>2026-04-16T14:46:37.999Z</time></trkpt><trkpt lat="42.442107296914216" lon="-8.114381583754184"><ele>476.0</ele><time>2026-04-16T14:46:38.999Z</time></trkpt><trkpt lat="42.44203191046267" lon="-8.114308308156287"><ele>475.6</ele><time>2026-04-16T14:46:39.999Z</time></trkpt><trkpt lat="42.44195701981107" lon="-8.114242856641559"><ele>475.20000000000005</ele><time>2026-04-16T14:46:40.999Z</time></trkpt><trkpt lat="42.44187609474389" lon="-8.114179727591164"><ele>474.79999999999995</ele><time>2026-04-16T14:46:42Z</time></trkpt><trkpt lat="42.44179594891317" lon="-8.114119867719369"><ele>474.4</ele><time>2026-04-16T14:46:43Z</time></trkpt><trkpt lat="42.441718995525704" lon="-8.114054376229813"><ele>474.0</ele><time>2026-04-16T14:46:44Z</time></trkpt><trkpt lat="42.441642157412595" lon="-8.113987688980679"><ele>474.0</ele><time>2026-04-16T14:46:45Z</time></trkpt><trkpt lat="42.441569748918525" lon="-8.113919560052283"><ele>474.0</ele><time>2026-04-16T14:46:46Z</time></trkpt><trkpt lat="42.44150018850363" lon="-8.113857186304566"><ele>474.0</ele><time>2026-04-16T14:46:47Z</time></trkpt><trkpt lat="42.441424868295925" lon="-8.113806614373663"><ele>474.0</ele><time>2026-04-16T14:46:48Z</time></trkpt><trkpt lat="42.44135698667372" lon="-8.113742836678236"><ele>474.0</ele><time>2026-04-16T14:46:49Z</time></trkpt><trkpt lat="42.44128985531865" lon="-8.11367991831302"><ele>474.0</ele><time>2026-04-16T14:46:50Z</time></trkpt><trkpt lat="42.44122590042537" lon="-8.113624413016572"><ele>473.3333333333333</ele><time>2026-04-16T14:46:51Z</time></trkpt><trkpt lat="42.44116068101962" lon="-8.1135718341156"><ele>472.66666666666663</ele><time>2026-04-16T14:46:52Z</time></trkpt><trkpt lat="42.44110019774895" lon="-8.113514851155191"><ele>472.0</ele><time>2026-04-16T14:46:53Z</time></trkpt><trkpt lat="42.44104742483836" lon="-8.113449905286"><ele>471.3333333333333</ele><time>2026-04-16T14:46:54Z</time></trkpt><trkpt lat="42.44098585640779" lon="-8.1133841828624"><ele>470.66666666666663</ele><time>2026-04-16T14:46:55Z</time></trkpt><trkpt lat="42.44092853456242" lon="-8.113309259388494"><ele>470.0</ele><time>2026-04-16T14:46:56Z</time></trkpt><trkpt lat="42.44087763859166" lon="-8.113219698743139"><ele>469.49999999999994</ele><time>2026-04-16T14:46:57Z</time></trkpt><trkpt lat="42.44083119542578" lon="-8.113127815808033"><ele>469.0</ele><time>2026-04-16T14:46:58Z</time></trkpt><trkpt lat="42.44078860108209" lon="-8.113044491898386"><ele>468.5</ele><time>2026-04-16T14:46:59Z</time></trkpt><trkpt lat="42.44074352740371" lon="-8.112958087673656"><ele>468.0</ele><time>2026-04-16T14:47:00Z</time></trkpt><trkpt lat="42.440695199136925" lon="-8.112879164614947"><ele>467.49999999999994</ele><time>2026-04-16T14:47:01Z</time></trkpt><trkpt lat="42.440662454103084" lon="-8.112791797077909"><ele>467.0</ele><time>2026-04-16T14:47:02Z</time></trkpt><trkpt lat="42.44062674311472" lon="-8.112704927907028"><ele>466.99999999999994</ele><time>2026-04-16T14:47:03Z</time></trkpt><trkpt lat="42.44059395224436" lon="-8.112622113662004"><ele>467.0</ele><time>2026-04-16T14:47:04Z</time></trkpt><trkpt lat="42.440582697947264" lon="-8.112536414737338"><ele>466.99999999999994</ele><time>2026-04-16T14:47:05Z</time></trkpt><trkpt lat="42.440530858512176" lon="-8.11246601169974"><ele>466.99999999999994</ele><time>2026-04-16T14:47:06Z</time></trkpt><trkpt lat="42.44047218464297" lon="-8.112408850418804"><ele>467.0</ele><time>2026-04-16T14:47:07Z</time></trkpt><trkpt lat="42.44044226495452" lon="-8.1123286744043"><ele>466.99999999999994</ele><time>2026-04-16T14:47:08Z</time></trkpt><trkpt lat="42.44038879542451" lon="-8.112276812053354"><ele>466.99999999999994</ele><time>2026-04-16T14:47:09Z</time></trkpt><trkpt lat="42.44033113467714" lon="-8.112153460667095"><ele>464.8</ele><time>2026-04-16T14:47:11Z</time></trkpt><trkpt lat="42.44026940923983" lon="-8.112047374701133"><ele>462.6</ele><time>2026-04-16T14:47:13Z</time></trkpt><trkpt lat="42.440216833724115" lon="-8.111934140128273"><ele>460.40000000000003</ele><time>2026-04-16T14:47:15Z</time></trkpt><trkpt lat="42.440163966229335" lon="-8.11184157418498"><ele>458.20000000000005</ele><time>2026-04-16T14:47:17Z</time></trkpt><trkpt lat="42.44011164914761" lon="-8.111723278601408"><ele>456.0</ele><time>2026-04-16T14:47:19Z</time></trkpt><trkpt lat="42.44005456934021" lon="-8.11161608849802"><ele>456.3333333333333</ele><time>2026-04-16T14:47:21Z</time></trkpt><trkpt lat="42.44000431234199" lon="-8.111525640356895"><ele>456.66666666666663</ele><time>2026-04-16T14:47:23Z</time></trkpt><trkpt lat="42.43995893186929" lon="-8.111452933781042"><ele>457.0</ele><time>2026-04-16T14:47:26Z</time></trkpt><trkpt lat="42.439894929578195" lon="-8.111371040013363"><ele>457.3333333333333</ele><time>2026-04-16T14:47:29Z</time></trkpt><trkpt lat="42.43984093880887" lon="-8.111286830202001"><ele>457.66666666666663</ele><time>2026-04-16T14:47:31Z</time></trkpt><trkpt lat="42.43978693001155" lon="-8.111179073916336"><ele>458.0</ele><time>2026-04-16T14:47:33Z</time></trkpt><trkpt lat="42.43976508641253" lon="-8.111044813631047"><ele>457.99999999999994</ele><time>2026-04-16T14:47:35Z</time></trkpt><trkpt lat="42.43976304900683" lon="-8.110955061717362"><ele>458.0</ele><time>2026-04-16T14:47:37Z</time></trkpt><trkpt lat="42.439710950009044" lon="-8.110872342874531"><ele>458.0</ele><time>2026-04-16T14:47:39Z</time></trkpt><trkpt lat="42.439657620794094" lon="-8.110793643299553"><ele>458.0</ele><time>2026-04-16T14:47:41Z</time></trkpt><trkpt lat="42.439617579154636" lon="-8.110724138454572"><ele>457.99999999999994</ele><time>2026-04-16T14:47:43Z</time></trkpt><trkpt lat="42.43956082562305" lon="-8.110631422728503"><ele>458.0</ele><time>2026-04-16T14:47:45Z</time></trkpt><trkpt lat="42.43949176729006" lon="-8.110546120237325"><ele>456.4</ele><time>2026-04-16T14:47:47Z</time></trkpt><trkpt lat="42.439421521572314" lon="-8.110446537249446"><ele>454.79999999999995</ele><time>2026-04-16T14:47:49Z</time></trkpt><trkpt lat="42.43940307050808" lon="-8.110294432552148"><ele>453.2</ele><time>2026-04-16T14:47:51Z</time></trkpt><trkpt lat="42.4394251701314" lon="-8.110144417282093"><ele>451.6</ele><time>2026-04-16T14:47:53Z</time></trkpt><trkpt lat="42.43944339328846" lon="-8.110005292005704"><ele>450.0</ele><time>2026-04-16T14:47:55Z</time></trkpt><trkpt lat="42.43947134206481" lon="-8.10987035229533"><ele>449.3333333333333</ele><time>2026-04-16T14:47:57Z</time></trkpt><trkpt lat="42.43950691762304" lon="-8.109750329951137"><ele>448.66666666666663</ele><time>2026-04-16T14:47:59Z</time></trkpt><trkpt lat="42.4395467704715" lon="-8.109638728837025"><ele>448.0</ele><time>2026-04-16T14:48:01Z</time></trkpt><trkpt lat="42.43960207554556" lon="-8.109507179951722"><ele>447.3333333333333</ele><time>2026-04-16T14:48:03Z</time></trkpt><trkpt lat="42.439644239944016" lon="-8.109433992080321"><ele>446.66666666666663</ele><time>2026-04-16T14:48:04Z</time></trkpt><trkpt lat="42.439690557386925" lon="-8.109367641400175"><ele>446.0</ele><time>2026-04-16T14:48:05Z</time></trkpt><trkpt lat="42.43973338673672" lon="-8.10929473852586"><ele>447.16666666666663</ele><time>2026-04-16T14:48:06Z</time></trkpt><trkpt lat="42.43976935363668" lon="-8.10921764824967"><ele>448.3333333333333</ele><time>2026-04-16T14:48:07Z</time></trkpt><trkpt lat="42.43976627732845" lon="-8.109119688497863"><ele>449.5</ele><time>2026-04-16T14:48:08Z</time></trkpt><trkpt lat="42.439771126922984" lon="-8.108974575072503"><ele>450.66666666666663</ele><time>2026-04-16T14:48:10Z</time></trkpt><trkpt lat="42.439790240200246" lon="-8.108876632943158"><ele>451.8333333333333</ele><time>2026-04-16T14:48:11.999Z</time></trkpt><trkpt lat="42.4397356334838" lon="-8.108727163880305"><ele>453.0</ele><time>2026-04-16T14:48:13.999Z</time></trkpt><trkpt lat="42.4397327474206" lon="-8.10861481737159"><ele>453.0</ele><time>2026-04-16T14:48:14.999Z</time></trkpt><trkpt lat="42.43971811060097" lon="-8.108489792288932"><ele>452.99999999999994</ele><time>2026-04-16T14:48:15.999Z</time></trkpt><trkpt lat="42.4397199707737" lon="-8.108367546996355"><ele>452.99999999999994</ele><time>2026-04-16T14:48:16.999Z</time></trkpt><trkpt lat="42.43973751555276" lon="-8.108246460088836"><ele>453.0</ele><time>2026-04-16T14:48:17.999Z</time></trkpt><trkpt lat="42.439761915002606" lon="-8.10812673063434"><ele>453.0</ele><time>2026-04-16T14:48:18.999Z</time></trkpt><trkpt lat="42.4397869143056" lon="-8.10801054996604"><ele>453.0</ele><time>2026-04-16T14:48:19.999Z</time></trkpt><trkpt lat="42.439810992479096" lon="-8.107898213815377"><ele>453.0</ele><time>2026-04-16T14:48:20.999Z</time></trkpt><trkpt lat="42.43981644688354" lon="-8.107775829527075"><ele>453.0</ele><time>2026-04-16T14:48:21.999Z</time></trkpt><trkpt lat="42.43985209148978" lon="-8.1076745479626"><ele>453.0</ele><time>2026-04-16T14:48:22.999Z</time></trkpt><trkpt lat="42.43987978934445" lon="-8.107566330899797"><ele>453.0</ele><time>2026-04-16T14:48:23.999Z</time></trkpt><trkpt lat="42.43991633679302" lon="-8.107470994384984"><ele>453.0</ele><time>2026-04-16T14:48:24.999Z</time></trkpt><trkpt lat="42.43996840130865" lon="-8.107386722606584"><ele>453.0</ele><time>2026-04-16T14:48:25.999Z</time></trkpt><trkpt lat="42.44002402132467" lon="-8.10730150607811"><ele>453.0</ele><time>2026-04-16T14:48:26.999Z</time></trkpt><trkpt lat="42.44007442549728" lon="-8.107209881982792"><ele>453.0</ele><time>2026-04-16T14:48:27.999Z</time></trkpt><trkpt lat="42.44011684539448" lon="-8.107115689841903"><ele>453.0</ele><time>2026-04-16T14:48:28.999Z</time></trkpt><trkpt lat="42.4401404957604" lon="-8.106999197487353"><ele>453.0</ele><time>2026-04-16T14:48:29.999Z</time></trkpt><trkpt lat="42.4401826987064" lon="-8.106900077266364"><ele>453.0</ele><time>2026-04-16T14:48:30.999Z</time></trkpt><trkpt lat="42.44020151024744" lon="-8.106789921160194"><ele>453.0</ele><time>2026-04-16T14:48:31.999Z</time></trkpt><trkpt lat="42.440217485438836" lon="-8.106692459596063"><ele>452.99999999999994</ele><time>2026-04-16T14:48:32.999Z</time></trkpt><trkpt lat="42.44021383765108" lon="-8.106595516366841"><ele>452.99999999999994</ele><time>2026-04-16T14:48:33.999Z</time></trkpt><trkpt lat="42.44020305815319" lon="-8.106435647974534"><ele>453.0</ele><time>2026-04-16T14:48:35.999Z</time></trkpt><trkpt lat="42.440174162887324" lon="-8.106294236094607"><ele>453.0</ele><time>2026-04-16T14:48:37.999Z</time></trkpt><trkpt lat="42.44025635523314" lon="-8.106185446318833"><ele>453.2857142857142</ele><time>2026-04-16T14:48:38.999Z</time></trkpt><trkpt lat="42.44028954458846" lon="-8.106110678358082"><ele>453.57142857142856</ele><time>2026-04-16T14:48:39.999Z</time></trkpt><trkpt lat="42.440319769367335" lon="-8.106034502626674"><ele>453.85714285714283</ele><time>2026-04-16T14:48:40.999Z</time></trkpt><trkpt lat="42.44037050646662" lon="-8.105964203406856"><ele>454.1428571428571</ele><time>2026-04-16T14:48:41.999Z</time></trkpt><trkpt lat="42.440435558188184" lon="-8.105907870733908"><ele>454.42857142857144</ele><time>2026-04-16T14:48:42.999Z</time></trkpt><trkpt lat="42.440513460875664" lon="-8.105874673187966"><ele>454.7142857142857</ele><time>2026-04-16T14:48:43.999Z</time></trkpt><trkpt lat="42.440586726726586" lon="-8.105862827679648"><ele>455.0</ele><time>2026-04-16T14:48:44.999Z</time></trkpt><trkpt lat="42.44065251382282" lon="-8.105853767777573"><ele>455.99999999999994</ele><time>2026-04-16T14:48:45.999Z</time></trkpt><trkpt lat="42.44074276369517" lon="-8.105830871113621"><ele>457.0</ele><time>2026-04-16T14:48:46.999Z</time></trkpt><trkpt lat="42.44082245578772" lon="-8.105807366208518"><ele>458.0</ele><time>2026-04-16T14:48:48Z</time></trkpt><trkpt lat="42.4408924994904" lon="-8.105771909536342"><ele>459.0</ele><time>2026-04-16T14:48:49Z</time></trkpt><trkpt lat="42.440963613326716" lon="-8.105728138719545"><ele>459.99999999999994</ele><time>2026-04-16T14:48:50Z</time></trkpt><trkpt lat="42.441021811878045" lon="-8.105678907407949"><ele>461.0</ele><time>2026-04-16T14:48:51Z</time></trkpt><trkpt lat="42.44108926313027" lon="-8.105617387886511"><ele>461.42857142857144</ele><time>2026-04-16T14:48:52Z</time></trkpt><trkpt lat="42.44114963169017" lon="-8.105569451596946"><ele>461.8571428571429</ele><time>2026-04-16T14:48:53Z</time></trkpt><trkpt lat="42.441217051793586" lon="-8.105518070859727"><ele>462.28571428571433</ele><time>2026-04-16T14:48:54Z</time></trkpt><trkpt lat="42.441282241245034" lon="-8.105491110833942"><ele>462.7142857142858</ele><time>2026-04-16T14:48:55Z</time></trkpt><trkpt lat="42.44135244048601" lon="-8.10547850957738"><ele>463.14285714285717</ele><time>2026-04-16T14:48:56Z</time></trkpt><trkpt lat="42.44143207860913" lon="-8.105481247754495"><ele>463.57142857142867</ele><time>2026-04-16T14:48:57Z</time></trkpt><trkpt lat="42.441507194093745" lon="-8.105491459019255"><ele>464.00000000000006</ele><time>2026-04-16T14:48:58Z</time></trkpt><trkpt lat="42.441579710617304" lon="-8.105482009264193"><ele>464.16666666666663</ele><time>2026-04-16T14:48:59Z</time></trkpt><trkpt lat="42.44165220727717" lon="-8.105452066045876"><ele>464.3333333333333</ele><time>2026-04-16T14:49:00Z</time></trkpt><trkpt lat="42.44172344264928" lon="-8.105410749108529"><ele>464.5</ele><time>2026-04-16T14:49:01Z</time></trkpt><trkpt lat="42.44179437495307" lon="-8.105366204559143"><ele>464.66666666666663</ele><time>2026-04-16T14:49:02Z</time></trkpt><trkpt lat="42.44186357270244" lon="-8.105327760964146"><ele>464.8333333333333</ele><time>2026-04-16T14:49:03Z</time></trkpt><trkpt lat="42.44193696603263" lon="-8.105293900393542"><ele>465.0</ele><time>2026-04-16T14:49:04Z</time></trkpt><trkpt lat="42.44200308564532" lon="-8.105281955540754"><ele>465.0</ele><time>2026-04-16T14:49:05Z</time></trkpt><trkpt lat="42.44207033414613" lon="-8.105276396077883"><ele>465.0</ele><time>2026-04-16T14:49:06Z</time></trkpt><trkpt lat="42.4421333609472" lon="-8.105266954404362"><ele>465.0</ele><time>2026-04-16T14:49:07Z</time></trkpt><trkpt lat="42.44223737154621" lon="-8.105241369376259"><ele>465.0</ele><time>2026-04-16T14:49:09Z</time></trkpt><trkpt lat="42.442302238901426" lon="-8.105225403976"><ele>465.0</ele><time>2026-04-16T14:49:14Z</time></trkpt><trkpt lat="42.44226251932143" lon="-8.105092077510145"><ele>465.0</ele><time>2026-04-16T14:49:19Z</time></trkpt><trkpt lat="42.44220760017939" lon="-8.10497809682916"><ele>465.5</ele><time>2026-04-16T14:49:21Z</time></trkpt><trkpt lat="42.44212398088663" lon="-8.104855542262948"><ele>466.0</ele><time>2026-04-16T14:49:23Z</time></trkpt><trkpt lat="42.442066238280766" lon="-8.104805392626623"><ele>466.5</ele><time>2026-04-16T14:49:24Z</time></trkpt><trkpt lat="42.44199932766079" lon="-8.104766904743514"><ele>467.0</ele><time>2026-04-16T14:49:25Z</time></trkpt><trkpt lat="42.44192562151592" lon="-8.104732435137228"><ele>467.5</ele><time>2026-04-16T14:49:26Z</time></trkpt><trkpt lat="42.44185741915333" lon="-8.104685913125987"><ele>468.0</ele><time>2026-04-16T14:49:27Z</time></trkpt><trkpt lat="42.441788236996686" lon="-8.104632914190713"><ele>468.0</ele><time>2026-04-16T14:49:28Z</time></trkpt><trkpt lat="42.441732948533605" lon="-8.104562012123125"><ele>468.00000000000006</ele><time>2026-04-16T14:49:29Z</time></trkpt><trkpt lat="42.441691019025065" lon="-8.104476407753252"><ele>468.0</ele><time>2026-04-16T14:49:30Z</time></trkpt><trkpt lat="42.44164583397485" lon="-8.104393882321144"><ele>468.0</ele><time>2026-04-16T14:49:31Z</time></trkpt><trkpt lat="42.4416139443051" lon="-8.10430748103838"><ele>468.00000000000006</ele><time>2026-04-16T14:49:32Z</time></trkpt><trkpt lat="42.44158081643334" lon="-8.104233877161809"><ele>468.0</ele><time>2026-04-16T14:49:33Z</time></trkpt><trkpt lat="42.44151635635364" lon="-8.104179291215655"><ele>468.0</ele><time>2026-04-16T14:49:34Z</time></trkpt><trkpt lat="42.4414284926712" lon="-8.104183973635557"><ele>468.0</ele><time>2026-04-16T14:49:35Z</time></trkpt><trkpt lat="42.44135616146852" lon="-8.104195366813645"><ele>468.0</ele><time>2026-04-16T14:49:36Z</time></trkpt><trkpt lat="42.44127669569892" lon="-8.104188442735298"><ele>468.0</ele><time>2026-04-16T14:49:37Z</time></trkpt><trkpt lat="42.44119718592691" lon="-8.10418455804368"><ele>468.0</ele><time>2026-04-16T14:49:38Z</time></trkpt><trkpt lat="42.441115143597635" lon="-8.104184415402122"><ele>468.0</ele><time>2026-04-16T14:49:39Z</time></trkpt><trkpt lat="42.44102407859971" lon="-8.104195656796955"><ele>468.0</ele><time>2026-04-16T14:49:40Z</time></trkpt><trkpt lat="42.440938775282376" lon="-8.104213898213608"><ele>468.59999999999997</ele><time>2026-04-16T14:49:41Z</time></trkpt><trkpt lat="42.44084115967351" lon="-8.10424343009953"><ele>469.19999999999993</ele><time>2026-04-16T14:49:42Z</time></trkpt><trkpt lat="42.440746737065275" lon="-8.104267960195637"><ele>469.8</ele><time>2026-04-16T14:49:43Z</time></trkpt><trkpt lat="42.44065496306749" lon="-8.104283775054846"><ele>470.4</ele><time>2026-04-16T14:49:44Z</time></trkpt><trkpt lat="42.44056944945994" lon="-8.104291638731338"><ele>471.0</ele><time>2026-04-16T14:49:45Z</time></trkpt><trkpt lat="42.44048496247996" lon="-8.10429167551974"><ele>472.8</ele><time>2026-04-16T14:49:46Z</time></trkpt><trkpt lat="42.44039865737068" lon="-8.10428748912574"><ele>474.6</ele><time>2026-04-16T14:49:47Z</time></trkpt><trkpt lat="42.44030709890764" lon="-8.104317404159012"><ele>476.4</ele><time>2026-04-16T14:49:48Z</time></trkpt><trkpt lat="42.44021242955517" lon="-8.104335899989108"><ele>478.2</ele><time>2026-04-16T14:49:49Z</time></trkpt><trkpt lat="42.44011793704659" lon="-8.104344862858111"><ele>480.0</ele><time>2026-04-16T14:49:50Z</time></trkpt><trkpt lat="42.440029500197305" lon="-8.104385993401705"><ele>480.0</ele><time>2026-04-16T14:49:51Z</time></trkpt><trkpt lat="42.439939436899664" lon="-8.104427832191028"><ele>480.0</ele><time>2026-04-16T14:49:52Z</time></trkpt><trkpt lat="42.439845783385834" lon="-8.10444476655299"><ele>480.0</ele><time>2026-04-16T14:49:53Z</time></trkpt><trkpt lat="42.439755882957485" lon="-8.104441104269226"><ele>480.0</ele><time>2026-04-16T14:49:54Z</time></trkpt><trkpt lat="42.43966679975592" lon="-8.104428364013108"><ele>480.0</ele><time>2026-04-16T14:49:55Z</time></trkpt><trkpt lat="42.43957730149675" lon="-8.10441587015648"><ele>480.2</ele><time>2026-04-16T14:49:56Z</time></trkpt><trkpt lat="42.43949055126066" lon="-8.10439777726178"><ele>480.4</ele><time>2026-04-16T14:49:57Z</time></trkpt><trkpt lat="42.439402735902554" lon="-8.104365070237122"><ele>480.6</ele><time>2026-04-16T14:49:58Z</time></trkpt><trkpt lat="42.43931298767617" lon="-8.104325867688996"><ele>480.8</ele><time>2026-04-16T14:49:59Z</time></trkpt><trkpt lat="42.43922216805209" lon="-8.104280542024059"><ele>481.0</ele><time>2026-04-16T14:50:00Z</time></trkpt><trkpt lat="42.43913541312799" lon="-8.104230751244474"><ele>481.00000000000006</ele><time>2026-04-16T14:50:01Z</time></trkpt><trkpt lat="42.43905799508115" lon="-8.104177543051621"><ele>481.0</ele><time>2026-04-16T14:50:02Z</time></trkpt><trkpt lat="42.438989804531744" lon="-8.104113968423821"><ele>481.0</ele><time>2026-04-16T14:50:03Z</time></trkpt><trkpt lat="42.43892383135099" lon="-8.1040511584053"><ele>481.0</ele><time>2026-04-16T14:50:04Z</time></trkpt><trkpt lat="42.43885369482765" lon="-8.103990739083471"><ele>481.00000000000006</ele><time>2026-04-16T14:50:05Z</time></trkpt><trkpt lat="42.438785266247734" lon="-8.103942520648706"><ele>481.0</ele><time>2026-04-16T14:50:06Z</time></trkpt><trkpt lat="42.43870971106148" lon="-8.103912775700291"><ele>481.00000000000006</ele><time>2026-04-16T14:50:07Z</time></trkpt><trkpt lat="42.438633883140234" lon="-8.103897743998447"><ele>481.0</ele><time>2026-04-16T14:50:08Z</time></trkpt><trkpt lat="42.43855170066977" lon="-8.103899836555046"><ele>481.0</ele><time>2026-04-16T14:50:09Z</time></trkpt><trkpt lat="42.43846023469201" lon="-8.103926156744086"><ele>481.0</ele><time>2026-04-16T14:50:10Z</time></trkpt><trkpt lat="42.438373612102566" lon="-8.103988540442197"><ele>481.00000000000006</ele><time>2026-04-16T14:50:11Z</time></trkpt><trkpt lat="42.43829378504626" lon="-8.104054488636995"><ele>481.0</ele><time>2026-04-16T14:50:12Z</time></trkpt><trkpt lat="42.43821954266263" lon="-8.104121740622732"><ele>480.99999999999994</ele><time>2026-04-16T14:50:13Z</time></trkpt><trkpt lat="42.438151998834165" lon="-8.104178706967337"><ele>481.0</ele><time>2026-04-16T14:50:14Z</time></trkpt><trkpt lat="42.438083791796885" lon="-8.104211375027946"><ele>480.99999999999994</ele><time>2026-04-16T14:50:15Z</time></trkpt><trkpt lat="42.43801602964616" lon="-8.104250196740722"><ele>480.99999999999994</ele><time>2026-04-16T14:50:16Z</time></trkpt><trkpt lat="42.4379424133205" lon="-8.104271626976514"><ele>481.0</ele><time>2026-04-16T14:50:16.999Z</time></trkpt><trkpt lat="42.43786227610266" lon="-8.104279598532475"><ele>480.99999999999994</ele><time>2026-04-16T14:50:17.999Z</time></trkpt><trkpt lat="42.4377947282774" lon="-8.104265349626447"><ele>480.99999999999994</ele><time>2026-04-16T14:50:18.999Z</time></trkpt><trkpt lat="42.43770005245073" lon="-8.104240392446991"><ele>483.20000000000005</ele><time>2026-04-16T14:50:20.999Z</time></trkpt><trkpt lat="42.43762226177458" lon="-8.10420927417246"><ele>485.40000000000003</ele><time>2026-04-16T14:50:23.999Z</time></trkpt><trkpt lat="42.43753634328443" lon="-8.104062938312303"><ele>487.6</ele><time>2026-04-16T14:50:25.999Z</time></trkpt><trkpt lat="42.437429457029985" lon="-8.10398830140269"><ele>489.8</ele><time>2026-04-16T14:50:27.999Z</time></trkpt><trkpt lat="42.4373603781178" lon="-8.103958026571796"><ele>492.0</ele><time>2026-04-16T14:50:28.999Z</time></trkpt><trkpt lat="42.43726704627448" lon="-8.10391976965742"><ele>492.40000000000003</ele><time>2026-04-16T14:50:29.999Z</time></trkpt><trkpt lat="42.43717408162844" lon="-8.103882924242267"><ele>492.80000000000007</ele><time>2026-04-16T14:50:30.999Z</time></trkpt><trkpt lat="42.43707354067421" lon="-8.103840052249879"><ele>493.2</ele><time>2026-04-16T14:50:31.999Z</time></trkpt><trkpt lat="42.43699130774122" lon="-8.103794445863379"><ele>493.6</ele><time>2026-04-16T14:50:32.999Z</time></trkpt><trkpt lat="42.436916031546325" lon="-8.103768811575364"><ele>494.0</ele><time>2026-04-16T14:50:33.999Z</time></trkpt><trkpt lat="42.43683389782754" lon="-8.103718372976157"><ele>493.99999999999994</ele><time>2026-04-16T14:50:34.999Z</time></trkpt><trkpt lat="42.43676011615766" lon="-8.103662950701127"><ele>494.0</ele><time>2026-04-16T14:50:35.999Z</time></trkpt><trkpt lat="42.43669972250861" lon="-8.103587488404688"><ele>494.0</ele><time>2026-04-16T14:50:36.999Z</time></trkpt><trkpt lat="42.43666986033543" lon="-8.103470324474975"><ele>494.0</ele><time>2026-04-16T14:50:37.999Z</time></trkpt><trkpt lat="42.43662319541514" lon="-8.103391531547585"><ele>493.99999999999994</ele><time>2026-04-16T14:50:38.999Z</time></trkpt><trkpt lat="42.43658903629294" lon="-8.103304278352741"><ele>494.0</ele><time>2026-04-16T14:50:39.999Z</time></trkpt><trkpt lat="42.436567451291005" lon="-8.10319377556823"><ele>493.8333333333333</ele><time>2026-04-16T14:50:40.999Z</time></trkpt><trkpt lat="42.436541358369304" lon="-8.10309333873658"><ele>493.66666666666663</ele><time>2026-04-16T14:50:41.999Z</time></trkpt><trkpt lat="42.43651591213815" lon="-8.10299539120531"><ele>493.5</ele><time>2026-04-16T14:50:42.999Z</time></trkpt><trkpt lat="42.43648698212302" lon="-8.102884034056196"><ele>493.33333333333337</ele><time>2026-04-16T14:50:43.999Z</time></trkpt><trkpt lat="42.43646039013074" lon="-8.102773918168287"><ele>493.1666666666667</ele><time>2026-04-16T14:50:44.999Z</time></trkpt><trkpt lat="42.43643798918618" lon="-8.102675781331438"><ele>493.0</ele><time>2026-04-16T14:50:45.999Z</time></trkpt><trkpt lat="42.436430858520325" lon="-8.102576032415193"><ele>493.0</ele><time>2026-04-16T14:50:46.999Z</time></trkpt><trkpt lat="42.43638600512192" lon="-8.102422208572598"><ele>492.99999999999994</ele><time>2026-04-16T14:50:48.999Z</time></trkpt><trkpt lat="42.43636685083371" lon="-8.102303072480472"><ele>492.99999999999994</ele><time>2026-04-16T14:50:50.999Z</time></trkpt><trkpt lat="42.436345216510844" lon="-8.102210721315279"><ele>493.0</ele><time>2026-04-16T14:50:52.999Z</time></trkpt><trkpt lat="42.43631758722838" lon="-8.10213072916347"><ele>493.0</ele><time>2026-04-16T14:50:55Z</time></trkpt><trkpt lat="42.43628306459539" lon="-8.101996777244482"><ele>492.33333333333337</ele><time>2026-04-16T14:52:15Z</time></trkpt><trkpt lat="42.4362451989092" lon="-8.10183066146154"><ele>491.6666666666667</ele><time>2026-04-16T14:52:16.999Z</time></trkpt><trkpt lat="42.436224573962626" lon="-8.10174018019236"><ele>491.0</ele><time>2026-04-16T14:52:17.999Z</time></trkpt><trkpt lat="42.436202599796594" lon="-8.10164378013412"><ele>490.33333333333337</ele><time>2026-04-16T14:52:18.999Z</time></trkpt><trkpt lat="42.43618362642598" lon="-8.101553556037164"><ele>489.6666666666667</ele><time>2026-04-16T14:52:19.999Z</time></trkpt><trkpt lat="42.436162764736046" lon="-8.101467234792237"><ele>489.0</ele><time>2026-04-16T14:52:20.999Z</time></trkpt><trkpt lat="42.43613350452373" lon="-8.101387423007532"><ele>489.0</ele><time>2026-04-16T14:52:21.999Z</time></trkpt><trkpt lat="42.436094845490544" lon="-8.101312291113954"><ele>489.00000000000006</ele><time>2026-04-16T14:52:22.999Z</time></trkpt><trkpt lat="42.436051332389425" lon="-8.101241937451373"><ele>489.0</ele><time>2026-04-16T14:52:23.999Z</time></trkpt><trkpt lat="42.436001614664995" lon="-8.101167248067703"><ele>489.0</ele><time>2026-04-16T14:52:24.999Z</time></trkpt><trkpt lat="42.43595902355994" lon="-8.101086675290762"><ele>489.00000000000006</ele><time>2026-04-16T14:52:25.999Z</time></trkpt><trkpt lat="42.43590046757629" lon="-8.101018511826606"><ele>489.0</ele><time>2026-04-16T14:52:26.999Z</time></trkpt><trkpt lat="42.43583418367676" lon="-8.10095377966757"><ele>489.0</ele><time>2026-04-16T14:52:27.999Z</time></trkpt><trkpt lat="42.4357748375883" lon="-8.100893918867417"><ele>489.0</ele><time>2026-04-16T14:52:28.999Z</time></trkpt><trkpt lat="42.43570839843483" lon="-8.100824697908926"><ele>489.0</ele><time>2026-04-16T14:52:29.999Z</time></trkpt><trkpt lat="42.435637850337265" lon="-8.100747285003697"><ele>489.0</ele><time>2026-04-16T14:52:30.999Z</time></trkpt><trkpt lat="42.43556175088373" lon="-8.100666402950672"><ele>489.0</ele><time>2026-04-16T14:52:31.999Z</time></trkpt><trkpt lat="42.4354935683064" lon="-8.100591608372513"><ele>489.0</ele><time>2026-04-16T14:52:32.999Z</time></trkpt><trkpt lat="42.4353988851293" lon="-8.100439818005615"><ele>487.0</ele><time>2026-04-16T14:52:34.999Z</time></trkpt><trkpt lat="42.43536915665673" lon="-8.100314699243235"><ele>485.0</ele><time>2026-04-16T14:52:35.999Z</time></trkpt><trkpt lat="42.43535505255474" lon="-8.10017365241197"><ele>483.0</ele><time>2026-04-16T14:52:36.999Z</time></trkpt><trkpt lat="42.43534439390479" lon="-8.100029406751313"><ele>481.0</ele><time>2026-04-16T14:52:37.999Z</time></trkpt><trkpt lat="42.435338048844606" lon="-8.099895023064414"><ele>479.0</ele><time>2026-04-16T14:52:38.999Z</time></trkpt><trkpt lat="42.435335998907476" lon="-8.099777718079764"><ele>478.2</ele><time>2026-04-16T14:52:39.999Z</time></trkpt><trkpt lat="42.435337895541394" lon="-8.099635834072439"><ele>477.4</ele><time>2026-04-16T14:52:40.999Z</time></trkpt><trkpt lat="42.43535127763631" lon="-8.099497965619632"><ele>476.6</ele><time>2026-04-16T14:52:41.999Z</time></trkpt><trkpt lat="42.43537000558782" lon="-8.099353963134316"><ele>475.8</ele><time>2026-04-16T14:52:42.999Z</time></trkpt><trkpt lat="42.43540507247918" lon="-8.099209974343282"><ele>475.0</ele><time>2026-04-16T14:52:43.999Z</time></trkpt><trkpt lat="42.43541282323623" lon="-8.099075200900185"><ele>474.2</ele><time>2026-04-16T14:52:44.999Z</time></trkpt><trkpt lat="42.43543902316961" lon="-8.098941537878297"><ele>473.4</ele><time>2026-04-16T14:52:45.999Z</time></trkpt><trkpt lat="42.4354714871749" lon="-8.098811707653907"><ele>472.6</ele><time>2026-04-16T14:52:46.999Z</time></trkpt><trkpt lat="42.43552057832346" lon="-8.098691600857114"><ele>471.8</ele><time>2026-04-16T14:52:47.999Z</time></trkpt><trkpt lat="42.4355822295745" lon="-8.098601225637735"><ele>471.0</ele><time>2026-04-16T14:52:48.999Z</time></trkpt><trkpt lat="42.435673781149674" lon="-8.098517861538912"><ele>471.0</ele><time>2026-04-16T14:52:49.999Z</time></trkpt><trkpt lat="42.4357547117424" lon="-8.098442896927942"><ele>471.0</ele><time>2026-04-16T14:52:50.999Z</time></trkpt><trkpt lat="42.435834802648316" lon="-8.098365660192071"><ele>471.0</ele><time>2026-04-16T14:52:51.999Z</time></trkpt><trkpt lat="42.435908252089774" lon="-8.098272392074948"><ele>471.0</ele><time>2026-04-16T14:52:52.999Z</time></trkpt><trkpt lat="42.43596889149515" lon="-8.09816155376328"><ele>471.0</ele><time>2026-04-16T14:52:53.999Z</time></trkpt><trkpt lat="42.435975509716044" lon="-8.09802725931378"><ele>469.8</ele><time>2026-04-16T14:52:54.999Z</time></trkpt><trkpt lat="42.4359694867985" lon="-8.097901704976513"><ele>468.6</ele><time>2026-04-16T14:52:55.999Z</time></trkpt><trkpt lat="42.43594351201253" lon="-8.097778659608968"><ele>467.4</ele><time>2026-04-16T14:52:56.999Z</time></trkpt><trkpt lat="42.43588821342041" lon="-8.097666837469887"><ele>466.2</ele><time>2026-04-16T14:52:57.999Z</time></trkpt><trkpt lat="42.43580350771082" lon="-8.09761275579881"><ele>465.0</ele><time>2026-04-16T14:52:58.999Z</time></trkpt><trkpt lat="42.43572018214538" lon="-8.097521422080638"><ele>465.0</ele><time>2026-04-16T14:53:00Z</time></trkpt><trkpt lat="42.43565057626727" lon="-8.097447506367686"><ele>465.0</ele><time>2026-04-16T14:53:01Z</time></trkpt><trkpt lat="42.43560862085722" lon="-8.097329774617794"><ele>465.0</ele><time>2026-04-16T14:53:02Z</time></trkpt><trkpt lat="42.43558519733636" lon="-8.097200635015659"><ele>465.0</ele><time>2026-04-16T14:53:03Z</time></trkpt><trkpt lat="42.43557318171222" lon="-8.097070311856925"><ele>465.0</ele><time>2026-04-16T14:53:04Z</time></trkpt><trkpt lat="42.435568369326845" lon="-8.096945749509976"><ele>464.4</ele><time>2026-04-16T14:53:05Z</time></trkpt><trkpt lat="42.43557883409746" lon="-8.096817707773964"><ele>463.8</ele><time>2026-04-16T14:53:06Z</time></trkpt><trkpt lat="42.43559932234983" lon="-8.096699259372391"><ele>463.20000000000005</ele><time>2026-04-16T14:53:07Z</time></trkpt><trkpt lat="42.435607068948784" lon="-8.0965776037611"><ele>462.6</ele><time>2026-04-16T14:53:08Z</time></trkpt><trkpt lat="42.43558176135412" lon="-8.096452152428567"><ele>462.0</ele><time>2026-04-16T14:53:09Z</time></trkpt><trkpt lat="42.43554828036754" lon="-8.096343291841986"><ele>461.0</ele><time>2026-04-16T14:53:10Z</time></trkpt><trkpt lat="42.43546554306267" lon="-8.096268647669147"><ele>460.00000000000006</ele><time>2026-04-16T14:53:11Z</time></trkpt><trkpt lat="42.435398856411474" lon="-8.096174401753402"><ele>459.00000000000006</ele><time>2026-04-16T14:53:12Z</time></trkpt><trkpt lat="42.43534099961773" lon="-8.096078667198901"><ele>458.0</ele><time>2026-04-16T14:53:13Z</time></trkpt><trkpt lat="42.4352811858065" lon="-8.095983298188393"><ele>457.0</ele><time>2026-04-16T14:53:14Z</time></trkpt><trkpt lat="42.43523069514325" lon="-8.095872449127365"><ele>455.40000000000003</ele><time>2026-04-16T14:53:15Z</time></trkpt><trkpt lat="42.43519801624852" lon="-8.095745382688015"><ele>453.80000000000007</ele><time>2026-04-16T14:53:16Z</time></trkpt><trkpt lat="42.435175621248796" lon="-8.095621524587427"><ele>452.2</ele><time>2026-04-16T14:53:17Z</time></trkpt><trkpt lat="42.43514796710999" lon="-8.095489926006525"><ele>450.6</ele><time>2026-04-16T14:53:18Z</time></trkpt><trkpt lat="42.43511281329271" lon="-8.095370258195056"><ele>449.0</ele><time>2026-04-16T14:53:19Z</time></trkpt><trkpt lat="42.43508971623025" lon="-8.095258167330678"><ele>449.0</ele><time>2026-04-16T14:53:20Z</time></trkpt><trkpt lat="42.43505714765379" lon="-8.095132943925288"><ele>449.0</ele><time>2026-04-16T14:53:21Z</time></trkpt><trkpt lat="42.43501925536441" lon="-8.095014256783195"><ele>449.0</ele><time>2026-04-16T14:53:22Z</time></trkpt><trkpt lat="42.434973759173346" lon="-8.094903469096506"><ele>449.0</ele><time>2026-04-16T14:53:23Z</time></trkpt><trkpt lat="42.434957645282594" lon="-8.094796129349305"><ele>449.0</ele><time>2026-04-16T14:53:24Z</time></trkpt><trkpt lat="42.434911150037834" lon="-8.094685291006018"><ele>448.49999999999994</ele><time>2026-04-16T14:53:25Z</time></trkpt><trkpt lat="42.43487326490303" lon="-8.094571507839467"><ele>448.0</ele><time>2026-04-16T14:53:26Z</time></trkpt><trkpt lat="42.43483162017313" lon="-8.094463039714151"><ele>447.5</ele><time>2026-04-16T14:53:27Z</time></trkpt><trkpt lat="42.434789489632834" lon="-8.09435600231447"><ele>447.0</ele><time>2026-04-16T14:53:28Z</time></trkpt><trkpt lat="42.43475118432405" lon="-8.094250845272457"><ele>446.49999999999994</ele><time>2026-04-16T14:53:29Z</time></trkpt><trkpt lat="42.43470995482922" lon="-8.094149269068613"><ele>446.0</ele><time>2026-04-16T14:53:30Z</time></trkpt><trkpt lat="42.43466805976535" lon="-8.09404945114596"><ele>444.6</ele><time>2026-04-16T14:53:31Z</time></trkpt><trkpt lat="42.43463140501231" lon="-8.093953677149333"><ele>443.20000000000005</ele><time>2026-04-16T14:53:32Z</time></trkpt><trkpt lat="42.43458448221391" lon="-8.093851423875796"><ele>441.79999999999995</ele><time>2026-04-16T14:53:33Z</time></trkpt><trkpt lat="42.4345231413299" lon="-8.093766147627365"><ele>440.4</ele><time>2026-04-16T14:53:34Z</time></trkpt><trkpt lat="42.43443958608845" lon="-8.09371289253742"><ele>439.0</ele><time>2026-04-16T14:53:35Z</time></trkpt><trkpt lat="42.43433507301521" lon="-8.093646121636718"><ele>439.0</ele><time>2026-04-16T14:53:36Z</time></trkpt><trkpt lat="42.43420527114816" lon="-8.093566860463548"><ele>439.0</ele><time>2026-04-16T14:53:37Z</time></trkpt><trkpt lat="42.43406707912154" lon="-8.093482229525877"><ele>439.0</ele><time>2026-04-16T14:53:38Z</time></trkpt><trkpt lat="42.43391342217537" lon="-8.09339115419391"><ele>437.75</ele><time>2026-04-16T14:53:39Z</time></trkpt><trkpt lat="42.43377071567261" lon="-8.093309243029928"><ele>436.5</ele><time>2026-04-16T14:53:40Z</time></trkpt><trkpt lat="42.43363622379768" lon="-8.093241656179126"><ele>435.25</ele><time>2026-04-16T14:53:41Z</time></trkpt><trkpt lat="42.433498331609286" lon="-8.093178902483046"><ele>434.0</ele><time>2026-04-16T14:53:42Z</time></trkpt><trkpt lat="42.433361864989706" lon="-8.093113806109402"><ele>434.0</ele><time>2026-04-16T14:53:43Z</time></trkpt><trkpt lat="42.433237371945914" lon="-8.093044519792395"><ele>434.0</ele><time>2026-04-16T14:53:44Z</time></trkpt><trkpt lat="42.4331191632362" lon="-8.092932083252938"><ele>434.0</ele><time>2026-04-16T14:53:45Z</time></trkpt><trkpt lat="42.43300733926508" lon="-8.09282016791357"><ele>434.0</ele><time>2026-04-16T14:53:46Z</time></trkpt><trkpt lat="42.432901567953856" lon="-8.092710026121322"><ele>430.5</ele><time>2026-04-16T14:53:47Z</time></trkpt><trkpt lat="42.43280861454409" lon="-8.092598575958952"><ele>427.0</ele><time>2026-04-16T14:53:48Z</time></trkpt><trkpt lat="42.43274590719389" lon="-8.092466980331055"><ele>423.5</ele><time>2026-04-16T14:53:49Z</time></trkpt><trkpt lat="42.43269951189409" lon="-8.092309922429367"><ele>420.0</ele><time>2026-04-16T14:53:50Z</time></trkpt><trkpt lat="42.43269004354566" lon="-8.092152067237537"><ele>420.0</ele><time>2026-04-16T14:53:51Z</time></trkpt><trkpt lat="42.43267138554184" lon="-8.091997099381047"><ele>420.0</ele><time>2026-04-16T14:53:52Z</time></trkpt><trkpt lat="42.43259991055902" lon="-8.091878207700484"><ele>420.0</ele><time>2026-04-16T14:53:53Z</time></trkpt><trkpt lat="42.43251899928966" lon="-8.09175998127963"><ele>420.0</ele><time>2026-04-16T14:53:54Z</time></trkpt><trkpt lat="42.43244043843579" lon="-8.091644397981366"><ele>419.2</ele><time>2026-04-16T14:53:55Z</time></trkpt><trkpt lat="42.43239016915409" lon="-8.091545698613766"><ele>418.4</ele><time>2026-04-16T14:53:56Z</time></trkpt><trkpt lat="42.432331942186856" lon="-8.091460263327772"><ele>417.6</ele><time>2026-04-16T14:53:57Z</time></trkpt><trkpt lat="42.43231117584849" lon="-8.091347962889639"><ele>416.8</ele><time>2026-04-16T14:53:58Z</time></trkpt><trkpt lat="42.43234868752137" lon="-8.091207144844427"><ele>416.0</ele><time>2026-04-16T14:53:59Z</time></trkpt><trkpt lat="42.432438221576405" lon="-8.091110218816112"><ele>416.0</ele><time>2026-04-16T14:54:00Z</time></trkpt><trkpt lat="42.432529512745646" lon="-8.090986027110592"><ele>416.0</ele><time>2026-04-16T14:54:01Z</time></trkpt><trkpt lat="42.43263534785744" lon="-8.090874843715257"><ele>416.0</ele><time>2026-04-16T14:54:02Z</time></trkpt><trkpt lat="42.43274699241345" lon="-8.090749908621836"><ele>416.0</ele><time>2026-04-16T14:54:03Z</time></trkpt><trkpt lat="42.43284844416191" lon="-8.090624486175521"><ele>414.75</ele><time>2026-04-16T14:54:04Z</time></trkpt><trkpt lat="42.4329548691777" lon="-8.090503672700187"><ele>413.5</ele><time>2026-04-16T14:54:05Z</time></trkpt><trkpt lat="42.43304936678853" lon="-8.090379736913839"><ele>412.25</ele><time>2026-04-16T14:54:06Z</time></trkpt><trkpt lat="42.43314316303277" lon="-8.090257300433944"><ele>411.0</ele><time>2026-04-16T14:54:06.999Z</time></trkpt><trkpt lat="42.43322564396305" lon="-8.090123211397382"><ele>411.0</ele><time>2026-04-16T14:54:07.999Z</time></trkpt><trkpt lat="42.433297319928855" lon="-8.08997292472111"><ele>411.0</ele><time>2026-04-16T14:54:08.999Z</time></trkpt><trkpt lat="42.43330508170834" lon="-8.08979697451466"><ele>411.0</ele><time>2026-04-16T14:54:09.999Z</time></trkpt><trkpt lat="42.43332400651599" lon="-8.089620600765985"><ele>411.0</ele><time>2026-04-16T14:54:10.999Z</time></trkpt><trkpt lat="42.43334314973033" lon="-8.089448875086367"><ele>410.5</ele><time>2026-04-16T14:54:11.999Z</time></trkpt><trkpt lat="42.43335679475797" lon="-8.089285355044"><ele>410.0</ele><time>2026-04-16T14:54:12.999Z</time></trkpt><trkpt lat="42.433373047405055" lon="-8.089115220975737"><ele>409.5</ele><time>2026-04-16T14:54:13.999Z</time></trkpt><trkpt lat="42.433388182769" lon="-8.088953254733887"><ele>409.0</ele><time>2026-04-16T14:54:14.999Z</time></trkpt><trkpt lat="42.433399215737246" lon="-8.088788930035797"><ele>407.75</ele><time>2026-04-16T14:54:15.999Z</time></trkpt><trkpt lat="42.43340354742022" lon="-8.088624709165188"><ele>406.5</ele><time>2026-04-16T14:54:16.999Z</time></trkpt><trkpt lat="42.43337038718752" lon="-8.088470219996829"><ele>405.25</ele><time>2026-04-16T14:54:17.999Z</time></trkpt><trkpt lat="42.43336823866352" lon="-8.088305672999615"><ele>404.0</ele><time>2026-04-16T14:54:18.999Z</time></trkpt><trkpt lat="42.43333563060227" lon="-8.088152239483595"><ele>402.2</ele><time>2026-04-16T14:54:19.999Z</time></trkpt><trkpt lat="42.433311946768015" lon="-8.087995273445742"><ele>400.4</ele><time>2026-04-16T14:54:20.999Z</time></trkpt><trkpt lat="42.43328856389286" lon="-8.08784311823114"><ele>398.6</ele><time>2026-04-16T14:54:21.999Z</time></trkpt><trkpt lat="42.43322162346337" lon="-8.087729220456389"><ele>396.8</ele><time>2026-04-16T14:54:22.999Z</time></trkpt><trkpt lat="42.433123576979696" lon="-8.087666762865856"><ele>395.0</ele><time>2026-04-16T14:54:23.999Z</time></trkpt><trkpt lat="42.43302841792363" lon="-8.08759770027226"><ele>394.8</ele><time>2026-04-16T14:54:24.999Z</time></trkpt><trkpt lat="42.43293301805335" lon="-8.087549160456271"><ele>394.6</ele><time>2026-04-16T14:54:25.999Z</time></trkpt><trkpt lat="42.4328364937647" lon="-8.087493923734991"><ele>394.4</ele><time>2026-04-16T14:54:26.999Z</time></trkpt><trkpt lat="42.43275658434119" lon="-8.087406659100639"><ele>394.2</ele><time>2026-04-16T14:54:27.999Z</time></trkpt><trkpt lat="42.43268605352535" lon="-8.087310222174873"><ele>394.0</ele><time>2026-04-16T14:54:28.999Z</time></trkpt><trkpt lat="42.4326404619962" lon="-8.087166061627803"><ele>392.79999999999995</ele><time>2026-04-16T14:54:29.999Z</time></trkpt><trkpt lat="42.43263384727413" lon="-8.086995610071037"><ele>391.59999999999997</ele><time>2026-04-16T14:54:30.999Z</time></trkpt><trkpt lat="42.43264255985423" lon="-8.086853363322696"><ele>390.4</ele><time>2026-04-16T14:54:31.999Z</time></trkpt><trkpt lat="42.43262622519956" lon="-8.086724883083123"><ele>389.2</ele><time>2026-04-16T14:54:32.999Z</time></trkpt><trkpt lat="42.43260857113656" lon="-8.086597376199999"><ele>388.0</ele><time>2026-04-16T14:54:33.999Z</time></trkpt><trkpt lat="42.432604524607484" lon="-8.086494634295411"><ele>387.4</ele><time>2026-04-16T14:54:34.999Z</time></trkpt><trkpt lat="42.43255697956519" lon="-8.086401984410246"><ele>386.79999999999995</ele><time>2026-04-16T14:54:36.999Z</time></trkpt><trkpt lat="42.43250429341576" lon="-8.086334689130945"><ele>386.2</ele><time>2026-04-16T14:54:39.999Z</time></trkpt><trkpt lat="42.43244275040679" lon="-8.086252971299203"><ele>385.6</ele><time>2026-04-16T14:54:40.999Z</time></trkpt><trkpt lat="42.43236357553834" lon="-8.086149180899252"><ele>385.0</ele><time>2026-04-16T14:54:41.999Z</time></trkpt><trkpt lat="42.43228484393279" lon="-8.086049425646245"><ele>385.0</ele><time>2026-04-16T14:54:42.999Z</time></trkpt><trkpt lat="42.43220984160887" lon="-8.085951440714219"><ele>385.0</ele><time>2026-04-16T14:54:43.999Z</time></trkpt><trkpt lat="42.43213515496512" lon="-8.085851415179258"><ele>385.0</ele><time>2026-04-16T14:54:44.999Z</time></trkpt><trkpt lat="42.4320606868204" lon="-8.08575121107505"><ele>385.0</ele><time>2026-04-16T14:54:45.999Z</time></trkpt><trkpt lat="42.43198830973052" lon="-8.085653390635912"><ele>385.0</ele><time>2026-04-16T14:54:46.999Z</time></trkpt><trkpt lat="42.43192372670835" lon="-8.08556259882883"><ele>383.33333333333337</ele><time>2026-04-16T14:54:47.999Z</time></trkpt><trkpt lat="42.431874946706486" lon="-8.085484939351886"><ele>381.6666666666667</ele><time>2026-04-16T14:54:48.999Z</time></trkpt><trkpt lat="42.43181072118342" lon="-8.085391913701649"><ele>380.0</ele><time>2026-04-16T14:54:49.999Z</time></trkpt><trkpt lat="42.43175404082641" lon="-8.085305544250195"><ele>378.33333333333337</ele><time>2026-04-16T14:54:50.999Z</time></trkpt><trkpt lat="42.431697159509305" lon="-8.0852022681072"><ele>376.6666666666667</ele><time>2026-04-16T14:54:51.999Z</time></trkpt><trkpt lat="42.431643918027326" lon="-8.085091375734445"><ele>375.0</ele><time>2026-04-16T14:54:52.999Z</time></trkpt><trkpt lat="42.43158926273937" lon="-8.084968762381047"><ele>374.2</ele><time>2026-04-16T14:54:53.999Z</time></trkpt><trkpt lat="42.43153268144548" lon="-8.084845249724447"><ele>373.4</ele><time>2026-04-16T14:54:54.999Z</time></trkpt><trkpt lat="42.4314850830179" lon="-8.084718602602877"><ele>372.6</ele><time>2026-04-16T14:54:55.999Z</time></trkpt><trkpt lat="42.43143053337388" lon="-8.084589084272341"><ele>371.8</ele><time>2026-04-16T14:54:56.999Z</time></trkpt><trkpt lat="42.4313773833334" lon="-8.084454055794179"><ele>371.0</ele><time>2026-04-16T14:54:57.999Z</time></trkpt><trkpt lat="42.43132942430914" lon="-8.08431431643359"><ele>370.8</ele><time>2026-04-16T14:54:58.999Z</time></trkpt><trkpt lat="42.43127724840346" lon="-8.08417831689858"><ele>370.6</ele><time>2026-04-16T14:54:59.999Z</time></trkpt><trkpt lat="42.431228800929254" lon="-8.08404515488227"><ele>370.4</ele><time>2026-04-16T14:55:00.999Z</time></trkpt><trkpt lat="42.43117573754394" lon="-8.083911426734987"><ele>370.2</ele><time>2026-04-16T14:55:01.999Z</time></trkpt><trkpt lat="42.431120882216455" lon="-8.083778184657762"><ele>370.0</ele><time>2026-04-16T14:55:02.999Z</time></trkpt><trkpt lat="42.43108536159636" lon="-8.083672547451062"><ele>370.0</ele><time>2026-04-16T14:55:03.999Z</time></trkpt><trkpt lat="42.43104221368153" lon="-8.083562182647722"><ele>370.0</ele><time>2026-04-16T14:55:04.999Z</time></trkpt><trkpt lat="42.43099777738115" lon="-8.083461524845884"><ele>370.0</ele><time>2026-04-16T14:55:06Z</time></trkpt><trkpt lat="42.430969324479854" lon="-8.083379898469987"><ele>370.0</ele><time>2026-04-16T14:55:07Z</time></trkpt><trkpt lat="42.430920635458534" lon="-8.083293048550024"><ele>370.0</ele><time>2026-04-16T14:55:09Z</time></trkpt><trkpt lat="42.43086608953504" lon="-8.083351186828034"><ele>370.0</ele><time>2026-04-16T14:55:11Z</time></trkpt><trkpt lat="42.430877412187115" lon="-8.083207818046697"><ele>370.0</ele><time>2026-04-16T15:00:06Z</time></trkpt><trkpt lat="42.430954075813474" lon="-8.083229134447393"><ele>370.0</ele><time>2026-04-16T15:00:13Z</time></trkpt><trkpt lat="42.43099696899041" lon="-8.08330046415037"><ele>370.0</ele><time>2026-04-16T15:00:14Z</time></trkpt><trkpt lat="42.43105565100204" lon="-8.083462392998316"><ele>370.0</ele><time>2026-04-16T15:00:15Z</time></trkpt><trkpt lat="42.43111058442435" lon="-8.083613036430528"><ele>370.0</ele><time>2026-04-16T15:00:16Z</time></trkpt><trkpt lat="42.43115425601997" lon="-8.083726106212186"><ele>370.0</ele><time>2026-04-16T15:00:17Z</time></trkpt><trkpt lat="42.431193375619166" lon="-8.083823530530921"><ele>370.0</ele><time>2026-04-16T15:00:18Z</time></trkpt><trkpt lat="42.431220961343776" lon="-8.083901352163576"><ele>370.0</ele><time>2026-04-16T15:00:19Z</time></trkpt><trkpt lat="42.43125127210096" lon="-8.083995573649757"><ele>370.0</ele><time>2026-04-16T15:00:20Z</time></trkpt><trkpt lat="42.43129062071655" lon="-8.084090638399541"><ele>370.0</ele><time>2026-04-16T15:00:21Z</time></trkpt><trkpt lat="42.43134899576631" lon="-8.084229247512647"><ele>370.0</ele><time>2026-04-16T15:00:23Z</time></trkpt><trkpt lat="42.431370989355266" lon="-8.084366696438297"><ele>370.25</ele><time>2026-04-16T15:00:25Z</time></trkpt><trkpt lat="42.43142240207416" lon="-8.084460565432542"><ele>370.5</ele><time>2026-04-16T15:00:27Z</time></trkpt><trkpt lat="42.43150980588815" lon="-8.084683842200711"><ele>370.75</ele><time>2026-04-16T15:00:30Z</time></trkpt><trkpt lat="42.431560254681294" lon="-8.08483000655602"><ele>371.0</ele><time>2026-04-16T15:00:32Z</time></trkpt><trkpt lat="42.43160207248084" lon="-8.084905081765857"><ele>371.6666666666667</ele><time>2026-04-16T15:00:33Z</time></trkpt><trkpt lat="42.43163009752598" lon="-8.084995805096199"><ele>372.33333333333337</ele><time>2026-04-16T15:00:34Z</time></trkpt><trkpt lat="42.43166604369094" lon="-8.085082711489823"><ele>373.0</ele><time>2026-04-16T15:00:35Z</time></trkpt><trkpt lat="42.431716991529214" lon="-8.085156748551967"><ele>373.6666666666667</ele><time>2026-04-16T15:00:36Z</time></trkpt><trkpt lat="42.43176544965492" lon="-8.08524463109059"><ele>374.3333333333333</ele><time>2026-04-16T15:00:37Z</time></trkpt><trkpt lat="42.4318170288307" lon="-8.085338265521695"><ele>375.0</ele><time>2026-04-16T15:00:38Z</time></trkpt><trkpt lat="42.43186920542728" lon="-8.08543265184317"><ele>375.0</ele><time>2026-04-16T15:00:39Z</time></trkpt><trkpt lat="42.431934619688136" lon="-8.08550443361979"><ele>375.0</ele><time>2026-04-16T15:00:40Z</time></trkpt><trkpt lat="42.43199572750316" lon="-8.085585793709125"><ele>375.0</ele><time>2026-04-16T15:00:41Z</time></trkpt><trkpt lat="42.43205721165663" lon="-8.085668381015688"><ele>375.0</ele><time>2026-04-16T15:00:42Z</time></trkpt><trkpt lat="42.43211685297864" lon="-8.085747239738458"><ele>375.0</ele><time>2026-04-16T15:00:43Z</time></trkpt><trkpt lat="42.432178201267455" lon="-8.085834421536124"><ele>375.0</ele><time>2026-04-16T15:00:44Z</time></trkpt><trkpt lat="42.432235927945875" lon="-8.085925435749292"><ele>376.6666666666667</ele><time>2026-04-16T15:00:45Z</time></trkpt><trkpt lat="42.43228756996762" lon="-8.085990359541332"><ele>378.33333333333337</ele><time>2026-04-16T15:00:46Z</time></trkpt><trkpt lat="42.43234241597132" lon="-8.08605385791066"><ele>380.0</ele><time>2026-04-16T15:00:47Z</time></trkpt><trkpt lat="42.43241928309396" lon="-8.086179687450445"><ele>381.6666666666667</ele><time>2026-04-16T15:00:49Z</time></trkpt><trkpt lat="42.432482164047286" lon="-8.08626576455843"><ele>383.33333333333337</ele><time>2026-04-16T15:00:51Z</time></trkpt><trkpt lat="42.432534076337866" lon="-8.086325642579997"><ele>385.0</ele><time>2026-04-16T15:00:54Z</time></trkpt><trkpt lat="42.432608753338755" lon="-8.086440733286132"><ele>385.6</ele><time>2026-04-16T15:00:56Z</time></trkpt><trkpt lat="42.43265235527922" lon="-8.086608157686262"><ele>386.2</ele><time>2026-04-16T15:00:58Z</time></trkpt><trkpt lat="42.43267386094254" lon="-8.08669780686021"><ele>386.79999999999995</ele><time>2026-04-16T15:00:59Z</time></trkpt><trkpt lat="42.43268832520253" lon="-8.086798909327296"><ele>387.4</ele><time>2026-04-16T15:01:00Z</time></trkpt><trkpt lat="42.43268249946911" lon="-8.086921621517584"><ele>388.0</ele><time>2026-04-16T15:01:01Z</time></trkpt><trkpt lat="42.43268764457263" lon="-8.08703808579413"><ele>388.00000000000006</ele><time>2026-04-16T15:01:02Z</time></trkpt><trkpt lat="42.43269772320072" lon="-8.08712905929905"><ele>388.0</ele><time>2026-04-16T15:01:03Z</time></trkpt><trkpt lat="42.43271135986041" lon="-8.087245847390763"><ele>388.0</ele><time>2026-04-16T15:01:04Z</time></trkpt><trkpt lat="42.432766421566775" lon="-8.087357894294458"><ele>388.0</ele><time>2026-04-16T15:01:05Z</time></trkpt><trkpt lat="42.432830269002764" lon="-8.087433286795298"><ele>388.00000000000006</ele><time>2026-04-16T15:01:06Z</time></trkpt><trkpt lat="42.43290500323798" lon="-8.087493426726292"><ele>388.0</ele><time>2026-04-16T15:01:07Z</time></trkpt><trkpt lat="42.43298472102943" lon="-8.087517045220217"><ele>389.1666666666667</ele><time>2026-04-16T15:01:08Z</time></trkpt><trkpt lat="42.4330588841667" lon="-8.087545776915425"><ele>390.33333333333337</ele><time>2026-04-16T15:01:09Z</time></trkpt><trkpt lat="42.43312854747366" lon="-8.08759511185746"><ele>391.5</ele><time>2026-04-16T15:01:10Z</time></trkpt><trkpt lat="42.43318863283907" lon="-8.087646083059534"><ele>392.66666666666663</ele><time>2026-04-16T15:01:11Z</time></trkpt><trkpt lat="42.43324361390797" lon="-8.087688590866238"><ele>393.8333333333333</ele><time>2026-04-16T15:01:12Z</time></trkpt><trkpt lat="42.43330782858168" lon="-8.087831216065878"><ele>395.0</ele><time>2026-04-16T15:01:14Z</time></trkpt><trkpt lat="42.43334559679892" lon="-8.087932511766342"><ele>395.0</ele><time>2026-04-16T15:01:15Z</time></trkpt><trkpt lat="42.433377873453864" lon="-8.088042355128266"><ele>395.0</ele><time>2026-04-16T15:01:16Z</time></trkpt><trkpt lat="42.433387035320585" lon="-8.088172275252582"><ele>395.0</ele><time>2026-04-16T15:01:17Z</time></trkpt><trkpt lat="42.4333963221727" lon="-8.08831357952826"><ele>395.0</ele><time>2026-04-16T15:01:18Z</time></trkpt><trkpt lat="42.43341137898461" lon="-8.088466029680212"><ele>395.0</ele><time>2026-04-16T15:01:19Z</time></trkpt><trkpt lat="42.43342762993629" lon="-8.088609520744129"><ele>397.25</ele><time>2026-04-16T15:01:20Z</time></trkpt><trkpt lat="42.43343395008267" lon="-8.088758806444112"><ele>399.5</ele><time>2026-04-16T15:01:21Z</time></trkpt><trkpt lat="42.43342370988053" lon="-8.088929843171512"><ele>401.75</ele><time>2026-04-16T15:01:22Z</time></trkpt><trkpt lat="42.43340777039072" lon="-8.089088675537877"><ele>404.0</ele><time>2026-04-16T15:01:23Z</time></trkpt><trkpt lat="42.43339456318276" lon="-8.089250826674688"><ele>405.25</ele><time>2026-04-16T15:01:24Z</time></trkpt><trkpt lat="42.43337974477443" lon="-8.089410270525894"><ele>406.5</ele><time>2026-04-16T15:01:25Z</time></trkpt><trkpt lat="42.43336001513123" lon="-8.089578872311227"><ele>407.75</ele><time>2026-04-16T15:01:26Z</time></trkpt><trkpt lat="42.43333740897741" lon="-8.089751376909671"><ele>409.0</ele><time>2026-04-16T15:01:27Z</time></trkpt><trkpt lat="42.43332034817024" lon="-8.089915337241965"><ele>409.5</ele><time>2026-04-16T15:01:28Z</time></trkpt><trkpt lat="42.43328483161998" lon="-8.090082239928307"><ele>410.0</ele><time>2026-04-16T15:01:29Z</time></trkpt><trkpt lat="42.43321163122796" lon="-8.090220303064669"><ele>410.5</ele><time>2026-04-16T15:01:30Z</time></trkpt><trkpt lat="42.43312616806685" lon="-8.090337247466378"><ele>411.0</ele><time>2026-04-16T15:01:31Z</time></trkpt><trkpt lat="42.43305089866668" lon="-8.090444862289058"><ele>411.0</ele><time>2026-04-16T15:01:32Z</time></trkpt><trkpt lat="42.432947300253396" lon="-8.090577823216462"><ele>411.0</ele><time>2026-04-16T15:01:33Z</time></trkpt><trkpt lat="42.432828515689245" lon="-8.090696419047543"><ele>411.0</ele><time>2026-04-16T15:01:34Z</time></trkpt><trkpt lat="42.4327387348656" lon="-8.090825208762652"><ele>411.0</ele><time>2026-04-16T15:01:35Z</time></trkpt><trkpt lat="42.43263113028285" lon="-8.09096319936621"><ele>412.0</ele><time>2026-04-16T15:01:36Z</time></trkpt><trkpt lat="42.43253486329527" lon="-8.091068429934179"><ele>413.0</ele><time>2026-04-16T15:01:37Z</time></trkpt><trkpt lat="42.43247243659783" lon="-8.09117276852136"><ele>414.0</ele><time>2026-04-16T15:01:38Z</time></trkpt><trkpt lat="42.43241282352955" lon="-8.091272953104443"><ele>415.0</ele><time>2026-04-16T15:01:39Z</time></trkpt><trkpt lat="42.43238073047993" lon="-8.091367293828784"><ele>416.0</ele><time>2026-04-16T15:01:40Z</time></trkpt><trkpt lat="42.432422161389006" lon="-8.091471566120402"><ele>416.8</ele><time>2026-04-16T15:01:41Z</time></trkpt><trkpt lat="42.43247851310681" lon="-8.09159432143101"><ele>417.6</ele><time>2026-04-16T15:01:42Z</time></trkpt><trkpt lat="42.432551404302615" lon="-8.09170672717712"><ele>418.4</ele><time>2026-04-16T15:01:43Z</time></trkpt><trkpt lat="42.432621790812675" lon="-8.091811455019698"><ele>419.2</ele><time>2026-04-16T15:01:44Z</time></trkpt><trkpt lat="42.43269714889052" lon="-8.09191339427657"><ele>420.0</ele><time>2026-04-16T15:01:45Z</time></trkpt><trkpt lat="42.43274230397595" lon="-8.092042215264454"><ele>420.0</ele><time>2026-04-16T15:01:46Z</time></trkpt><trkpt lat="42.4327589248986" lon="-8.092179685896083"><ele>420.0</ele><time>2026-04-16T15:01:47Z</time></trkpt><trkpt lat="42.43276978753864" lon="-8.092315999992422"><ele>420.0</ele><time>2026-04-16T15:01:48Z</time></trkpt><trkpt lat="42.432785987324195" lon="-8.09245462156513"><ele>420.0</ele><time>2026-04-16T15:01:49Z</time></trkpt><trkpt lat="42.43283085172619" lon="-8.092572636514888"><ele>420.0</ele><time>2026-04-16T15:01:50Z</time></trkpt><trkpt lat="42.432893779126175" lon="-8.092662074572523"><ele>422.8</ele><time>2026-04-16T15:01:51Z</time></trkpt><trkpt lat="42.43298970436564" lon="-8.09271105429493"><ele>425.6</ele><time>2026-04-16T15:01:52Z</time></trkpt><trkpt lat="42.433069872603845" lon="-8.092783015023265"><ele>428.4</ele><time>2026-04-16T15:01:53Z</time></trkpt><trkpt lat="42.43313407584648" lon="-8.09287574144329"><ele>431.2</ele><time>2026-04-16T15:01:54Z</time></trkpt><trkpt lat="42.43321163692886" lon="-8.09294356419647"><ele>434.0</ele><time>2026-04-16T15:01:55Z</time></trkpt><trkpt lat="42.433280759774995" lon="-8.092998108621348"><ele>433.99999999999994</ele><time>2026-04-16T15:01:56Z</time></trkpt><trkpt lat="42.433348344777244" lon="-8.09304595666269"><ele>434.0</ele><time>2026-04-16T15:01:57Z</time></trkpt><trkpt lat="42.43342756939395" lon="-8.09307262586039"><ele>434.0</ele><time>2026-04-16T15:01:58Z</time></trkpt><trkpt lat="42.43349187083796" lon="-8.093099942495364"><ele>434.0</ele><time>2026-04-16T15:01:59Z</time></trkpt><trkpt lat="42.43356622778071" lon="-8.093131451220996"><ele>433.99999999999994</ele><time>2026-04-16T15:02:00Z</time></trkpt><trkpt lat="42.43363769850034" lon="-8.09316362111951"><ele>434.0</ele><time>2026-04-16T15:02:01Z</time></trkpt><trkpt lat="42.43376686654103" lon="-8.09323370453322"><ele>435.0</ele><time>2026-04-16T15:02:03Z</time></trkpt><trkpt lat="42.43383945731482" lon="-8.093275864449618"><ele>436.0</ele><time>2026-04-16T15:02:04Z</time></trkpt><trkpt lat="42.43395834285858" lon="-8.09334405240404"><ele>437.0</ele><time>2026-04-16T15:02:05Z</time></trkpt><trkpt lat="42.43404342112191" lon="-8.093377341909887"><ele>438.0</ele><time>2026-04-16T15:02:06Z</time></trkpt><trkpt lat="42.434135707515935" lon="-8.093436795382626"><ele>439.0</ele><time>2026-04-16T15:02:07Z</time></trkpt><trkpt lat="42.43423238926502" lon="-8.093495895868696"><ele>439.0</ele><time>2026-04-16T15:02:08Z</time></trkpt><trkpt lat="42.4343421412539" lon="-8.093559422789841"><ele>439.0</ele><time>2026-04-16T15:02:09Z</time></trkpt><trkpt lat="42.43443948145413" lon="-8.093630779430713"><ele>439.0</ele><time>2026-04-16T15:02:10Z</time></trkpt><trkpt lat="42.434548770737265" lon="-8.093709161911457"><ele>439.0</ele><time>2026-04-16T15:02:11Z</time></trkpt><trkpt lat="42.434634466052884" lon="-8.093845175909227"><ele>439.0</ele><time>2026-04-16T15:02:12Z</time></trkpt><trkpt lat="42.43469949696374" lon="-8.093986345005813"><ele>439.0</ele><time>2026-04-16T15:02:13Z</time></trkpt><trkpt lat="42.43476621400471" lon="-8.094130593584149"><ele>439.0</ele><time>2026-04-16T15:02:14Z</time></trkpt><trkpt lat="42.43481462747572" lon="-8.094283056545562"><ele>439.0</ele><time>2026-04-16T15:02:15Z</time></trkpt><trkpt lat="42.43486346446623" lon="-8.094433187067555"><ele>440.4</ele><time>2026-04-16T15:02:16Z</time></trkpt><trkpt lat="42.43490712790692" lon="-8.094552460288408"><ele>441.79999999999995</ele><time>2026-04-16T15:02:17Z</time></trkpt><trkpt lat="42.434949635505994" lon="-8.094655635207062"><ele>443.20000000000005</ele><time>2026-04-16T15:02:18Z</time></trkpt><trkpt lat="42.435000187483276" lon="-8.094764930170207"><ele>444.6</ele><time>2026-04-16T15:02:20Z</time></trkpt><trkpt lat="42.4351113939655" lon="-8.094760884926659"><ele>446.0</ele><time>2026-04-16T15:02:24Z</time></trkpt><trkpt lat="42.43525439114863" lon="-8.09468118758574"><ele>446.0</ele><time>2026-04-16T15:02:25Z</time></trkpt><trkpt lat="42.43536278653306" lon="-8.094629400190739"><ele>446.0</ele><time>2026-04-16T15:02:26Z</time></trkpt><trkpt lat="42.43545655376875" lon="-8.094586535636083"><ele>446.0</ele><time>2026-04-16T15:02:27Z</time></trkpt><trkpt lat="42.435525696216466" lon="-8.094530593160027"><ele>446.0</ele><time>2026-04-16T15:02:28Z</time></trkpt><trkpt lat="42.43561502715336" lon="-8.094480480783192"><ele>446.0</ele><time>2026-04-16T15:02:29Z</time></trkpt><trkpt lat="42.43571168731596" lon="-8.094435113526782"><ele>446.20000000000005</ele><time>2026-04-16T15:02:30Z</time></trkpt><trkpt lat="42.4358196649565" lon="-8.094389236071985"><ele>446.40000000000003</ele><time>2026-04-16T15:02:31Z</time></trkpt><trkpt lat="42.4359093604911" lon="-8.094338085513067"><ele>446.6</ele><time>2026-04-16T15:02:32Z</time></trkpt><trkpt lat="42.43599283130387" lon="-8.094290105100159"><ele>446.8</ele><time>2026-04-16T15:02:33Z</time></trkpt><trkpt lat="42.43609024849777" lon="-8.094252532162633"><ele>447.0</ele><time>2026-04-16T15:02:34Z</time></trkpt><trkpt lat="42.43616172487099" lon="-8.094191332214649"><ele>447.0</ele><time>2026-04-16T15:02:35Z</time></trkpt><trkpt lat="42.43623424494322" lon="-8.094149664638831"><ele>447.0</ele><time>2026-04-16T15:02:36Z</time></trkpt><trkpt lat="42.43631460202364" lon="-8.094116447107364"><ele>447.0</ele><time>2026-04-16T15:02:37Z</time></trkpt><trkpt lat="42.43639114204904" lon="-8.094125273581621"><ele>447.0</ele><time>2026-04-16T15:02:38Z</time></trkpt><trkpt lat="42.436463976820484" lon="-8.094133096457377"><ele>447.0</ele><time>2026-04-16T15:02:39Z</time></trkpt><trkpt lat="42.43653558486669" lon="-8.094147073509868"><ele>447.0</ele><time>2026-04-16T15:02:40Z</time></trkpt><trkpt lat="42.43659985344116" lon="-8.094166620347991"><ele>447.40000000000003</ele><time>2026-04-16T15:02:41Z</time></trkpt><trkpt lat="42.4367061890656" lon="-8.094201087814078"><ele>447.80000000000007</ele><time>2026-04-16T15:02:43Z</time></trkpt><trkpt lat="42.436761888290484" lon="-8.094243256512653"><ele>448.2</ele><time>2026-04-16T15:02:44Z</time></trkpt><trkpt lat="42.43683259363829" lon="-8.094357742665016"><ele>448.6</ele><time>2026-04-16T15:02:46Z</time></trkpt><trkpt lat="42.436930469324636" lon="-8.094474852003126"><ele>449.0</ele><time>2026-04-16T15:02:47Z</time></trkpt><trkpt lat="42.437022616188344" lon="-8.094566000444216"><ele>449.0</ele><time>2026-04-16T15:02:48Z</time></trkpt><trkpt lat="42.437090818630445" lon="-8.094660725473455"><ele>449.0</ele><time>2026-04-16T15:02:49Z</time></trkpt><trkpt lat="42.43715464514894" lon="-8.094746932918902"><ele>449.0</ele><time>2026-04-16T15:02:50Z</time></trkpt><trkpt lat="42.43722136572332" lon="-8.0948253596534"><ele>449.0</ele><time>2026-04-16T15:02:51Z</time></trkpt><trkpt lat="42.43730748065439" lon="-8.094892968526123"><ele>449.0</ele><time>2026-04-16T15:02:52Z</time></trkpt><trkpt lat="42.437412715844076" lon="-8.094952391140213"><ele>449.79999999999995</ele><time>2026-04-16T15:02:53Z</time></trkpt><trkpt lat="42.43752685129602" lon="-8.094968168105467"><ele>450.59999999999997</ele><time>2026-04-16T15:02:54Z</time></trkpt><trkpt lat="42.437625912365235" lon="-8.09497793185704"><ele>451.4</ele><time>2026-04-16T15:02:55Z</time></trkpt><trkpt lat="42.437731820107985" lon="-8.095005095977196"><ele>452.2</ele><time>2026-04-16T15:02:56Z</time></trkpt><trkpt lat="42.437802727785666" lon="-8.094993437492477"><ele>453.0</ele><time>2026-04-16T15:02:57Z</time></trkpt><trkpt lat="42.4378898814357" lon="-8.09499222773476"><ele>453.0</ele><time>2026-04-16T15:02:58Z</time></trkpt><trkpt lat="42.43795663389692" lon="-8.095020371502791"><ele>453.0</ele><time>2026-04-16T15:02:59Z</time></trkpt><trkpt lat="42.438045951000056" lon="-8.09501591729689"><ele>453.0</ele><time>2026-04-16T15:03:00Z</time></trkpt><trkpt lat="42.43816631955319" lon="-8.095028769437489"><ele>453.0</ele><time>2026-04-16T15:03:01Z</time></trkpt><trkpt lat="42.4382335612786" lon="-8.095034813819705"><ele>453.0</ele><time>2026-04-16T15:03:02Z</time></trkpt><trkpt lat="42.4383318828293" lon="-8.095045244527363"><ele>453.0</ele><time>2026-04-16T15:03:03Z</time></trkpt><trkpt lat="42.438400207313286" lon="-8.095033768079643"><ele>453.3333333333333</ele><time>2026-04-16T15:03:04Z</time></trkpt><trkpt lat="42.438482935877" lon="-8.094997798629995"><ele>453.66666666666663</ele><time>2026-04-16T15:03:05Z</time></trkpt><trkpt lat="42.438554297584766" lon="-8.094977985601707"><ele>454.0</ele><time>2026-04-16T15:03:06Z</time></trkpt><trkpt lat="42.438656936098006" lon="-8.094943103076144"><ele>454.3333333333333</ele><time>2026-04-16T15:03:07Z</time></trkpt><trkpt lat="42.43871970069036" lon="-8.094907864677953"><ele>454.66666666666663</ele><time>2026-04-16T15:03:08Z</time></trkpt><trkpt lat="42.438790967101156" lon="-8.09485738664661"><ele>455.0</ele><time>2026-04-16T15:03:09Z</time></trkpt><trkpt lat="42.4388525888531" lon="-8.094797346696481"><ele>454.99999999999994</ele><time>2026-04-16T15:03:10Z</time></trkpt><trkpt lat="42.43891343980112" lon="-8.094731629871353"><ele>455.0</ele><time>2026-04-16T15:03:11Z</time></trkpt><trkpt lat="42.43896911726699" lon="-8.09465792461146"><ele>455.0</ele><time>2026-04-16T15:03:11.999Z</time></trkpt><trkpt lat="42.439012113348326" lon="-8.09457028588466"><ele>455.0</ele><time>2026-04-16T15:03:12.999Z</time></trkpt><trkpt lat="42.43903498367654" lon="-8.094473886511926"><ele>454.99999999999994</ele><time>2026-04-16T15:03:13.999Z</time></trkpt><trkpt lat="42.43905574643429" lon="-8.09436189591615"><ele>455.0</ele><time>2026-04-16T15:03:14.999Z</time></trkpt><trkpt lat="42.43908760703256" lon="-8.094253647254305"><ele>454.99999999999994</ele><time>2026-04-16T15:03:15.999Z</time></trkpt><trkpt lat="42.439086258914536" lon="-8.094132551123787"><ele>455.0</ele><time>2026-04-16T15:03:16.999Z</time></trkpt><trkpt lat="42.439098637259775" lon="-8.094026754084263"><ele>455.0</ele><time>2026-04-16T15:03:17.999Z</time></trkpt><trkpt lat="42.43910653026496" lon="-8.093926124969533"><ele>455.0</ele><time>2026-04-16T15:03:18.999Z</time></trkpt><trkpt lat="42.43911196389563" lon="-8.093838438276581"><ele>454.99999999999994</ele><time>2026-04-16T15:03:19.999Z</time></trkpt><trkpt lat="42.43914145717161" lon="-8.09369587661986"><ele>455.0</ele><time>2026-04-16T15:03:21.999Z</time></trkpt><trkpt lat="42.439182132364955" lon="-8.09359823594893"><ele>455.49999999999994</ele><time>2026-04-16T15:03:23.999Z</time></trkpt><trkpt lat="42.439252394482125" lon="-8.093599000184895"><ele>456.0</ele><time>2026-04-16T15:03:25.999Z</time></trkpt><trkpt lat="42.43938974626256" lon="-8.093620031775078"><ele>456.5</ele><time>2026-04-16T15:03:27.999Z</time></trkpt><trkpt lat="42.43945309007549" lon="-8.093618816509329"><ele>457.0</ele><time>2026-04-16T15:03:28.999Z</time></trkpt><trkpt lat="42.439536534952744" lon="-8.093604247561844"><ele>457.49999999999994</ele><time>2026-04-16T15:03:30Z</time></trkpt><trkpt lat="42.43960480038225" lon="-8.093580098177265"><ele>458.0</ele><time>2026-04-16T15:03:31Z</time></trkpt><trkpt lat="42.4397256898631" lon="-8.093510296384915"><ele>457.99999999999994</ele><time>2026-04-16T15:03:33Z</time></trkpt><trkpt lat="42.439806765628035" lon="-8.09351021366867"><ele>458.0</ele><time>2026-04-16T15:03:36Z</time></trkpt><trkpt lat="42.43981354355159" lon="-8.093424998255164"><ele>458.0</ele><time>2026-04-16T15:03:38Z</time></trkpt><trkpt lat="42.43984441313346" lon="-8.093322099523865"><ele>458.0</ele><time>2026-04-16T15:03:40Z</time></trkpt><trkpt lat="42.43986968486318" lon="-8.093222315752516"><ele>457.99999999999994</ele><time>2026-04-16T15:03:43Z</time></trkpt><trkpt lat="42.43978850865937" lon="-8.093200126394235"><ele>458.0</ele><time>2026-04-16T15:03:47Z</time></trkpt><trkpt lat="42.439699100367584" lon="-8.093176110567699"><ele>455.2</ele><time>2026-04-16T15:03:50Z</time></trkpt><trkpt lat="42.439609669273416" lon="-8.093133959852457"><ele>452.4</ele><time>2026-04-16T15:03:52Z</time></trkpt><trkpt lat="42.43950608119153" lon="-8.093108828751072"><ele>449.59999999999997</ele><time>2026-04-16T15:03:54Z</time></trkpt><trkpt lat="42.439377557090985" lon="-8.093079440697204"><ele>446.79999999999995</ele><time>2026-04-16T15:03:56Z</time></trkpt><trkpt lat="42.43931584482308" lon="-8.093044433137354"><ele>444.0</ele><time>2026-04-16T15:03:57Z</time></trkpt><trkpt lat="42.439255364880424" lon="-8.093010124616084"><ele>444.0</ele><time>2026-04-16T15:03:58Z</time></trkpt><trkpt lat="42.43913922920978" lon="-8.092942285416353"><ele>444.0</ele><time>2026-04-16T15:04:00Z</time></trkpt><trkpt lat="42.439075777268414" lon="-8.092905021454666"><ele>444.0</ele><time>2026-04-16T15:04:01Z</time></trkpt><trkpt lat="42.43896479678787" lon="-8.092843101857207"><ele>444.0</ele><time>2026-04-16T15:04:03Z</time></trkpt><trkpt lat="42.43887324997316" lon="-8.092767118454924"><ele>444.0</ele><time>2026-04-16T15:04:05Z</time></trkpt><trkpt lat="42.43877548423316" lon="-8.092699100601536"><ele>443.6</ele><time>2026-04-16T15:04:07Z</time></trkpt><trkpt lat="42.438697212913986" lon="-8.092651938062179"><ele>443.2</ele><time>2026-04-16T15:04:09Z</time></trkpt><trkpt lat="42.43865456062478" lon="-8.092564966071826"><ele>442.80000000000007</ele><time>2026-04-16T15:04:11Z</time></trkpt><trkpt lat="42.438624218610116" lon="-8.092432191400665"><ele>442.40000000000003</ele><time>2026-04-16T15:04:13Z</time></trkpt><trkpt lat="42.43865336153573" lon="-8.092213206914883"><ele>442.0</ele><time>2026-04-16T15:04:15Z</time></trkpt><trkpt lat="42.438660659341004" lon="-8.09211108933951"><ele>441.40000000000003</ele><time>2026-04-16T15:04:16Z</time></trkpt><trkpt lat="42.438762049783705" lon="-8.091967986438188"><ele>440.80000000000007</ele><time>2026-04-16T15:04:18Z</time></trkpt><trkpt lat="42.438855546626655" lon="-8.091907085632647"><ele>440.2</ele><time>2026-04-16T15:04:19Z</time></trkpt><trkpt lat="42.43891950573323" lon="-8.091877547134983"><ele>439.6</ele><time>2026-04-16T15:04:20Z</time></trkpt><trkpt lat="42.43898800122317" lon="-8.091844101186146"><ele>439.0</ele><time>2026-04-16T15:04:21Z</time></trkpt><trkpt lat="42.43908551033501" lon="-8.091766313013352"><ele>439.00000000000006</ele><time>2026-04-16T15:04:23Z</time></trkpt><trkpt lat="42.4391207489123" lon="-8.091671920020625"><ele>439.0</ele><time>2026-04-16T15:04:26Z</time></trkpt><trkpt lat="42.4391535552802" lon="-8.091596974901265"><ele>439.0</ele><time>2026-04-16T15:04:28Z</time></trkpt><trkpt lat="42.43920911459094" lon="-8.09151858149098"><ele>439.0</ele><time>2026-04-16T15:04:31Z</time></trkpt><trkpt lat="42.439276899770775" lon="-8.091448959445005"><ele>439.00000000000006</ele><time>2026-04-16T15:04:33Z</time></trkpt><trkpt lat="42.43935336100893" lon="-8.091407290312883"><ele>439.0</ele><time>2026-04-16T15:04:35Z</time></trkpt><trkpt lat="42.43945683948721" lon="-8.091399131561623"><ele>438.0</ele><time>2026-04-16T15:04:37Z</time></trkpt><trkpt lat="42.43952819534419" lon="-8.09138736679941"><ele>437.0</ele><time>2026-04-16T15:04:38Z</time></trkpt><trkpt lat="42.43964186031704" lon="-8.0913935833368"><ele>436.0</ele><time>2026-04-16T15:04:40Z</time></trkpt><trkpt lat="42.43975142188932" lon="-8.091369243190465"><ele>435.0</ele><time>2026-04-16T15:04:42Z</time></trkpt><trkpt lat="42.43990602619052" lon="-8.091380882486032"><ele>435.0</ele><time>2026-04-16T15:04:44Z</time></trkpt><trkpt lat="42.44001634771215" lon="-8.09139521325346"><ele>435.0</ele><time>2026-04-16T15:04:46Z</time></trkpt><trkpt lat="42.44012426867297" lon="-8.091397493159228"><ele>435.0</ele><time>2026-04-16T15:04:48Z</time></trkpt><trkpt lat="42.440221829390254" lon="-8.091419372263674"><ele>435.0</ele><time>2026-04-16T15:04:50Z</time></trkpt><trkpt lat="42.44032684584641" lon="-8.091418545271074"><ele>435.0</ele><time>2026-04-16T15:04:52Z</time></trkpt><trkpt lat="42.44043192140101" lon="-8.091437056516144"><ele>434.6</ele><time>2026-04-16T15:04:54Z</time></trkpt><trkpt lat="42.440494590440096" lon="-8.091424885281581"><ele>434.2</ele><time>2026-04-16T15:04:57Z</time></trkpt><trkpt lat="42.440592644365466" lon="-8.091428100735593"><ele>433.79999999999995</ele><time>2026-04-16T15:05:00Z</time></trkpt><trkpt lat="42.440679270449564" lon="-8.091421241483772"><ele>433.4</ele><time>2026-04-16T15:05:02Z</time></trkpt><trkpt lat="42.440797297809006" lon="-8.091395698422357"><ele>433.0</ele><time>2026-04-16T15:05:04Z</time></trkpt><trkpt lat="42.44087682341706" lon="-8.091330421003937"><ele>433.0</ele><time>2026-04-16T15:05:06Z</time></trkpt><trkpt lat="42.44094983691526" lon="-8.09127238728918"><ele>432.99999999999994</ele><time>2026-04-16T15:05:08Z</time></trkpt><trkpt lat="42.441029034869665" lon="-8.091207454126339"><ele>432.99999999999994</ele><time>2026-04-16T15:05:09.999Z</time></trkpt><trkpt lat="42.44111864481969" lon="-8.091160308156477"><ele>433.0</ele><time>2026-04-16T15:05:11.999Z</time></trkpt><trkpt lat="42.44120963644053" lon="-8.091083353901427"><ele>433.0</ele><time>2026-04-16T15:05:13.999Z</time></trkpt><trkpt lat="42.44130287693274" lon="-8.090998926210451"><ele>432.83333333333337</ele><time>2026-04-16T15:05:15.999Z</time></trkpt><trkpt lat="42.44138543128028" lon="-8.09095023488409"><ele>432.6666666666667</ele><time>2026-04-16T15:05:17.999Z</time></trkpt><trkpt lat="42.44146046564389" lon="-8.090875171608882"><ele>432.5</ele><time>2026-04-16T15:05:19.999Z</time></trkpt><trkpt lat="42.44153330934717" lon="-8.090807440223116"><ele>432.33333333333337</ele><time>2026-04-16T15:05:22.999Z</time></trkpt><trkpt lat="42.4415961942489" lon="-8.09074353669522"><ele>432.1666666666667</ele><time>2026-04-16T15:05:25.999Z</time></trkpt><trkpt lat="42.441661836975996" lon="-8.090684856201587"><ele>432.0</ele><time>2026-04-16T15:05:27.999Z</time></trkpt><trkpt lat="42.441728384232015" lon="-8.090634924918673"><ele>431.40000000000003</ele><time>2026-04-16T15:05:29.999Z</time></trkpt><trkpt lat="42.44178671158697" lon="-8.090600563030238"><ele>430.80000000000007</ele><time>2026-04-16T15:05:31.999Z</time></trkpt><trkpt lat="42.441845165273435" lon="-8.0905619909436"><ele>430.2</ele><time>2026-04-16T15:05:33.999Z</time></trkpt><trkpt lat="42.441916479946286" lon="-8.090673167904054"><ele>429.6</ele><time>2026-04-16T15:05:34.999Z</time></trkpt><trkpt lat="42.442029027672874" lon="-8.09073604239995"><ele>429.0</ele><time>2026-04-16T15:05:37Z</time></trkpt><trkpt lat="42.44214215771759" lon="-8.09073590380932"><ele>428.6666666666667</ele><time>2026-04-16T15:05:39Z</time></trkpt><trkpt lat="42.4422190067501" lon="-8.090731843062034"><ele>428.33333333333337</ele><time>2026-04-16T15:05:41Z</time></trkpt><trkpt lat="42.44229938047159" lon="-8.090739286831909"><ele>428.0</ele><time>2026-04-16T15:05:45Z</time></trkpt><trkpt lat="42.44237726793133" lon="-8.090725997957325"><ele>427.6666666666667</ele><time>2026-04-16T15:05:49Z</time></trkpt><trkpt lat="42.44246158190978" lon="-8.09073030001289"><ele>427.33333333333337</ele><time>2026-04-16T15:05:52Z</time></trkpt><trkpt lat="42.44255223574279" lon="-8.090714520669883"><ele>427.0</ele><time>2026-04-16T15:05:55Z</time></trkpt><trkpt lat="42.44261551977656" lon="-8.090704342770938"><ele>427.00000000000006</ele><time>2026-04-16T15:05:57Z</time></trkpt><trkpt lat="42.442683635830846" lon="-8.090649474096212"><ele>427.0</ele><time>2026-04-16T15:06:00Z</time></trkpt><trkpt lat="42.44277189866268" lon="-8.090617919827748"><ele>427.0</ele><time>2026-04-16T15:06:03Z</time></trkpt><trkpt lat="42.442855472922595" lon="-8.090600363604135"><ele>427.0</ele><time>2026-04-16T15:06:06Z</time></trkpt><trkpt lat="42.442935498571345" lon="-8.090567843421411"><ele>427.00000000000006</ele><time>2026-04-16T15:06:09Z</time></trkpt><trkpt lat="42.44296700143153" lon="-8.09064387188201"><ele>427.0</ele><time>2026-04-16T15:06:14Z</time></trkpt><trkpt lat="42.44287618758106" lon="-8.090672997476684"><ele>427.0</ele><time>2026-04-16T15:06:18Z</time></trkpt><trkpt lat="42.4427897806373" lon="-8.090655936294828"><ele>427.00000000000006</ele><time>2026-04-16T15:06:20Z</time></trkpt><trkpt lat="42.44269667588939" lon="-8.090663720248708"><ele>427.00000000000006</ele><time>2026-04-16T15:06:22Z</time></trkpt><trkpt lat="42.442591803882124" lon="-8.09074145262156"><ele>427.0</ele><time>2026-04-16T15:06:24Z</time></trkpt><trkpt lat="42.44248685876511" lon="-8.090746444084886"><ele>427.0</ele><time>2026-04-16T15:06:26Z</time></trkpt><trkpt lat="42.44242284225066" lon="-8.09075199027299"><ele>427.40000000000003</ele><time>2026-04-16T15:06:27Z</time></trkpt><trkpt lat="42.44231277396052" lon="-8.090764891659138"><ele>427.80000000000007</ele><time>2026-04-16T15:06:29Z</time></trkpt><trkpt lat="42.442195344959714" lon="-8.090760005318778"><ele>428.2</ele><time>2026-04-16T15:06:31Z</time></trkpt><trkpt lat="42.44209508257499" lon="-8.090731078944547"><ele>428.6</ele><time>2026-04-16T15:06:33Z</time></trkpt><trkpt lat="42.442018643374965" lon="-8.090732051446404"><ele>429.0</ele><time>2026-04-16T15:06:35Z</time></trkpt><trkpt lat="42.441951565844924" lon="-8.090714294163018"><ele>429.0</ele><time>2026-04-16T15:06:37Z</time></trkpt><trkpt lat="42.44185539966707" lon="-8.090667942348517"><ele>429.0</ele><time>2026-04-16T15:06:39Z</time></trkpt><trkpt lat="42.441784936087885" lon="-8.090609785094452"><ele>429.0</ele><time>2026-04-16T15:06:41Z</time></trkpt><trkpt lat="42.44179346227675" lon="-8.090515791960417"><ele>429.0</ele><time>2026-04-16T15:06:43Z</time></trkpt><trkpt lat="42.441818417179604" lon="-8.090370603701377"><ele>429.0</ele><time>2026-04-16T15:06:45Z</time></trkpt><trkpt lat="42.441856438419414" lon="-8.090289429423363"><ele>429.0</ele><time>2026-04-16T15:06:46Z</time></trkpt><trkpt lat="42.44190079713702" lon="-8.090130097755072"><ele>429.0</ele><time>2026-04-16T15:06:48Z</time></trkpt><trkpt lat="42.441938874725764" lon="-8.089974635772693"><ele>429.0</ele><time>2026-04-16T15:06:50Z</time></trkpt><trkpt lat="42.442015262948125" lon="-8.08984118997692"><ele>429.0</ele><time>2026-04-16T15:06:52Z</time></trkpt><trkpt lat="42.44207420389857" lon="-8.089792396220389"><ele>429.0</ele><time>2026-04-16T15:06:53Z</time></trkpt><trkpt lat="42.44215162610998" lon="-8.089751349515318"><ele>429.0</ele><time>2026-04-16T15:06:54Z</time></trkpt><trkpt lat="42.442215438722705" lon="-8.089715941259731"><ele>427.1666666666667</ele><time>2026-04-16T15:06:55Z</time></trkpt><trkpt lat="42.4422893494115" lon="-8.089671786572966"><ele>425.33333333333337</ele><time>2026-04-16T15:06:56Z</time></trkpt><trkpt lat="42.442359780287504" lon="-8.08965188993765"><ele>423.5</ele><time>2026-04-16T15:06:57Z</time></trkpt><trkpt lat="42.44242770442328" lon="-8.08962507740868"><ele>421.6666666666667</ele><time>2026-04-16T15:06:58Z</time></trkpt><trkpt lat="42.44248833699326" lon="-8.089598831601425"><ele>419.83333333333337</ele><time>2026-04-16T15:06:59Z</time></trkpt><trkpt lat="42.44259722760597" lon="-8.089553409490644"><ele>418.0</ele><time>2026-04-16T15:07:01Z</time></trkpt><trkpt lat="42.44266561339351" lon="-8.089517361481436"><ele>418.0</ele><time>2026-04-16T15:07:02Z</time></trkpt><trkpt lat="42.44273529527509" lon="-8.089472516416592"><ele>418.0</ele><time>2026-04-16T15:07:03Z</time></trkpt><trkpt lat="42.44279757322669" lon="-8.089437277354804"><ele>418.0</ele><time>2026-04-16T15:07:04Z</time></trkpt><trkpt lat="42.44285885907604" lon="-8.089395295652201"><ele>418.0</ele><time>2026-04-16T15:07:05Z</time></trkpt><trkpt lat="42.442910581942414" lon="-8.089331137512007"><ele>418.0</ele><time>2026-04-16T15:07:06Z</time></trkpt><trkpt lat="42.44297599821196" lon="-8.089275687027486"><ele>418.0</ele><time>2026-04-16T15:07:07Z</time></trkpt><trkpt lat="42.44303320568246" lon="-8.08921714364788"><ele>418.0</ele><time>2026-04-16T15:07:08Z</time></trkpt><trkpt lat="42.44309250950524" lon="-8.089175069013729"><ele>417.83333333333337</ele><time>2026-04-16T15:07:09Z</time></trkpt><trkpt lat="42.443164061340326" lon="-8.089145963638916"><ele>417.6666666666667</ele><time>2026-04-16T15:07:10Z</time></trkpt><trkpt lat="42.443234000344724" lon="-8.089134182109584"><ele>417.5</ele><time>2026-04-16T15:07:11Z</time></trkpt><trkpt lat="42.44329752459529" lon="-8.089150104732491"><ele>417.33333333333337</ele><time>2026-04-16T15:07:12Z</time></trkpt><trkpt lat="42.44337851591923" lon="-8.089202284400887"><ele>417.1666666666667</ele><time>2026-04-16T15:07:12.999Z</time></trkpt><trkpt lat="42.443445307845124" lon="-8.089230297393762"><ele>417.0</ele><time>2026-04-16T15:07:13.999Z</time></trkpt><trkpt lat="42.443561526304286" lon="-8.089257895405115"><ele>417.0</ele><time>2026-04-16T15:07:15.999Z</time></trkpt><trkpt lat="42.443631138597546" lon="-8.089258445551506"><ele>417.0</ele><time>2026-04-16T15:07:16.999Z</time></trkpt><trkpt lat="42.443549147471266" lon="-8.089257558916657"><ele>417.0</ele><time>2026-04-16T15:07:17.999Z</time></trkpt><trkpt lat="42.443577608126475" lon="-8.08917339653633"><ele>417.0</ele><time>2026-04-16T15:07:18.999Z</time></trkpt><trkpt lat="42.44376516304586" lon="-8.08924217598403"><ele>417.0</ele><time>2026-04-16T15:07:20.999Z</time></trkpt><trkpt lat="42.44383834592699" lon="-8.089219043876108"><ele>416.5</ele><time>2026-04-16T15:07:21.999Z</time></trkpt><trkpt lat="42.44391094456301" lon="-8.089174163912055"><ele>416.0</ele><time>2026-04-16T15:07:22.999Z</time></trkpt><trkpt lat="42.44399525831702" lon="-8.08907261293451"><ele>415.5</ele><time>2026-04-16T15:07:23.999Z</time></trkpt><trkpt lat="42.44404286906739" lon="-8.088989332259175"><ele>415.0</ele><time>2026-04-16T15:07:24.999Z</time></trkpt><trkpt lat="42.44411486358108" lon="-8.088941664183697"><ele>414.5</ele><time>2026-04-16T15:07:25.999Z</time></trkpt><trkpt lat="42.444161580719424" lon="-8.088863023780995"><ele>414.0</ele><time>2026-04-16T15:07:26.999Z</time></trkpt><trkpt lat="42.4441696637029" lon="-8.088703617138716"><ele>413.3333333333333</ele><time>2026-04-16T15:07:28.999Z</time></trkpt><trkpt lat="42.44414467921419" lon="-8.088623997458503"><ele>412.66666666666663</ele><time>2026-04-16T15:07:29.999Z</time></trkpt><trkpt lat="42.44414639021448" lon="-8.088506815613801"><ele>412.0</ele><time>2026-04-16T15:07:30.999Z</time></trkpt><trkpt lat="42.44414399738357" lon="-8.088404003735395"><ele>411.3333333333333</ele><time>2026-04-16T15:07:31.999Z</time></trkpt><trkpt lat="42.44415940503677" lon="-8.088272554620268"><ele>410.66666666666663</ele><time>2026-04-16T15:07:32.999Z</time></trkpt><trkpt lat="42.444191586878325" lon="-8.088171950460534"><ele>410.0</ele><time>2026-04-16T15:07:33.999Z</time></trkpt><trkpt lat="42.44423528951641" lon="-8.088067216755121"><ele>409.8333333333333</ele><time>2026-04-16T15:07:34.999Z</time></trkpt><trkpt lat="42.444237955642265" lon="-8.087967354113191"><ele>409.66666666666663</ele><time>2026-04-16T15:07:35.999Z</time></trkpt><trkpt lat="42.444246232891516" lon="-8.087867243437824"><ele>409.5</ele><time>2026-04-16T15:07:36.999Z</time></trkpt><trkpt lat="42.44424475288939" lon="-8.08777033182393"><ele>409.33333333333337</ele><time>2026-04-16T15:07:37.999Z</time></trkpt><trkpt lat="42.444235929118506" lon="-8.087670263440767"><ele>409.1666666666667</ele><time>2026-04-16T15:07:38.999Z</time></trkpt><trkpt lat="42.44422209598582" lon="-8.087550855901194"><ele>409.0</ele><time>2026-04-16T15:07:39.999Z</time></trkpt><trkpt lat="42.4441987535282" lon="-8.087428932652813"><ele>410.0</ele><time>2026-04-16T15:07:40.999Z</time></trkpt><trkpt lat="42.44416548309132" lon="-8.08730400899477"><ele>411.0</ele><time>2026-04-16T15:07:42Z</time></trkpt><trkpt lat="42.444127017048146" lon="-8.087174899127413"><ele>412.0</ele><time>2026-04-16T15:07:43Z</time></trkpt><trkpt lat="42.444088064664356" lon="-8.087044156572926"><ele>413.0</ele><time>2026-04-16T15:07:44Z</time></trkpt><trkpt lat="42.444052280353375" lon="-8.086929040641477"><ele>414.0</ele><time>2026-04-16T15:07:45Z</time></trkpt><trkpt lat="42.444015032489666" lon="-8.086823321758677"><ele>414.0</ele><time>2026-04-16T15:07:46Z</time></trkpt><trkpt lat="42.44398146920384" lon="-8.086729924992685"><ele>414.0</ele><time>2026-04-16T15:07:47Z</time></trkpt><trkpt lat="42.44394274801901" lon="-8.086636339620465"><ele>414.0</ele><time>2026-04-16T15:07:48Z</time></trkpt><trkpt lat="42.4439001942365" lon="-8.086492761971304"><ele>414.0</ele><time>2026-04-16T15:07:50Z</time></trkpt><trkpt lat="42.44387784901909" lon="-8.086410275114766"><ele>414.0</ele><time>2026-04-16T15:07:51Z</time></trkpt><trkpt lat="42.44385609807815" lon="-8.086306069593057"><ele>414.0</ele><time>2026-04-16T15:07:53Z</time></trkpt><trkpt lat="42.443831220051955" lon="-8.086192606969846"><ele>414.0</ele><time>2026-04-16T15:07:55Z</time></trkpt><trkpt lat="42.443838135636085" lon="-8.08610214486134"><ele>414.0</ele><time>2026-04-16T15:10:37Z</time></trkpt><trkpt lat="42.44383622473581" lon="-8.086003149141936"><ele>414.0</ele><time>2026-04-16T15:10:39Z</time></trkpt><trkpt lat="42.443871514157266" lon="-8.085903548590034"><ele>414.0</ele><time>2026-04-16T15:10:41Z</time></trkpt><trkpt lat="42.44383392382986" lon="-8.085817989299635"><ele>414.0</ele><time>2026-04-16T15:10:43Z</time></trkpt><trkpt lat="42.44378979871885" lon="-8.085728698287754"><ele>414.0</ele><time>2026-04-16T15:10:45Z</time></trkpt><trkpt lat="42.44377249073954" lon="-8.08560869941562"><ele>412.79999999999995</ele><time>2026-04-16T15:10:48Z</time></trkpt><trkpt lat="42.44377496238072" lon="-8.085475194629273"><ele>411.59999999999997</ele><time>2026-04-16T15:10:50Z</time></trkpt><trkpt lat="42.44373778176711" lon="-8.08537362865618"><ele>410.4</ele><time>2026-04-16T15:10:52Z</time></trkpt><trkpt lat="42.44372251558556" lon="-8.08523888962293"><ele>409.2</ele><time>2026-04-16T15:10:54Z</time></trkpt><trkpt lat="42.44370495575305" lon="-8.085136107748612"><ele>408.0</ele><time>2026-04-16T15:10:56Z</time></trkpt><trkpt lat="42.44370759012567" lon="-8.084991249414625"><ele>407.3333333333333</ele><time>2026-04-16T15:10:58Z</time></trkpt><trkpt lat="42.443704904565095" lon="-8.08485251195077"><ele>406.66666666666663</ele><time>2026-04-16T15:11:00Z</time></trkpt><trkpt lat="42.44373680543592" lon="-8.084758737561023"><ele>406.0</ele><time>2026-04-16T15:11:02Z</time></trkpt><trkpt lat="42.443756812620826" lon="-8.08467512249903"><ele>405.3333333333333</ele><time>2026-04-16T15:11:06Z</time></trkpt><trkpt lat="42.443871267508406" lon="-8.084689917890092"><ele>404.66666666666663</ele><time>2026-04-16T15:11:10Z</time></trkpt><trkpt lat="42.44394283220284" lon="-8.0847371395749"><ele>404.0</ele><time>2026-04-16T15:11:10.999Z</time></trkpt><trkpt lat="42.4440063177531" lon="-8.084774128716221"><ele>404.0</ele><time>2026-04-16T15:11:11.999Z</time></trkpt><trkpt lat="42.444070084841385" lon="-8.084796149989153"><ele>404.0</ele><time>2026-04-16T15:11:12.999Z</time></trkpt><trkpt lat="42.44414228748782" lon="-8.084812089202549"><ele>404.0</ele><time>2026-04-16T15:11:13.999Z</time></trkpt><trkpt lat="42.444217480681495" lon="-8.084822686102886"><ele>404.0</ele><time>2026-04-16T15:11:14.999Z</time></trkpt><trkpt lat="42.44429519689541" lon="-8.084831812233265"><ele>404.0</ele><time>2026-04-16T15:11:15.999Z</time></trkpt><trkpt lat="42.44437281730564" lon="-8.08484959827145"><ele>404.0</ele><time>2026-04-16T15:11:16.999Z</time></trkpt><trkpt lat="42.44444286440174" lon="-8.084861464219287"><ele>404.0</ele><time>2026-04-16T15:11:17.999Z</time></trkpt><trkpt lat="42.4445234467016" lon="-8.084875136191478"><ele>404.0</ele><time>2026-04-16T15:11:18.999Z</time></trkpt><trkpt lat="42.444614886265484" lon="-8.084893918942765"><ele>404.0</ele><time>2026-04-16T15:11:19.999Z</time></trkpt><trkpt lat="42.44470058815375" lon="-8.08491406559648"><ele>404.0</ele><time>2026-04-16T15:11:20.999Z</time></trkpt><trkpt lat="42.444794338514896" lon="-8.084937058833706"><ele>404.0</ele><time>2026-04-16T15:11:21.999Z</time></trkpt><trkpt lat="42.44488538313215" lon="-8.08495774534342"><ele>404.0</ele><time>2026-04-16T15:11:22.999Z</time></trkpt><trkpt lat="42.444976525631596" lon="-8.08498079392826"><ele>406.75</ele><time>2026-04-16T15:11:23.999Z</time></trkpt><trkpt lat="42.445082599705934" lon="-8.084972136561072"><ele>409.5</ele><time>2026-04-16T15:11:24.999Z</time></trkpt><trkpt lat="42.44519248688943" lon="-8.085003872330631"><ele>412.25</ele><time>2026-04-16T15:11:25.999Z</time></trkpt><trkpt lat="42.44530654253488" lon="-8.08502003561083"><ele>415.0</ele><time>2026-04-16T15:11:26.999Z</time></trkpt><trkpt lat="42.44544128035076" lon="-8.085049985237642"><ele>415.5</ele><time>2026-04-16T15:11:27.999Z</time></trkpt><trkpt lat="42.44556763186689" lon="-8.085072235275007"><ele>416.0</ele><time>2026-04-16T15:11:28.999Z</time></trkpt><trkpt lat="42.44568135890466" lon="-8.08509281817214"><ele>416.5</ele><time>2026-04-16T15:11:29.999Z</time></trkpt><trkpt lat="42.4458202663124" lon="-8.085113903275106"><ele>417.0</ele><time>2026-04-16T15:11:30.999Z</time></trkpt><trkpt lat="42.44596290353344" lon="-8.085135870186505"><ele>417.0</ele><time>2026-04-16T15:11:31.999Z</time></trkpt><trkpt lat="42.44610355611095" lon="-8.085167298171331"><ele>417.0</ele><time>2026-04-16T15:11:32.999Z</time></trkpt><trkpt lat="42.44622378881798" lon="-8.085197710051503"><ele>417.0</ele><time>2026-04-16T15:11:33.999Z</time></trkpt><trkpt lat="42.4463294144057" lon="-8.085245291459971"><ele>417.0</ele><time>2026-04-16T15:11:34.999Z</time></trkpt><trkpt lat="42.44643549936455" lon="-8.085337373749612"><ele>417.75</ele><time>2026-04-16T15:11:35.999Z</time></trkpt><trkpt lat="42.44653587889627" lon="-8.08544174317962"><ele>418.5</ele><time>2026-04-16T15:11:36.999Z</time></trkpt><trkpt lat="42.4466141527804" lon="-8.085604839899016"><ele>419.25</ele><time>2026-04-16T15:11:37.999Z</time></trkpt><trkpt lat="42.44667237977597" lon="-8.08576128401326"><ele>420.0</ele><time>2026-04-16T15:11:38.999Z</time></trkpt><trkpt lat="42.44675205263653" lon="-8.085911131871883"><ele>421.25</ele><time>2026-04-16T15:11:39.999Z</time></trkpt><trkpt lat="42.44682799412796" lon="-8.086050208883753"><ele>422.5</ele><time>2026-04-16T15:11:40.999Z</time></trkpt><trkpt lat="42.44691617053843" lon="-8.086204935581176"><ele>423.75</ele><time>2026-04-16T15:11:41.999Z</time></trkpt><trkpt lat="42.44698599670182" lon="-8.086343298588648"><ele>425.0</ele><time>2026-04-16T15:11:42.999Z</time></trkpt><trkpt lat="42.44707493710239" lon="-8.086488996538"><ele>425.75</ele><time>2026-04-16T15:11:43.999Z</time></trkpt><trkpt lat="42.44715840654284" lon="-8.086637634308559"><ele>426.5</ele><time>2026-04-16T15:11:44.999Z</time></trkpt><trkpt lat="42.44724447273318" lon="-8.086785298717976"><ele>427.25</ele><time>2026-04-16T15:11:45.999Z</time></trkpt><trkpt lat="42.44732564950748" lon="-8.086931427563838"><ele>428.0</ele><time>2026-04-16T15:11:46.999Z</time></trkpt><trkpt lat="42.44739940400863" lon="-8.087058246955309"><ele>428.0</ele><time>2026-04-16T15:11:47.999Z</time></trkpt><trkpt lat="42.44748868933894" lon="-8.087188279183533"><ele>428.0</ele><time>2026-04-16T15:11:48.999Z</time></trkpt><trkpt lat="42.4475584417486" lon="-8.087308833654992"><ele>428.0</ele><time>2026-04-16T15:11:49.999Z</time></trkpt><trkpt lat="42.44764408069453" lon="-8.087430453257674"><ele>428.0</ele><time>2026-04-16T15:11:50.999Z</time></trkpt><trkpt lat="42.44773464399187" lon="-8.087533407040336"><ele>429.5</ele><time>2026-04-16T15:11:51.999Z</time></trkpt><trkpt lat="42.44783928925791" lon="-8.087617418715118"><ele>431.0</ele><time>2026-04-16T15:11:52.999Z</time></trkpt><trkpt lat="42.44795021675076" lon="-8.087698855600426"><ele>432.5</ele><time>2026-04-16T15:11:54Z</time></trkpt><trkpt lat="42.44805210168531" lon="-8.087778176542303"><ele>434.0</ele><time>2026-04-16T15:11:55Z</time></trkpt><trkpt lat="42.44815662022067" lon="-8.087857990757737"><ele>434.16666666666663</ele><time>2026-04-16T15:11:56Z</time></trkpt><trkpt lat="42.448242547228524" lon="-8.08792224582633"><ele>434.3333333333333</ele><time>2026-04-16T15:11:57Z</time></trkpt><trkpt lat="42.448326636801724" lon="-8.087981301032952"><ele>434.5</ele><time>2026-04-16T15:11:58Z</time></trkpt><trkpt lat="42.44838965683336" lon="-8.088034680580773"><ele>434.66666666666663</ele><time>2026-04-16T15:11:59Z</time></trkpt><trkpt lat="42.44844566020634" lon="-8.08807838448188"><ele>434.8333333333333</ele><time>2026-04-16T15:12:00Z</time></trkpt><trkpt lat="42.44850288160226" lon="-8.088121400791902"><ele>435.0</ele><time>2026-04-16T15:12:01Z</time></trkpt><trkpt lat="42.448595870253875" lon="-8.088204124264228"><ele>436.4</ele><time>2026-04-16T15:12:03Z</time></trkpt><trkpt lat="42.448657886993445" lon="-8.088261161215753"><ele>437.8</ele><time>2026-04-16T15:12:05Z</time></trkpt><trkpt lat="42.448739060322026" lon="-8.088361522409867"><ele>439.20000000000005</ele><time>2026-04-16T15:12:07Z</time></trkpt><trkpt lat="42.44881226641053" lon="-8.088500165382703"><ele>440.6</ele><time>2026-04-16T15:12:09Z</time></trkpt><trkpt lat="42.448857660625706" lon="-8.08858467925923"><ele>442.0</ele><time>2026-04-16T15:12:10Z</time></trkpt><trkpt lat="42.44892081852383" lon="-8.088608608954793"><ele>442.8</ele><time>2026-04-16T15:12:11Z</time></trkpt><trkpt lat="42.44901253735453" lon="-8.088638706130439"><ele>443.6</ele><time>2026-04-16T15:12:13Z</time></trkpt><trkpt lat="42.44905024751409" lon="-8.088721085642469"><ele>444.40000000000003</ele><time>2026-04-16T15:12:15Z</time></trkpt><trkpt lat="42.44902315042591" lon="-8.088642567312341"><ele>445.20000000000005</ele><time>2026-04-16T15:12:16Z</time></trkpt><trkpt lat="42.44902079149543" lon="-8.088813795093497"><ele>446.0</ele><time>2026-04-16T15:12:17Z</time></trkpt><trkpt lat="42.44899475762406" lon="-8.08894570902333"><ele>446.8</ele><time>2026-04-16T15:12:19Z</time></trkpt><trkpt lat="42.449016968360475" lon="-8.089096115528443"><ele>447.6</ele><time>2026-04-16T15:12:21Z</time></trkpt><trkpt lat="42.44903234648401" lon="-8.089189993344299"><ele>448.4</ele><time>2026-04-16T15:12:22Z</time></trkpt><trkpt lat="42.4490625776505" lon="-8.08932263175184"><ele>449.2</ele><time>2026-04-16T15:12:24Z</time></trkpt><trkpt lat="42.449084168048984" lon="-8.089471333574817"><ele>450.0</ele><time>2026-04-16T15:12:26Z</time></trkpt><trkpt lat="42.44912141177808" lon="-8.089616083748039"><ele>450.0</ele><time>2026-04-16T15:12:28Z</time></trkpt><trkpt lat="42.449139075956836" lon="-8.089700014287624"><ele>450.0</ele><time>2026-04-16T15:12:29Z</time></trkpt><trkpt lat="42.44917434430267" lon="-8.089807357324055"><ele>450.0</ele><time>2026-04-16T15:12:30Z</time></trkpt><trkpt lat="42.44919061896656" lon="-8.089913222056545"><ele>450.0</ele><time>2026-04-16T15:12:31Z</time></trkpt><trkpt lat="42.449214617285385" lon="-8.090014293137088"><ele>450.0</ele><time>2026-04-16T15:12:32Z</time></trkpt><trkpt lat="42.44923029308022" lon="-8.090121378225136"><ele>450.0</ele><time>2026-04-16T15:12:33Z</time></trkpt><trkpt lat="42.44927147781636" lon="-8.090213921955382"><ele>450.4</ele><time>2026-04-16T15:12:34Z</time></trkpt><trkpt lat="42.44928748424689" lon="-8.090325503631092"><ele>450.8</ele><time>2026-04-16T15:12:35Z</time></trkpt><trkpt lat="42.44932369592367" lon="-8.090450670775171"><ele>451.20000000000005</ele><time>2026-04-16T15:12:36Z</time></trkpt><trkpt lat="42.449359011121615" lon="-8.090562436480813"><ele>451.6</ele><time>2026-04-16T15:12:37Z</time></trkpt><trkpt lat="42.4493957335322" lon="-8.090688970264047"><ele>452.0</ele><time>2026-04-16T15:12:38Z</time></trkpt><trkpt lat="42.44943013467572" lon="-8.090824354817649"><ele>452.75</ele><time>2026-04-16T15:12:39Z</time></trkpt><trkpt lat="42.449461455345464" lon="-8.090966781249348"><ele>453.5</ele><time>2026-04-16T15:12:40Z</time></trkpt><trkpt lat="42.4494952574209" lon="-8.091105528214191"><ele>454.25</ele><time>2026-04-16T15:12:41Z</time></trkpt><trkpt lat="42.44953377949476" lon="-8.091251655975531"><ele>455.0</ele><time>2026-04-16T15:12:42Z</time></trkpt><trkpt lat="42.44957532150187" lon="-8.09140068851896"><ele>455.0</ele><time>2026-04-16T15:12:43Z</time></trkpt><trkpt lat="42.44962198849163" lon="-8.091547284857606"><ele>455.0</ele><time>2026-04-16T15:12:44Z</time></trkpt><trkpt lat="42.44966937465379" lon="-8.091679401832021"><ele>455.0</ele><time>2026-04-16T15:12:45Z</time></trkpt><trkpt lat="42.44971209563288" lon="-8.091802440570714"><ele>455.0</ele><time>2026-04-16T15:12:46Z</time></trkpt><trkpt lat="42.449763040951474" lon="-8.091896632576058"><ele>455.0</ele><time>2026-04-16T15:12:47Z</time></trkpt><trkpt lat="42.44983406969673" lon="-8.091987361413693"><ele>457.6</ele><time>2026-04-16T15:12:48Z</time></trkpt><trkpt lat="42.44990913120207" lon="-8.09209708281807"><ele>460.2</ele><time>2026-04-16T15:12:49Z</time></trkpt><trkpt lat="42.44997924162667" lon="-8.092184817171246"><ele>462.79999999999995</ele><time>2026-04-16T15:12:50Z</time></trkpt><trkpt lat="42.450056951891646" lon="-8.09227498863641"><ele>465.4</ele><time>2026-04-16T15:12:51Z</time></trkpt><trkpt lat="42.45014445500793" lon="-8.092377948901046"><ele>468.0</ele><time>2026-04-16T15:12:52Z</time></trkpt><trkpt lat="42.45023323438277" lon="-8.092465718077845"><ele>468.0</ele><time>2026-04-16T15:12:53Z</time></trkpt><trkpt lat="42.45031450977846" lon="-8.09253156261503"><ele>467.99999999999994</ele><time>2026-04-16T15:12:54Z</time></trkpt><trkpt lat="42.450425766450216" lon="-8.092607870743251"><ele>467.99999999999994</ele><time>2026-04-16T15:12:55Z</time></trkpt><trkpt lat="42.450532061601606" lon="-8.092662511787363"><ele>468.0</ele><time>2026-04-16T15:12:56Z</time></trkpt><trkpt lat="42.45063870355386" lon="-8.092707078664729"><ele>468.0</ele><time>2026-04-16T15:12:57Z</time></trkpt><trkpt lat="42.45075193768397" lon="-8.09275311090023"><ele>470.75</ele><time>2026-04-16T15:12:58Z</time></trkpt><trkpt lat="42.45087220207508" lon="-8.092775278486139"><ele>473.5</ele><time>2026-04-16T15:12:59Z</time></trkpt><trkpt lat="42.450992644152926" lon="-8.092771232284218"><ele>476.25</ele><time>2026-04-16T15:13:00Z</time></trkpt><trkpt lat="42.45111305208361" lon="-8.092759074660473"><ele>479.0</ele><time>2026-04-16T15:13:01Z</time></trkpt><trkpt lat="42.45122358038686" lon="-8.092741075222186"><ele>481.25</ele><time>2026-04-16T15:13:02Z</time></trkpt><trkpt lat="42.451332474706916" lon="-8.092705306099186"><ele>483.5</ele><time>2026-04-16T15:13:03Z</time></trkpt><trkpt lat="42.45144458319069" lon="-8.092656287868532"><ele>485.75</ele><time>2026-04-16T15:13:04Z</time></trkpt><trkpt lat="42.45156146128913" lon="-8.09260676173988"><ele>488.0</ele><time>2026-04-16T15:13:05Z</time></trkpt><trkpt lat="42.45168022538808" lon="-8.09255324127125"><ele>488.0</ele><time>2026-04-16T15:13:06Z</time></trkpt><trkpt lat="42.45179288476752" lon="-8.092491840206629"><ele>488.0</ele><time>2026-04-16T15:13:07Z</time></trkpt><trkpt lat="42.451906552779214" lon="-8.092420610566736"><ele>488.0</ele><time>2026-04-16T15:13:08Z</time></trkpt><trkpt lat="42.4520137197789" lon="-8.092344140933545"><ele>488.0</ele><time>2026-04-16T15:13:08.999Z</time></trkpt><trkpt lat="42.452114590554245" lon="-8.09226155943656"><ele>490.2</ele><time>2026-04-16T15:13:09.999Z</time></trkpt><trkpt lat="42.452216017378916" lon="-8.092190615245649"><ele>492.4</ele><time>2026-04-16T15:13:10.999Z</time></trkpt><trkpt lat="42.452317054553774" lon="-8.092127301890237"><ele>494.59999999999997</ele><time>2026-04-16T15:13:11.999Z</time></trkpt><trkpt lat="42.452410447564866" lon="-8.092065345645857"><ele>496.79999999999995</ele><time>2026-04-16T15:13:12.999Z</time></trkpt><trkpt lat="42.45251675912169" lon="-8.092002910798715"><ele>499.0</ele><time>2026-04-16T15:13:13.999Z</time></trkpt><trkpt lat="42.45262341013785" lon="-8.091928057044282"><ele>499.0</ele><time>2026-04-16T15:13:14.999Z</time></trkpt><trkpt lat="42.45272477380743" lon="-8.091847214542831"><ele>499.0</ele><time>2026-04-16T15:13:15.999Z</time></trkpt><trkpt lat="42.452833197176226" lon="-8.091776562852663"><ele>499.0</ele><time>2026-04-16T15:13:16.999Z</time></trkpt><trkpt lat="42.452945918952565" lon="-8.091722744291483"><ele>499.0</ele><time>2026-04-16T15:13:17.999Z</time></trkpt><trkpt lat="42.45306458078252" lon="-8.09167694468088"><ele>499.5</ele><time>2026-04-16T15:13:18.999Z</time></trkpt><trkpt lat="42.453185658930295" lon="-8.091633840953605"><ele>500.0</ele><time>2026-04-16T15:13:19.999Z</time></trkpt><trkpt lat="42.45331579010014" lon="-8.091609158263026"><ele>500.5</ele><time>2026-04-16T15:13:20.999Z</time></trkpt><trkpt lat="42.4534412598003" lon="-8.091596366903778"><ele>501.0</ele><time>2026-04-16T15:13:21.999Z</time></trkpt><trkpt lat="42.45357638227197" lon="-8.091589486886836"><ele>501.0</ele><time>2026-04-16T15:13:22.999Z</time></trkpt><trkpt lat="42.45370963008098" lon="-8.091596609916353"><ele>501.0</ele><time>2026-04-16T15:13:23.999Z</time></trkpt><trkpt lat="42.45383510785247" lon="-8.091619463715375"><ele>501.0</ele><time>2026-04-16T15:13:24.999Z</time></trkpt><trkpt lat="42.4539453821478" lon="-8.09163431657419"><ele>501.0</ele><time>2026-04-16T15:13:25.999Z</time></trkpt><trkpt lat="42.45407972791414" lon="-8.091655054595831"><ele>502.6</ele><time>2026-04-16T15:13:26.999Z</time></trkpt><trkpt lat="42.45419354651309" lon="-8.091669105934304"><ele>504.20000000000005</ele><time>2026-04-16T15:13:27.999Z</time></trkpt><trkpt lat="42.45429042046274" lon="-8.09168589409408"><ele>505.79999999999995</ele><time>2026-04-16T15:13:28.999Z</time></trkpt><trkpt lat="42.454366569570716" lon="-8.091696528359602"><ele>507.4</ele><time>2026-04-16T15:13:29.999Z</time></trkpt><trkpt lat="42.45447304138859" lon="-8.091725864904367"><ele>509.0</ele><time>2026-04-16T15:13:31.999Z</time></trkpt><trkpt lat="42.45455064397523" lon="-8.091779860393077"><ele>511.0</ele><time>2026-04-16T15:13:33.999Z</time></trkpt><trkpt lat="42.45465236491495" lon="-8.091913822186694"><ele>513.0</ele><time>2026-04-16T15:13:35.999Z</time></trkpt><trkpt lat="42.454697097525546" lon="-8.091999570811051"><ele>515.0</ele><time>2026-04-16T15:13:36.999Z</time></trkpt><trkpt lat="42.45473649279395" lon="-8.092088822644575"><ele>517.0</ele><time>2026-04-16T15:13:37.999Z</time></trkpt><trkpt lat="42.45478906970485" lon="-8.092179588871755"><ele>519.0</ele><time>2026-04-16T15:13:38.999Z</time></trkpt><trkpt lat="42.454839384359225" lon="-8.092263564684833"><ele>519.0</ele><time>2026-04-16T15:13:39.999Z</time></trkpt><trkpt lat="42.45490572232304" lon="-8.092335719462323"><ele>519.0</ele><time>2026-04-16T15:13:40.999Z</time></trkpt><trkpt lat="42.454975579498885" lon="-8.092408754719875"><ele>519.0</ele><time>2026-04-16T15:13:41.999Z</time></trkpt><trkpt lat="42.455047212350046" lon="-8.092484755724257"><ele>519.0</ele><time>2026-04-16T15:13:42.999Z</time></trkpt><trkpt lat="42.455115754065595" lon="-8.092574444290122"><ele>519.0</ele><time>2026-04-16T15:13:43.999Z</time></trkpt><trkpt lat="42.45517554681761" lon="-8.09266678648769"><ele>518.8333333333334</ele><time>2026-04-16T15:13:44.999Z</time></trkpt><trkpt lat="42.45523858868888" lon="-8.09275846057687"><ele>518.6666666666666</ele><time>2026-04-16T15:13:45.999Z</time></trkpt><trkpt lat="42.45530188909622" lon="-8.092858570320304"><ele>518.5</ele><time>2026-04-16T15:13:46.999Z</time></trkpt><trkpt lat="42.455354694668316" lon="-8.092945016515626"><ele>518.3333333333333</ele><time>2026-04-16T15:13:47.999Z</time></trkpt><trkpt lat="42.45539963659925" lon="-8.09301683611782"><ele>518.1666666666666</ele><time>2026-04-16T15:13:48.999Z</time></trkpt><trkpt lat="42.45544516036039" lon="-8.093082595929426"><ele>518.0</ele><time>2026-04-16T15:13:49.999Z</time></trkpt><trkpt lat="42.455521901270394" lon="-8.093188200232774"><ele>518.8333333333333</ele><time>2026-04-16T15:13:51.999Z</time></trkpt><trkpt lat="42.45558043945379" lon="-8.093253881278056"><ele>519.6666666666666</ele><time>2026-04-16T15:13:53.999Z</time></trkpt><trkpt lat="42.45558670532921" lon="-8.093362331243469"><ele>520.5</ele><time>2026-04-16T15:13:56.999Z</time></trkpt><trkpt lat="42.45551329246763" lon="-8.093444221345736"><ele>521.3333333333334</ele><time>2026-04-16T15:13:58.999Z</time></trkpt><trkpt lat="42.45541684861354" lon="-8.093519610695886"><ele>522.1666666666667</ele><time>2026-04-16T15:14:01Z</time></trkpt><trkpt lat="42.45535976561166" lon="-8.093560100835782"><ele>523.0</ele><time>2026-04-16T15:14:02Z</time></trkpt><trkpt lat="42.45529455015057" lon="-8.093581305947593"><ele>523.0</ele><time>2026-04-16T15:14:03Z</time></trkpt><trkpt lat="42.45524425387002" lon="-8.09364141514498"><ele>523.0</ele><time>2026-04-16T15:14:04Z</time></trkpt><trkpt lat="42.45513812380148" lon="-8.093724212902329"><ele>523.0</ele><time>2026-04-16T15:14:06Z</time></trkpt><trkpt lat="42.455035230773014" lon="-8.093809501725652"><ele>523.0</ele><time>2026-04-16T15:14:08Z</time></trkpt><trkpt lat="42.454927561504164" lon="-8.093887407010683"><ele>523.0</ele><time>2026-04-16T15:14:10Z</time></trkpt><trkpt lat="42.454859882460205" lon="-8.093927855946053"><ele>522.9999999999999</ele><time>2026-04-16T15:14:11Z</time></trkpt><trkpt lat="42.45479547269357" lon="-8.093980540330492"><ele>523.0</ele><time>2026-04-16T15:14:12Z</time></trkpt><trkpt lat="42.45472796506745" lon="-8.094028821889733"><ele>523.0</ele><time>2026-04-16T15:14:13Z</time></trkpt><trkpt lat="42.45465913309556" lon="-8.094072773584207"><ele>523.0</ele><time>2026-04-16T15:14:14Z</time></trkpt><trkpt lat="42.45458830276683" lon="-8.09410079594026"><ele>523.0</ele><time>2026-04-16T15:14:15Z</time></trkpt><trkpt lat="42.454515625461106" lon="-8.094112903174674"><ele>522.9999999999999</ele><time>2026-04-16T15:14:16Z</time></trkpt><trkpt lat="42.45444253373106" lon="-8.094104066396712"><ele>523.0</ele><time>2026-04-16T15:14:17Z</time></trkpt><trkpt lat="42.454372601557814" lon="-8.09407012125625"><ele>521.6666666666667</ele><time>2026-04-16T15:14:18Z</time></trkpt><trkpt lat="42.454320010561624" lon="-8.094006817514797"><ele>520.3333333333334</ele><time>2026-04-16T15:14:19Z</time></trkpt><trkpt lat="42.45427916945805" lon="-8.09392883023242"><ele>519.0</ele><time>2026-04-16T15:14:20Z</time></trkpt><trkpt lat="42.45426384953941" lon="-8.09383158483208"><ele>517.6666666666666</ele><time>2026-04-16T15:14:21Z</time></trkpt><trkpt lat="42.45424621033355" lon="-8.093745780827327"><ele>516.3333333333333</ele><time>2026-04-16T15:14:22Z</time></trkpt><trkpt lat="42.454284822650294" lon="-8.093629621767445"><ele>515.0</ele><time>2026-04-16T15:14:24Z</time></trkpt><trkpt lat="42.45424164715413" lon="-8.093715389630049"><ele>515.0</ele><time>2026-04-16T15:14:32Z</time></trkpt><trkpt lat="42.45406716891244" lon="-8.093817264621945"><ele>515.0</ele><time>2026-04-16T15:14:34Z</time></trkpt><trkpt lat="42.45402175035917" lon="-8.093886287572978"><ele>515.0</ele><time>2026-04-16T15:14:35Z</time></trkpt><trkpt lat="42.45397435381654" lon="-8.093982805173448"><ele>515.0</ele><time>2026-04-16T15:14:37Z</time></trkpt><trkpt lat="42.4539340715946" lon="-8.094069902570737"><ele>515.0</ele><time>2026-04-16T15:14:39Z</time></trkpt><trkpt lat="42.453890732963984" lon="-8.094151738530707"><ele>515.0</ele><time>2026-04-16T15:14:41Z</time></trkpt><trkpt lat="42.45382848626515" lon="-8.094223902383952"><ele>515.0</ele><time>2026-04-16T15:14:43Z</time></trkpt><trkpt lat="42.45377792032372" lon="-8.094307340954096"><ele>515.0</ele><time>2026-04-16T15:14:45Z</time></trkpt><trkpt lat="42.45373346265129" lon="-8.094380700301002"><ele>515.0</ele><time>2026-04-16T15:14:47Z</time></trkpt><trkpt lat="42.453684789995535" lon="-8.094461014767608"><ele>515.0</ele><time>2026-04-16T15:14:50Z</time></trkpt><trkpt lat="42.453635995093904" lon="-8.094541530951359"><ele>515.0</ele><time>2026-04-16T15:14:53Z</time></trkpt><trkpt lat="42.45369506418257" lon="-8.094695260423693"><ele>513.1666666666666</ele><time>2026-04-16T15:14:55Z</time></trkpt><trkpt lat="42.45366201779267" lon="-8.094799606356055"><ele>511.3333333333333</ele><time>2026-04-16T15:14:58Z</time></trkpt><trkpt lat="42.45362800028533" lon="-8.09490105662137"><ele>509.5</ele><time>2026-04-16T15:15:02Z</time></trkpt><trkpt lat="42.45355644513306" lon="-8.09499088567827"><ele>507.66666666666663</ele><time>2026-04-16T15:15:04.999Z</time></trkpt><trkpt lat="42.453498692600625" lon="-8.095077761972622"><ele>505.8333333333333</ele><time>2026-04-16T15:15:06.999Z</time></trkpt><trkpt lat="42.453457081247784" lon="-8.095193270800822"><ele>504.0</ele><time>2026-04-16T15:15:09.999Z</time></trkpt><trkpt lat="42.453429358566275" lon="-8.095277644406208"><ele>504.0</ele><time>2026-04-16T15:15:12.999Z</time></trkpt><trkpt lat="42.4534564028536" lon="-8.095395092481322"><ele>504.0</ele><time>2026-04-16T15:15:16.999Z</time></trkpt><trkpt lat="42.453494582107766" lon="-8.095501966191106"><ele>504.0</ele><time>2026-04-16T15:15:18.999Z</time></trkpt><trkpt lat="42.453538639736045" lon="-8.095586863784083"><ele>504.0</ele><time>2026-04-16T15:15:20.999Z</time></trkpt><trkpt lat="42.45362274642473" lon="-8.09560866589055"><ele>504.0</ele><time>2026-04-16T15:15:22.999Z</time></trkpt><trkpt lat="42.45368359346658" lon="-8.095662091919165"><ele>504.0</ele><time>2026-04-16T15:15:25.999Z</time></trkpt><trkpt lat="42.453765788328134" lon="-8.09569074460998"><ele>504.0</ele><time>2026-04-16T15:15:28.999Z</time></trkpt><trkpt lat="42.45381892416313" lon="-8.09574449828044"><ele>504.0</ele><time>2026-04-16T15:15:31.999Z</time></trkpt><trkpt lat="42.45382874132949" lon="-8.09584444897804"><ele>504.0</ele><time>2026-04-16T15:15:35.999Z</time></trkpt><trkpt lat="42.45380297094136" lon="-8.095925920217981"><ele>504.0</ele><time>2026-04-16T15:15:46.999Z</time></trkpt><trkpt lat="42.453795276691395" lon="-8.095794623574196"><ele>504.0</ele><time>2026-04-16T15:16:14Z</time></trkpt><trkpt lat="42.453753234980525" lon="-8.095718062137845"><ele>504.0</ele><time>2026-04-16T15:16:16Z</time></trkpt><trkpt lat="42.45366294436562" lon="-8.095656165274118"><ele>504.0</ele><time>2026-04-16T15:16:18Z</time></trkpt><trkpt lat="42.4535907447615" lon="-8.095638789441637"><ele>504.0</ele><time>2026-04-16T15:16:20Z</time></trkpt><trkpt lat="42.45353602607189" lon="-8.095593875264905"><ele>504.0</ele><time>2026-04-16T15:16:22Z</time></trkpt><trkpt lat="42.45350723986796" lon="-8.09551354389885"><ele>504.0</ele><time>2026-04-16T15:16:24Z</time></trkpt><trkpt lat="42.45347471565898" lon="-8.09543065049809"><ele>504.0</ele><time>2026-04-16T15:16:26Z</time></trkpt><trkpt lat="42.4534417747683" lon="-8.095347147270779"><ele>504.0</ele><time>2026-04-16T15:16:28Z</time></trkpt><trkpt lat="42.4534242086463" lon="-8.095262573177784"><ele>504.0</ele><time>2026-04-16T15:16:30Z</time></trkpt><trkpt lat="42.453338919825676" lon="-8.095235811965654"><ele>504.0</ele><time>2026-04-16T15:16:32Z</time></trkpt><trkpt lat="42.4532370152951" lon="-8.095192963214124"><ele>504.0</ele><time>2026-04-16T15:16:34Z</time></trkpt><trkpt lat="42.45319466642636" lon="-8.095127043011367"><ele>504.0</ele><time>2026-04-16T15:16:37Z</time></trkpt><trkpt lat="42.45315124939625" lon="-8.095060365632843"><ele>504.0</ele><time>2026-04-16T15:16:40Z</time></trkpt><trkpt lat="42.45307505547071" lon="-8.094987338253292"><ele>504.0</ele><time>2026-04-16T15:16:43Z</time></trkpt><trkpt lat="42.453000643494825" lon="-8.094913330160704"><ele>504.0</ele><time>2026-04-16T15:16:45Z</time></trkpt><trkpt lat="42.4529378763383" lon="-8.094830567972148"><ele>501.0</ele><time>2026-04-16T15:16:47Z</time></trkpt><trkpt lat="42.45288040593046" lon="-8.094786171497637"><ele>498.0</ele><time>2026-04-16T15:16:49Z</time></trkpt><trkpt lat="42.452816983323224" lon="-8.094697419305016"><ele>495.0</ele><time>2026-04-16T15:16:51Z</time></trkpt><trkpt lat="42.45273952430384" lon="-8.094630958190073"><ele>492.0</ele><time>2026-04-16T15:16:53Z</time></trkpt><trkpt lat="42.452659425772545" lon="-8.094556209616023"><ele>489.0</ele><time>2026-04-16T15:16:55Z</time></trkpt><trkpt lat="42.45255653358586" lon="-8.09448568400305"><ele>489.0</ele><time>2026-04-16T15:16:57Z</time></trkpt><trkpt lat="42.45246817045217" lon="-8.094406371170788"><ele>489.0</ele><time>2026-04-16T15:16:59Z</time></trkpt><trkpt lat="42.45238224989171" lon="-8.09428544164057"><ele>489.0</ele><time>2026-04-16T15:17:01Z</time></trkpt><trkpt lat="42.45234483687588" lon="-8.094192781660395"><ele>489.0</ele><time>2026-04-16T15:17:02Z</time></trkpt><trkpt lat="42.4523019541572" lon="-8.094101550179776"><ele>489.0</ele><time>2026-04-16T15:17:03Z</time></trkpt><trkpt lat="42.45226718303707" lon="-8.094010565268102"><ele>489.1666666666667</ele><time>2026-04-16T15:17:04Z</time></trkpt><trkpt lat="42.4522264903506" lon="-8.093915175978124"><ele>489.33333333333337</ele><time>2026-04-16T15:17:05Z</time></trkpt><trkpt lat="42.452195288318066" lon="-8.093821112369511"><ele>489.5</ele><time>2026-04-16T15:17:06Z</time></trkpt><trkpt lat="42.4521574686077" lon="-8.093741864205944"><ele>489.6666666666667</ele><time>2026-04-16T15:17:07Z</time></trkpt><trkpt lat="42.452048761588564" lon="-8.09367498834149"><ele>489.83333333333337</ele><time>2026-04-16T15:17:09Z</time></trkpt><trkpt lat="42.45198394858642" lon="-8.093653072557979"><ele>490.0</ele><time>2026-04-16T15:17:10Z</time></trkpt><trkpt lat="42.45191482966364" lon="-8.093635973738627"><ele>489.33333333333337</ele><time>2026-04-16T15:17:10.999Z</time></trkpt><trkpt lat="42.45181225434311" lon="-8.09357954656504"><ele>488.6666666666667</ele><time>2026-04-16T15:17:12.999Z</time></trkpt><trkpt lat="42.451750475175515" lon="-8.09355974920291"><ele>488.0</ele><time>2026-04-16T15:17:16.999Z</time></trkpt><trkpt lat="42.45183686507159" lon="-8.093436061874144"><ele>487.33333333333337</ele><time>2026-04-16T15:17:19.999Z</time></trkpt><trkpt lat="42.45189882962431" lon="-8.093412460788702"><ele>486.6666666666667</ele><time>2026-04-16T15:17:20.999Z</time></trkpt><trkpt lat="42.451960279625034" lon="-8.093385880362884"><ele>486.0</ele><time>2026-04-16T15:17:21.999Z</time></trkpt><trkpt lat="42.45204196784339" lon="-8.093325634393498"><ele>486.0</ele><time>2026-04-16T15:17:22.999Z</time></trkpt><trkpt lat="42.45210113468404" lon="-8.093272380078021"><ele>486.0</ele><time>2026-04-16T15:17:23.999Z</time></trkpt><trkpt lat="42.45216352165263" lon="-8.093195507113117"><ele>486.0</ele><time>2026-04-16T15:17:24.999Z</time></trkpt><trkpt lat="42.452241095619065" lon="-8.093123973129256"><ele>486.0</ele><time>2026-04-16T15:17:25.999Z</time></trkpt><trkpt lat="42.45232787133706" lon="-8.093037435603588"><ele>486.0</ele><time>2026-04-16T15:17:26.999Z</time></trkpt><trkpt lat="42.45240952070424" lon="-8.092956143505145"><ele>487.4</ele><time>2026-04-16T15:17:27.999Z</time></trkpt><trkpt lat="42.452493676036234" lon="-8.092870153465599"><ele>488.8</ele><time>2026-04-16T15:17:28.999Z</time></trkpt><trkpt lat="42.45256280362846" lon="-8.092786747732196"><ele>490.19999999999993</ele><time>2026-04-16T15:17:29.999Z</time></trkpt><trkpt lat="42.45262455497197" lon="-8.092703608638882"><ele>491.59999999999997</ele><time>2026-04-16T15:17:30.999Z</time></trkpt><trkpt lat="42.45268563900929" lon="-8.092618589893497"><ele>493.0</ele><time>2026-04-16T15:17:31.999Z</time></trkpt><trkpt lat="42.452734925915735" lon="-8.092524045724474"><ele>493.0</ele><time>2026-04-16T15:17:32.999Z</time></trkpt><trkpt lat="42.45275630495892" lon="-8.092424840161256"><ele>492.99999999999994</ele><time>2026-04-16T15:17:33.999Z</time></trkpt><trkpt lat="42.452754194506284" lon="-8.092332284988514"><ele>492.99999999999994</ele><time>2026-04-16T15:17:34.999Z</time></trkpt><trkpt lat="42.45276701691561" lon="-8.092187040405413"><ele>493.0</ele><time>2026-04-16T15:17:36.999Z</time></trkpt><trkpt lat="42.452906225821145" lon="-8.092139495387189"><ele>493.0</ele><time>2026-04-16T15:17:37.999Z</time></trkpt><trkpt lat="42.45298743741245" lon="-8.092075719449547"><ele>495.0</ele><time>2026-04-16T15:17:38.999Z</time></trkpt><trkpt lat="42.45308365350364" lon="-8.092015889462148"><ele>497.0</ele><time>2026-04-16T15:17:39.999Z</time></trkpt><trkpt lat="42.45319553865571" lon="-8.091973247738938"><ele>499.0</ele><time>2026-04-16T15:17:40.999Z</time></trkpt><trkpt lat="42.45330626862684" lon="-8.09193104779207"><ele>501.0</ele><time>2026-04-16T15:17:41.999Z</time></trkpt><trkpt lat="42.453429083488324" lon="-8.091915632889082"><ele>501.0</ele><time>2026-04-16T15:17:42.999Z</time></trkpt><trkpt lat="42.45354916885166" lon="-8.091915283739198"><ele>501.0</ele><time>2026-04-16T15:17:43.999Z</time></trkpt><trkpt lat="42.45366096693046" lon="-8.09192491832199"><ele>501.0</ele><time>2026-04-16T15:17:44.999Z</time></trkpt><trkpt lat="42.45375782734956" lon="-8.091935813364415"><ele>501.0</ele><time>2026-04-16T15:17:45.999Z</time></trkpt><trkpt lat="42.4538525049195" lon="-8.091947425772933"><ele>501.0</ele><time>2026-04-16T15:17:46.999Z</time></trkpt><trkpt lat="42.45393913161138" lon="-8.091978453980298"><ele>502.3333333333333</ele><time>2026-04-16T15:17:47.999Z</time></trkpt><trkpt lat="42.45401120930188" lon="-8.092014881603554"><ele>503.66666666666663</ele><time>2026-04-16T15:17:48.999Z</time></trkpt><trkpt lat="42.45408507044215" lon="-8.092070795909908"><ele>505.0</ele><time>2026-04-16T15:17:49.999Z</time></trkpt><trkpt lat="42.45415304509484" lon="-8.092133397910294"><ele>506.3333333333333</ele><time>2026-04-16T15:17:50.999Z</time></trkpt><trkpt lat="42.45421563237256" lon="-8.092248685770315"><ele>507.66666666666663</ele><time>2026-04-16T15:17:52.999Z</time></trkpt><trkpt lat="42.45427042825563" lon="-8.092317114136403"><ele>509.0</ele><time>2026-04-16T15:17:54.999Z</time></trkpt><trkpt lat="42.45431263150922" lon="-8.092226377350187"><ele>508.99999999999994</ele><time>2026-04-16T15:17:58.999Z</time></trkpt><trkpt lat="42.454271096003765" lon="-8.092162124940192"><ele>509.0</ele><time>2026-04-16T15:17:59.999Z</time></trkpt><trkpt lat="42.45419887245914" lon="-8.09207262237098"><ele>509.0</ele><time>2026-04-16T15:18:01.999Z</time></trkpt><trkpt lat="42.454152840821685" lon="-8.091997873992405"><ele>509.0</ele><time>2026-04-16T15:18:04.999Z</time></trkpt><trkpt lat="42.45422387734222" lon="-8.091885947206823"><ele>508.99999999999994</ele><time>2026-04-16T15:18:09.999Z</time></trkpt><trkpt lat="42.454285344473966" lon="-8.091926928608094"><ele>509.0</ele><time>2026-04-16T15:18:10.999Z</time></trkpt><trkpt lat="42.45434344482211" lon="-8.091972946663883"><ele>509.0</ele><time>2026-04-16T15:18:12Z</time></trkpt><trkpt lat="42.45441072028624" lon="-8.092032947646603"><ele>509.0</ele><time>2026-04-16T15:18:13Z</time></trkpt><trkpt lat="42.45448476826486" lon="-8.092100396135034"><ele>509.0</ele><time>2026-04-16T15:18:14Z</time></trkpt><trkpt lat="42.45456776371385" lon="-8.092175935521336"><ele>509.0</ele><time>2026-04-16T15:18:15Z</time></trkpt><trkpt lat="42.45464577726722" lon="-8.092261096595855"><ele>509.0</ele><time>2026-04-16T15:18:16Z</time></trkpt><trkpt lat="42.45472627846691" lon="-8.092354683262775"><ele>511.25</ele><time>2026-04-16T15:18:17Z</time></trkpt><trkpt lat="42.45480233894123" lon="-8.092456884886126"><ele>513.5</ele><time>2026-04-16T15:18:18Z</time></trkpt><trkpt lat="42.45487920297417" lon="-8.092568459074212"><ele>515.75</ele><time>2026-04-16T15:18:19Z</time></trkpt><trkpt lat="42.45495912521149" lon="-8.092684775875705"><ele>518.0</ele><time>2026-04-16T15:18:20Z</time></trkpt><trkpt lat="42.45504001473307" lon="-8.092804170606527"><ele>518.0</ele><time>2026-04-16T15:18:21Z</time></trkpt><trkpt lat="42.45511807439887" lon="-8.09292716096531"><ele>518.0</ele><time>2026-04-16T15:18:22Z</time></trkpt><trkpt lat="42.455198036580526" lon="-8.093048980923225"><ele>518.0</ele><time>2026-04-16T15:18:23Z</time></trkpt><trkpt lat="42.45528172176126" lon="-8.093173822079041"><ele>518.0</ele><time>2026-04-16T15:18:24Z</time></trkpt><trkpt lat="42.455361107938494" lon="-8.093296802068247"><ele>519.25</ele><time>2026-04-16T15:18:25Z</time></trkpt><trkpt lat="42.45544234836341" lon="-8.09342630512964"><ele>520.5</ele><time>2026-04-16T15:18:26Z</time></trkpt><trkpt lat="42.45552709999092" lon="-8.093556597440287"><ele>521.75</ele><time>2026-04-16T15:18:27Z</time></trkpt><trkpt lat="42.45561643953948" lon="-8.093690203258044"><ele>523.0</ele><time>2026-04-16T15:18:28Z</time></trkpt><trkpt lat="42.455708942440076" lon="-8.093807959176448"><ele>522.5</ele><time>2026-04-16T15:18:29Z</time></trkpt><trkpt lat="42.45580482450289" lon="-8.093923204395795"><ele>522.0</ele><time>2026-04-16T15:18:30Z</time></trkpt><trkpt lat="42.45590692529076" lon="-8.09401859305996"><ele>521.5</ele><time>2026-04-16T15:18:31Z</time></trkpt><trkpt lat="42.456016310288305" lon="-8.094115204925572"><ele>521.0</ele><time>2026-04-16T15:18:32Z</time></trkpt><trkpt lat="42.45612891282827" lon="-8.094205929209755"><ele>521.0</ele><time>2026-04-16T15:18:33Z</time></trkpt><trkpt lat="42.45624456090785" lon="-8.094284046062006"><ele>521.0</ele><time>2026-04-16T15:18:34Z</time></trkpt><trkpt lat="42.456367303910405" lon="-8.094353342961393"><ele>521.0</ele><time>2026-04-16T15:18:35Z</time></trkpt><trkpt lat="42.45649695522827" lon="-8.09440795105841"><ele>521.0</ele><time>2026-04-16T15:18:36Z</time></trkpt><trkpt lat="42.45663027470846" lon="-8.094446475003537"><ele>523.0</ele><time>2026-04-16T15:18:37Z</time></trkpt><trkpt lat="42.45676955263255" lon="-8.094472407736127"><ele>525.0</ele><time>2026-04-16T15:18:38Z</time></trkpt><trkpt lat="42.45691408844962" lon="-8.094489795696253"><ele>527.0</ele><time>2026-04-16T15:18:39Z</time></trkpt><trkpt lat="42.45705982210315" lon="-8.094481810347467"><ele>529.0</ele><time>2026-04-16T15:18:40Z</time></trkpt><trkpt lat="42.4572103728839" lon="-8.09446757250567"><ele>529.0</ele><time>2026-04-16T15:18:41Z</time></trkpt><trkpt lat="42.45735722992212" lon="-8.09442563284613"><ele>529.0</ele><time>2026-04-16T15:18:42Z</time></trkpt><trkpt lat="42.45750929032144" lon="-8.094364877253783"><ele>529.0</ele><time>2026-04-16T15:18:43Z</time></trkpt><trkpt lat="42.4576544170323" lon="-8.094293611590182"><ele>529.0</ele><time>2026-04-16T15:18:44Z</time></trkpt><trkpt lat="42.45779621688833" lon="-8.09420677151959"><ele>529.0</ele><time>2026-04-16T15:18:45Z</time></trkpt><trkpt lat="42.45793432780118" lon="-8.09410662403312"><ele>529.0</ele><time>2026-04-16T15:18:46Z</time></trkpt><trkpt lat="42.458072356799185" lon="-8.094001419574015"><ele>531.0</ele><time>2026-04-16T15:18:47Z</time></trkpt><trkpt lat="42.458208201318286" lon="-8.093901911414845"><ele>533.0</ele><time>2026-04-16T15:18:48Z</time></trkpt><trkpt lat="42.45833590858598" lon="-8.093807021126032"><ele>535.0</ele><time>2026-04-16T15:18:49Z</time></trkpt><trkpt lat="42.45845288636809" lon="-8.093710082699909"><ele>537.0</ele><time>2026-04-16T15:18:50Z</time></trkpt><trkpt lat="42.45855576572278" lon="-8.09362643247783"><ele>537.0</ele><time>2026-04-16T15:18:51Z</time></trkpt><trkpt lat="42.45865887445537" lon="-8.093546484636667"><ele>537.0</ele><time>2026-04-16T15:18:52Z</time></trkpt><trkpt lat="42.45875452223469" lon="-8.093475173879577"><ele>537.0</ele><time>2026-04-16T15:18:53Z</time></trkpt><trkpt lat="42.45884342533851" lon="-8.093411616036267"><ele>537.0</ele><time>2026-04-16T15:18:54Z</time></trkpt><trkpt lat="42.458940394258654" lon="-8.093350076938936"><ele>537.0</ele><time>2026-04-16T15:18:55Z</time></trkpt><trkpt lat="42.459036339435315" lon="-8.09329149072343"><ele>540.4</ele><time>2026-04-16T15:18:56Z</time></trkpt><trkpt lat="42.45913451946673" lon="-8.093228558454866"><ele>543.8000000000001</ele><time>2026-04-16T15:18:57Z</time></trkpt><trkpt lat="42.45923508141598" lon="-8.093169212933407"><ele>547.2</ele><time>2026-04-16T15:18:58Z</time></trkpt><trkpt lat="42.45934405843778" lon="-8.093113287348812"><ele>550.6</ele><time>2026-04-16T15:18:59Z</time></trkpt><trkpt lat="42.459452224341184" lon="-8.093062403111798"><ele>554.0</ele><time>2026-04-16T15:19:00Z</time></trkpt><trkpt lat="42.45956247941723" lon="-8.093014995124383"><ele>553.5</ele><time>2026-04-16T15:19:01Z</time></trkpt><trkpt lat="42.459672968838554" lon="-8.092976855590925"><ele>553.0</ele><time>2026-04-16T15:19:02Z</time></trkpt><trkpt lat="42.45976240599261" lon="-8.092946887788825"><ele>552.5</ele><time>2026-04-16T15:19:03Z</time></trkpt><trkpt lat="42.45983128286101" lon="-8.092927290888595"><ele>552.0</ele><time>2026-04-16T15:19:04Z</time></trkpt><trkpt lat="42.45989756291266" lon="-8.092910718368582"><ele>551.5</ele><time>2026-04-16T15:19:04.999Z</time></trkpt><trkpt lat="42.45996855170991" lon="-8.092901722817603"><ele>551.0</ele><time>2026-04-16T15:19:05.999Z</time></trkpt><trkpt lat="42.46004389578738" lon="-8.092893100047931"><ele>551.0</ele><time>2026-04-16T15:19:06.999Z</time></trkpt><trkpt lat="42.4601295627738" lon="-8.092886975039415"><ele>551.0</ele><time>2026-04-16T15:19:07.999Z</time></trkpt><trkpt lat="42.460217935074475" lon="-8.092889289968547"><ele>551.0</ele><time>2026-04-16T15:19:08.999Z</time></trkpt><trkpt lat="42.460312350114116" lon="-8.092892469269264"><ele>551.0</ele><time>2026-04-16T15:19:09.999Z</time></trkpt><trkpt lat="42.46040660579433" lon="-8.092899621206397"><ele>551.0</ele><time>2026-04-16T15:19:10.999Z</time></trkpt><trkpt lat="42.460504083619384" lon="-8.092919107414335"><ele>551.8</ele><time>2026-04-16T15:19:11.999Z</time></trkpt><trkpt lat="42.460610825716465" lon="-8.09294658958922"><ele>552.6</ele><time>2026-04-16T15:19:12.999Z</time></trkpt><trkpt lat="42.46071382094145" lon="-8.092976474851747"><ele>553.4</ele><time>2026-04-16T15:19:13.999Z</time></trkpt><trkpt lat="42.460811504680194" lon="-8.093008465053355"><ele>554.2</ele><time>2026-04-16T15:19:14.999Z</time></trkpt><trkpt lat="42.460918669349695" lon="-8.093057203621983"><ele>555.0</ele><time>2026-04-16T15:19:15.999Z</time></trkpt><trkpt lat="42.461014952570864" lon="-8.093120916184388"><ele>555.0</ele><time>2026-04-16T15:19:16.999Z</time></trkpt><trkpt lat="42.46111906357773" lon="-8.09319627936454"><ele>555.0</ele><time>2026-04-16T15:19:17.999Z</time></trkpt><trkpt lat="42.461217243002785" lon="-8.093274736548054"><ele>555.0</ele><time>2026-04-16T15:19:18.999Z</time></trkpt><trkpt lat="42.46131453604128" lon="-8.093359671843878"><ele>555.0</ele><time>2026-04-16T15:19:19.999Z</time></trkpt><trkpt lat="42.461413055850514" lon="-8.093449488923012"><ele>555.4</ele><time>2026-04-16T15:19:20.999Z</time></trkpt><trkpt lat="42.46150113659738" lon="-8.093544383387922"><ele>555.8</ele><time>2026-04-16T15:19:21.999Z</time></trkpt><trkpt lat="42.461583271985596" lon="-8.09363702444445"><ele>556.2</ele><time>2026-04-16T15:19:22.999Z</time></trkpt><trkpt lat="42.46165885675659" lon="-8.093731689382258"><ele>556.6</ele><time>2026-04-16T15:19:23.999Z</time></trkpt><trkpt lat="42.46171364499774" lon="-8.093823646992053"><ele>557.0</ele><time>2026-04-16T15:19:24.999Z</time></trkpt><trkpt lat="42.461764229418435" lon="-8.093912587594517"><ele>557.0</ele><time>2026-04-16T15:19:25.999Z</time></trkpt><trkpt lat="42.46180789034743" lon="-8.093995806916595"><ele>557.0</ele><time>2026-04-16T15:19:26.999Z</time></trkpt><trkpt lat="42.4618472177361" lon="-8.094070866531863"><ele>557.0</ele><time>2026-04-16T15:19:27.999Z</time></trkpt><trkpt lat="42.46188538187571" lon="-8.094140639069455"><ele>557.0</ele><time>2026-04-16T15:19:28.999Z</time></trkpt><trkpt lat="42.46195378318736" lon="-8.09424784797878"><ele>557.0</ele><time>2026-04-16T15:19:30.999Z</time></trkpt><trkpt lat="42.46195764005387" lon="-8.09434687590095"><ele>557.0</ele><time>2026-04-16T15:19:32.999Z</time></trkpt><trkpt lat="42.46187395492293" lon="-8.094410615862383"><ele>557.0</ele><time>2026-04-16T15:19:34.999Z</time></trkpt><trkpt lat="42.46178071186276" lon="-8.09451074007311"><ele>557.0</ele><time>2026-04-16T15:19:36.999Z</time></trkpt><trkpt lat="42.46174367171749" lon="-8.094676324434355"><ele>557.0</ele><time>2026-04-16T15:19:38.999Z</time></trkpt><trkpt lat="42.46173428863872" lon="-8.094768405745205"><ele>557.0</ele><time>2026-04-16T15:19:39.999Z</time></trkpt><trkpt lat="42.46172238760319" lon="-8.09486955815054"><ele>557.0</ele><time>2026-04-16T15:19:40.999Z</time></trkpt><trkpt lat="42.461713992313356" lon="-8.094964960870568"><ele>557.6666666666666</ele><time>2026-04-16T15:19:41.999Z</time></trkpt><trkpt lat="42.4617211247081" lon="-8.095067034922328"><ele>558.3333333333333</ele><time>2026-04-16T15:19:42.999Z</time></trkpt><trkpt lat="42.461716643143276" lon="-8.09518010419978"><ele>559.0</ele><time>2026-04-16T15:19:43.999Z</time></trkpt><trkpt lat="42.46171335139961" lon="-8.095291272204864"><ele>559.6666666666666</ele><time>2026-04-16T15:19:44.999Z</time></trkpt><trkpt lat="42.46169782710828" lon="-8.095407476432417"><ele>560.3333333333334</ele><time>2026-04-16T15:19:45.999Z</time></trkpt><trkpt lat="42.46170888221411" lon="-8.095520174358166"><ele>561.0</ele><time>2026-04-16T15:19:46.999Z</time></trkpt><trkpt lat="42.46171920366606" lon="-8.095641537735581"><ele>561.8</ele><time>2026-04-16T15:19:47.999Z</time></trkpt><trkpt lat="42.461733960685415" lon="-8.095759508195016"><ele>562.6</ele><time>2026-04-16T15:19:48.999Z</time></trkpt><trkpt lat="42.461749646549876" lon="-8.09586135239962"><ele>563.4</ele><time>2026-04-16T15:19:49.999Z</time></trkpt><trkpt lat="42.46176215004114" lon="-8.095950490505638"><ele>564.2</ele><time>2026-04-16T15:19:50.999Z</time></trkpt><trkpt lat="42.4617848869533" lon="-8.09611362955019"><ele>565.0</ele><time>2026-04-16T15:19:52.999Z</time></trkpt><trkpt lat="42.46180195115662" lon="-8.09627003805391"><ele>565.0</ele><time>2026-04-16T15:19:54.999Z</time></trkpt><trkpt lat="42.46182220832161" lon="-8.096382390803125"><ele>565.0</ele><time>2026-04-16T15:19:56.999Z</time></trkpt><trkpt lat="42.46169601697203" lon="-8.096462640513437"><ele>565.0</ele><time>2026-04-16T15:19:59.999Z</time></trkpt><trkpt lat="42.46162357181005" lon="-8.096511469187984"><ele>565.0</ele><time>2026-04-16T15:20:01.999Z</time></trkpt><trkpt lat="42.46157986300814" lon="-8.096594399023362"><ele>565.0</ele><time>2026-04-16T15:20:03.999Z</time></trkpt><trkpt lat="42.46161887053096" lon="-8.096689514821385"><ele>565.4</ele><time>2026-04-16T15:20:06.999Z</time></trkpt><trkpt lat="42.4616299211597" lon="-8.096797659518959"><ele>565.8</ele><time>2026-04-16T15:20:09.999Z</time></trkpt><trkpt lat="42.46164047026033" lon="-8.096900896059871"><ele>566.2</ele><time>2026-04-16T15:20:11.999Z</time></trkpt><trkpt lat="42.46164542530048" lon="-8.097014032093725"><ele>566.6</ele><time>2026-04-16T15:20:13.999Z</time></trkpt><trkpt lat="42.461677232620524" lon="-8.097150641914755"><ele>567.0</ele><time>2026-04-16T15:20:15.999Z</time></trkpt><trkpt lat="42.46171209837632" lon="-8.09730124245074"><ele>567.0</ele><time>2026-04-16T15:20:18Z</time></trkpt><trkpt lat="42.46172664002886" lon="-8.097385267036255"><ele>567.0</ele><time>2026-04-16T15:20:19Z</time></trkpt><trkpt lat="42.461748099059825" lon="-8.09747799470412"><ele>567.0</ele><time>2026-04-16T15:20:20Z</time></trkpt><trkpt lat="42.46177009843235" lon="-8.097566720647034"><ele>567.0</ele><time>2026-04-16T15:20:21Z</time></trkpt><trkpt lat="42.46178902943447" lon="-8.097665693235482"><ele>567.0</ele><time>2026-04-16T15:20:22Z</time></trkpt><trkpt lat="42.4617987236567" lon="-8.097769175622956"><ele>567.0</ele><time>2026-04-16T15:20:23Z</time></trkpt><trkpt lat="42.46178997590175" lon="-8.097877991825921"><ele>567.0</ele><time>2026-04-16T15:20:24Z</time></trkpt><trkpt lat="42.46176815651143" lon="-8.097985693808672"><ele>567.3333333333334</ele><time>2026-04-16T15:20:25Z</time></trkpt><trkpt lat="42.461739576824826" lon="-8.098085534300814"><ele>567.6666666666666</ele><time>2026-04-16T15:20:26Z</time></trkpt><trkpt lat="42.46169200177648" lon="-8.098159855904209"><ele>568.0</ele><time>2026-04-16T15:20:27Z</time></trkpt><trkpt lat="42.46166409674969" lon="-8.098243316276324"><ele>568.3333333333333</ele><time>2026-04-16T15:20:28Z</time></trkpt><trkpt lat="42.46161486847169" lon="-8.098309946761862"><ele>568.6666666666666</ele><time>2026-04-16T15:20:29Z</time></trkpt><trkpt lat="42.461565816314604" lon="-8.098367350435733"><ele>569.0</ele><time>2026-04-16T15:20:30Z</time></trkpt><trkpt lat="42.46147357437564" lon="-8.098450369408683"><ele>569.0</ele><time>2026-04-16T15:20:32Z</time></trkpt><trkpt lat="42.4613614351024" lon="-8.098533232740317"><ele>569.0</ele><time>2026-04-16T15:20:34Z</time></trkpt><trkpt lat="42.46130093094039" lon="-8.098571609222759"><ele>569.0</ele><time>2026-04-16T15:20:35Z</time></trkpt><trkpt lat="42.46124033179063" lon="-8.098608673167549"><ele>569.0</ele><time>2026-04-16T15:20:36Z</time></trkpt><trkpt lat="42.46118261608611" lon="-8.09864397351849"><ele>569.0</ele><time>2026-04-16T15:20:37Z</time></trkpt><trkpt lat="42.46112436322303" lon="-8.098679159730239"><ele>569.0</ele><time>2026-04-16T15:20:38Z</time></trkpt><trkpt lat="42.461063095245315" lon="-8.098716132952266"><ele>570.4285714285714</ele><time>2026-04-16T15:20:39Z</time></trkpt><trkpt lat="42.461003233862044" lon="-8.098752257339298"><ele>571.8571428571429</ele><time>2026-04-16T15:20:40Z</time></trkpt><trkpt lat="42.460941771163824" lon="-8.098789348082361"><ele>573.2857142857142</ele><time>2026-04-16T15:20:41Z</time></trkpt><trkpt lat="42.46087158754408" lon="-8.098831711103655"><ele>574.7142857142858</ele><time>2026-04-16T15:20:42Z</time></trkpt><trkpt lat="42.46080762072608" lon="-8.098871467018077"><ele>576.1428571428571</ele><time>2026-04-16T15:20:43Z</time></trkpt><trkpt lat="42.46075305691161" lon="-8.098920437099988"><ele>577.5714285714286</ele><time>2026-04-16T15:20:44Z</time></trkpt><trkpt lat="42.46070527298702" lon="-8.098976365643061"><ele>579.0</ele><time>2026-04-16T15:20:45Z</time></trkpt><trkpt lat="42.460647274340836" lon="-8.099030252587209"><ele>578.5</ele><time>2026-04-16T15:20:46Z</time></trkpt><trkpt lat="42.46061154764632" lon="-8.09912395981577"><ele>578.0</ele><time>2026-04-16T15:20:47Z</time></trkpt><trkpt lat="42.46055551210922" lon="-8.09920226571155"><ele>577.5</ele><time>2026-04-16T15:20:48Z</time></trkpt><trkpt lat="42.460517753630256" lon="-8.0992991219924"><ele>577.0</ele><time>2026-04-16T15:20:49Z</time></trkpt><trkpt lat="42.460455858702794" lon="-8.099364696249205"><ele>576.5</ele><time>2026-04-16T15:20:50Z</time></trkpt><trkpt lat="42.46038560860173" lon="-8.09941940288935"><ele>576.0</ele><time>2026-04-16T15:20:51Z</time></trkpt><trkpt lat="42.46030843688535" lon="-8.09946433339987"><ele>577.4</ele><time>2026-04-16T15:20:52Z</time></trkpt><trkpt lat="42.46020916646365" lon="-8.099502733344476"><ele>578.8</ele><time>2026-04-16T15:20:53Z</time></trkpt><trkpt lat="42.46010795200008" lon="-8.099519122951333"><ele>580.1999999999999</ele><time>2026-04-16T15:20:54Z</time></trkpt><trkpt lat="42.45999870864614" lon="-8.09950520262829"><ele>581.6</ele><time>2026-04-16T15:20:55Z</time></trkpt><trkpt lat="42.4599037563874" lon="-8.099478523429077"><ele>583.0</ele><time>2026-04-16T15:20:56Z</time></trkpt><trkpt lat="42.45980705766323" lon="-8.099449320256475"><ele>583.0</ele><time>2026-04-16T15:20:57Z</time></trkpt><trkpt lat="42.45970742843412" lon="-8.099419235815898"><ele>583.0</ele><time>2026-04-16T15:20:58Z</time></trkpt><trkpt lat="42.459605769638486" lon="-8.09938853852191"><ele>583.0</ele><time>2026-04-16T15:20:59Z</time></trkpt><trkpt lat="42.45950953850986" lon="-8.099362784961777"><ele>583.0</ele><time>2026-04-16T15:21:00Z</time></trkpt><trkpt lat="42.45940773127015" lon="-8.099346102703505"><ele>583.0</ele><time>2026-04-16T15:21:01Z</time></trkpt><trkpt lat="42.459305372634965" lon="-8.099329837516306"><ele>583.1666666666667</ele><time>2026-04-16T15:21:02Z</time></trkpt><trkpt lat="42.45920364252917" lon="-8.099356482940166"><ele>583.3333333333334</ele><time>2026-04-16T15:21:03Z</time></trkpt><trkpt lat="42.45912130095861" lon="-8.099396910011167"><ele>583.5</ele><time>2026-04-16T15:21:04Z</time></trkpt><trkpt lat="42.45904452707036" lon="-8.099446214830602"><ele>583.6666666666666</ele><time>2026-04-16T15:21:05Z</time></trkpt><trkpt lat="42.458965712524396" lon="-8.09948551213887"><ele>583.8333333333333</ele><time>2026-04-16T15:21:06Z</time></trkpt><trkpt lat="42.45888966914467" lon="-8.099511239455268"><ele>584.0</ele><time>2026-04-16T15:21:07Z</time></trkpt><trkpt lat="42.45881093350818" lon="-8.099519324500827"><ele>583.1666666666666</ele><time>2026-04-16T15:21:08Z</time></trkpt><trkpt lat="42.458732357981965" lon="-8.09952137650143"><ele>582.3333333333333</ele><time>2026-04-16T15:21:09Z</time></trkpt><trkpt lat="42.45865008776461" lon="-8.099555920256401"><ele>581.5</ele><time>2026-04-16T15:21:10Z</time></trkpt><trkpt lat="42.45856444033043" lon="-8.099578877144388"><ele>580.6666666666666</ele><time>2026-04-16T15:21:11Z</time></trkpt><trkpt lat="42.45847100158816" lon="-8.099611527386957"><ele>579.8333333333334</ele><time>2026-04-16T15:21:12Z</time></trkpt><trkpt lat="42.45838374653737" lon="-8.099644562347303"><ele>579.0</ele><time>2026-04-16T15:21:13Z</time></trkpt><trkpt lat="42.45827966402346" lon="-8.099681490733031"><ele>579.0</ele><time>2026-04-16T15:21:14Z</time></trkpt><trkpt lat="42.45817645427794" lon="-8.099709605213532"><ele>579.0</ele><time>2026-04-16T15:21:15Z</time></trkpt><trkpt lat="42.45806882286291" lon="-8.0997413006147"><ele>579.0</ele><time>2026-04-16T15:21:16Z</time></trkpt><trkpt lat="42.45796241658946" lon="-8.099762696085767"><ele>579.0</ele><time>2026-04-16T15:21:17Z</time></trkpt><trkpt lat="42.457837924563094" lon="-8.099786799602867"><ele>579.0</ele><time>2026-04-16T15:21:18Z</time></trkpt><trkpt lat="42.457737081864046" lon="-8.099827874779242"><ele>579.4</ele><time>2026-04-16T15:21:19Z</time></trkpt><trkpt lat="42.4576368655633" lon="-8.099861935869402"><ele>579.8</ele><time>2026-04-16T15:21:20Z</time></trkpt><trkpt lat="42.45752919062097" lon="-8.099901557206932"><ele>580.2</ele><time>2026-04-16T15:21:21Z</time></trkpt><trkpt lat="42.45741988990073" lon="-8.099939331823782"><ele>580.6</ele><time>2026-04-16T15:21:21.999Z</time></trkpt><trkpt lat="42.457316056287056" lon="-8.100012956815108"><ele>581.0</ele><time>2026-04-16T15:21:22.999Z</time></trkpt><trkpt lat="42.45721871012703" lon="-8.100062904562492"><ele>581.0</ele><time>2026-04-16T15:21:23.999Z</time></trkpt><trkpt lat="42.45712181708342" lon="-8.100111830175477"><ele>581.0</ele><time>2026-04-16T15:21:24.999Z</time></trkpt><trkpt lat="42.457022895959696" lon="-8.10015991274506"><ele>581.0</ele><time>2026-04-16T15:21:25.999Z</time></trkpt><trkpt lat="42.456931868155394" lon="-8.1002036932799"><ele>581.0</ele><time>2026-04-16T15:21:26.999Z</time></trkpt><trkpt lat="42.45684344837817" lon="-8.100242264929264"><ele>581.0</ele><time>2026-04-16T15:21:27.999Z</time></trkpt><trkpt lat="42.45675346771684" lon="-8.100278881847222"><ele>579.8333333333333</ele><time>2026-04-16T15:21:28.999Z</time></trkpt><trkpt lat="42.45667108811563" lon="-8.100312381989697"><ele>578.6666666666666</ele><time>2026-04-16T15:21:29.999Z</time></trkpt><trkpt lat="42.45658570629563" lon="-8.100327276586755"><ele>577.5</ele><time>2026-04-16T15:21:30.999Z</time></trkpt><trkpt lat="42.45650240116044" lon="-8.10032412260111"><ele>576.3333333333334</ele><time>2026-04-16T15:21:31.999Z</time></trkpt><trkpt lat="42.456417558529" lon="-8.100308549754061"><ele>575.1666666666667</ele><time>2026-04-16T15:21:32.999Z</time></trkpt><trkpt lat="42.45632968277204" lon="-8.10028859985688"><ele>574.0</ele><time>2026-04-16T15:21:33.999Z</time></trkpt><trkpt lat="42.45623798777479" lon="-8.10027017663112"><ele>572.6666666666667</ele><time>2026-04-16T15:21:34.999Z</time></trkpt><trkpt lat="42.45614604685428" lon="-8.10027274457359"><ele>571.3333333333334</ele><time>2026-04-16T15:21:35.999Z</time></trkpt><trkpt lat="42.45606164230187" lon="-8.100308805062737"><ele>570.0</ele><time>2026-04-16T15:21:36.999Z</time></trkpt><trkpt lat="42.45597807768055" lon="-8.100332744895791"><ele>568.6666666666666</ele><time>2026-04-16T15:21:37.999Z</time></trkpt><trkpt lat="42.45590105226664" lon="-8.100359826137398"><ele>567.3333333333333</ele><time>2026-04-16T15:21:38.999Z</time></trkpt><trkpt lat="42.45582276412138" lon="-8.100396860726361"><ele>566.0</ele><time>2026-04-16T15:21:39.999Z</time></trkpt><trkpt lat="42.45573930816711" lon="-8.100452514384445"><ele>566.0</ele><time>2026-04-16T15:21:40.999Z</time></trkpt><trkpt lat="42.455658620734326" lon="-8.100513960585463"><ele>566.0</ele><time>2026-04-16T15:21:41.999Z</time></trkpt><trkpt lat="42.45557641229031" lon="-8.100580069074983"><ele>566.0</ele><time>2026-04-16T15:21:42.999Z</time></trkpt><trkpt lat="42.4554906371971" lon="-8.100649046380598"><ele>566.0</ele><time>2026-04-16T15:21:43.999Z</time></trkpt><trkpt lat="42.45540407383426" lon="-8.100714195462697"><ele>566.0</ele><time>2026-04-16T15:21:44.999Z</time></trkpt><trkpt lat="42.45530490804652" lon="-8.1007578801718"><ele>567.4</ele><time>2026-04-16T15:21:45.999Z</time></trkpt><trkpt lat="42.45521321789453" lon="-8.100833749948729"><ele>568.8</ele><time>2026-04-16T15:21:46.999Z</time></trkpt><trkpt lat="42.4551148204898" lon="-8.10090016103023"><ele>570.1999999999999</ele><time>2026-04-16T15:21:47.999Z</time></trkpt><trkpt lat="42.45501851307949" lon="-8.100956918036324"><ele>571.6</ele><time>2026-04-16T15:21:48.999Z</time></trkpt><trkpt lat="42.454920403806064" lon="-8.100995888007603"><ele>573.0</ele><time>2026-04-16T15:21:49.999Z</time></trkpt><trkpt lat="42.45484088534573" lon="-8.101025717114286"><ele>573.0</ele><time>2026-04-16T15:21:50.999Z</time></trkpt><trkpt lat="42.45476653597291" lon="-8.101060513173419"><ele>573.0</ele><time>2026-04-16T15:21:51.999Z</time></trkpt><trkpt lat="42.45468862818086" lon="-8.101093467049868"><ele>573.0</ele><time>2026-04-16T15:21:52.999Z</time></trkpt><trkpt lat="42.45461833392193" lon="-8.10112099714667"><ele>573.0</ele><time>2026-04-16T15:21:53.999Z</time></trkpt><trkpt lat="42.454546034955726" lon="-8.101153536046803"><ele>573.0</ele><time>2026-04-16T15:21:54.999Z</time></trkpt><trkpt lat="42.454472970812446" lon="-8.101190073796866"><ele>573.0</ele><time>2026-04-16T15:21:55.999Z</time></trkpt><trkpt lat="42.45439889311778" lon="-8.101224328932393"><ele>572.3333333333334</ele><time>2026-04-16T15:21:56.999Z</time></trkpt><trkpt lat="42.45432185574895" lon="-8.101270197157794"><ele>571.6666666666666</ele><time>2026-04-16T15:21:57.999Z</time></trkpt><trkpt lat="42.454236951977855" lon="-8.10129998562611"><ele>571.0</ele><time>2026-04-16T15:21:58.999Z</time></trkpt><trkpt lat="42.45415394272441" lon="-8.101335528665677"><ele>570.3333333333333</ele><time>2026-04-16T15:21:59.999Z</time></trkpt><trkpt lat="42.454071459192825" lon="-8.101372169094054"><ele>569.6666666666666</ele><time>2026-04-16T15:22:00.999Z</time></trkpt><trkpt lat="42.45398768808375" lon="-8.101420960001164"><ele>569.0</ele><time>2026-04-16T15:22:01.999Z</time></trkpt><trkpt lat="42.45391302673195" lon="-8.10146667063048"><ele>569.0</ele><time>2026-04-16T15:22:02.999Z</time></trkpt><trkpt lat="42.45384675020124" lon="-8.1014829630668"><ele>569.0</ele><time>2026-04-16T15:22:03.999Z</time></trkpt><trkpt lat="42.45375323853657" lon="-8.101524077801189"><ele>569.0</ele><time>2026-04-16T15:22:04.999Z</time></trkpt><trkpt lat="42.45369023210317" lon="-8.10155491101673"><ele>569.0</ele><time>2026-04-16T15:22:05.999Z</time></trkpt><trkpt lat="42.45361825340146" lon="-8.101584811562807"><ele>569.0</ele><time>2026-04-16T15:22:06.999Z</time></trkpt><trkpt lat="42.4535561318378" lon="-8.101614402482781"><ele>569.0</ele><time>2026-04-16T15:22:07.999Z</time></trkpt><trkpt lat="42.453464913319564" lon="-8.10169443655009"><ele>570.2</ele><time>2026-04-16T15:22:09.999Z</time></trkpt><trkpt lat="42.45340044057789" lon="-8.101761595325565"><ele>571.4</ele><time>2026-04-16T15:22:11.999Z</time></trkpt><trkpt lat="42.45336881232358" lon="-8.101890608515276"><ele>572.6</ele><time>2026-04-16T15:22:13.999Z</time></trkpt><trkpt lat="42.45332250758854" lon="-8.101960181208943"><ele>573.8</ele><time>2026-04-16T15:22:14.999Z</time></trkpt><trkpt lat="42.45318962797073" lon="-8.102048198338304"><ele>575.0</ele><time>2026-04-16T15:22:16.999Z</time></trkpt><trkpt lat="42.45311545244793" lon="-8.102112159898653"><ele>575.0</ele><time>2026-04-16T15:22:17.999Z</time></trkpt><trkpt lat="42.453041643827895" lon="-8.102167917110341"><ele>575.0</ele><time>2026-04-16T15:22:18.999Z</time></trkpt><trkpt lat="42.45300673692647" lon="-8.102282725840508"><ele>575.0</ele><time>2026-04-16T15:22:19.999Z</time></trkpt><trkpt lat="42.45296839852954" lon="-8.102374138452898"><ele>575.0</ele><time>2026-04-16T15:22:20.999Z</time></trkpt><trkpt lat="42.452934329614926" lon="-8.102475472972104"><ele>575.0</ele><time>2026-04-16T15:22:21.999Z</time></trkpt><trkpt lat="42.45289671065686" lon="-8.102581296863667"><ele>575.0</ele><time>2026-04-16T15:22:22.999Z</time></trkpt><trkpt lat="42.45285620140273" lon="-8.102693668597086"><ele>576.2</ele><time>2026-04-16T15:22:24Z</time></trkpt><trkpt lat="42.45281523498046" lon="-8.102816139853148"><ele>577.4</ele><time>2026-04-16T15:22:25Z</time></trkpt><trkpt lat="42.45279714139279" lon="-8.102901350088652"><ele>578.6</ele><time>2026-04-16T15:22:26Z</time></trkpt><trkpt lat="42.45291174425023" lon="-8.103105618774984"><ele>579.8</ele><time>2026-04-16T15:22:28Z</time></trkpt><trkpt lat="42.452970916114836" lon="-8.103201678595351"><ele>581.0</ele><time>2026-04-16T15:22:29Z</time></trkpt><trkpt lat="42.45303932875628" lon="-8.103299140412496"><ele>583.4</ele><time>2026-04-16T15:22:30Z</time></trkpt><trkpt lat="42.45311487474374" lon="-8.103377397049583"><ele>585.8</ele><time>2026-04-16T15:22:31Z</time></trkpt><trkpt lat="42.45317461383465" lon="-8.103440404757825"><ele>588.1999999999999</ele><time>2026-04-16T15:22:32Z</time></trkpt><trkpt lat="42.453230475134255" lon="-8.103480526338197"><ele>590.6</ele><time>2026-04-16T15:22:35Z</time></trkpt><trkpt lat="42.453331384877124" lon="-8.103405832086754"><ele>593.0</ele><time>2026-04-16T15:22:36Z</time></trkpt><trkpt lat="42.453437815628305" lon="-8.103408715870076"><ele>593.0</ele><time>2026-04-16T15:22:38Z</time></trkpt><trkpt lat="42.45353292281041" lon="-8.103404287576627"><ele>593.0</ele><time>2026-04-16T15:22:40Z</time></trkpt><trkpt lat="42.45362268600615" lon="-8.103398645980011"><ele>593.0</ele><time>2026-04-16T15:22:42Z</time></trkpt><trkpt lat="42.45371194627772" lon="-8.10341600453432"><ele>593.0</ele><time>2026-04-16T15:22:44Z</time></trkpt><trkpt lat="42.453798491559056" lon="-8.103418989496243"><ele>593.0</ele><time>2026-04-16T15:22:46Z</time></trkpt><trkpt lat="42.45390561725069" lon="-8.103456645206755"><ele>598.0</ele><time>2026-04-16T15:22:48Z</time></trkpt><trkpt lat="42.4540075555353" lon="-8.103469852522133"><ele>598.0</ele><time>2026-04-16T15:22:50Z</time></trkpt><trkpt lat="42.454095445004405" lon="-8.103464885075976"><ele>598.0</ele><time>2026-04-16T15:22:52Z</time></trkpt><trkpt lat="42.45419715491843" lon="-8.103470274878383"><ele>598.0</ele><time>2026-04-16T15:22:54Z</time></trkpt><trkpt lat="42.45426012849623" lon="-8.103459123165614"><ele>598.0</ele><time>2026-04-16T15:22:56Z</time></trkpt><trkpt lat="42.45432671366559" lon="-8.103453738317103"><ele>598.0</ele><time>2026-04-16T15:22:58Z</time></trkpt></trkseg></trk></gpx>